ECMWFNIL_con_mucape_003.txt.gz
CAPE
1292 1477 1104 902 856 595 537 480 304 302 350 331 329 370 396 508 659 636 617 640 704 733 778 738 703 778 867 1016 1084 1208 1320 923 668 670 766 1291 1106 896 562 636 682 680
1281 1190 1241 1012 906 846 636 443 295 319 315 361 410 446 464 562 537 580 561 492 522 555 596 615 732 766 669 618 793 950 1155 766 548 707 544 636 1017 1202 958 880 868 604
974 816 733 570 309 307 346 378 418 502 490 442 473 513 528 596 612 688 630 545 569 610 593 590 648 600 535 491 580 774 532 810 617 1072 1183 965 860 848 432 488 545 441
903 966 729 387 307 251 312 360 438 518 435 466 483 582 602 655 708 709 771 753 683 717 594 494 509 525 516 557 698 694 675 742 920 1072 445 502 680 1114 816 958 804 611
790 906 608 366 321 410 416 363 271 328 454 507 558 698 713 703 718 790 798 775 744 597 529 462 432 461 632 610 578 589 534 479 504 750 825 736 511 333 1003 1042 770 643
699 606 557 459 484 470 454 456 340 332 376 338 536 584 722 800 788 874 986 886 842 755 662 710 638 580 593 648 656 610 550 432 409 352 299 412 570 769 557 760 619 461
319 499 403 451 511 543 594 714 598 472 414 524 613 772 770 809 926 1008 1050 1044 1021 882 900 835 787 786 717 787 782 693 612 689 580 393 387 470 566 686 728 708 772 304
642 593 530 540 610 805 793 762 724 598 505 568 656 730 856 822 971 1076 1102 1219 1270 1232 1116 992 1036 1153 1049 937 840 645 584 522 494 475 498 508 476 531 566 582 689 720
818 700 782 772 798 919 828 642 675 732 666 614 652 606 722 838 859 915 1157 1219 1238 1321 1189 1112 1054 1027 1047 944 821 663 598 492 348 348 238 198 226 287 232 137 370 712
774 755 750 624 554 726 804 723 629 817 854 796 756 775 780 800 951 1013 1104 1118 1124 1234 1198 1250 1008 1014 813 773 863 774 750 581 395 282 270 230 193 254 223 306 439 449
583 582 544 605 734 478 505 431 292 377 825 986 920 862 961 944 1033 1119 1133 1158 996 1204 1443 1419 1116 904 754 825 910 1006 984 642 594 700 612 538 450 437 250 255 228 327
371 432 512 634 701 692 708 726 838 1112 1192 1029 1065 910 974 1116 1247 1298 1290 1352 1312 1474 1718 1523 1211 1108 921 798 736 649 558 632 549 448 470 446 366 394 221 284 176 236
294 340 708 668 811 896 1117 1026 1003 828 726 870 826 775 806 1065 1278 1448 1460 1505 1491 1503 1608 1456 1281 1122 824 779 890 878 724 569 404 251 192 211 221 232 192 171 296 210
374 522 846 992 920 1070 1264 1346 1332 1384 1322 1206 1098 900 917 1108 1275 1367 1480 1515 1588 1557 1624 1556 1401 1056 826 892 1005 936 669 323 244 171 188 176 150 136 124 98 210 310
810 880 1018 1078 1036 1209 1366 1466 1448 1394 1330 1193 1096 1148 1140 1308 1432 1526 1533 1598 1588 1643 1571 1440 1367 988 870 757 588 598 385 133 134 176 181 140 112 131 84 55 143 299
1104 1192 1153 1198 1162 1179 1321 1335 1223 1284 1170 1151 1134 1171 1278 1470 1662 1658 1572 1542 1586 1621 1486 1398 1370 968 554 111 124 181 166 90 130 174 169 74 52 25 9 10 15 192
1311 1265 1226 1157 1202 1159 1246 1328 1324 1212 1134 1195 1296 1387 1528 1576 1703 1700 1548 1506 1548 1572 1518 1208 1024 938 170 161 146 203 216 114 172 130 76 38 8 10 7 10 7 4
1207 1251 1210 1188 1182 1178 1268 1307 1177 1108 1190 1338 1444 1528 1600 1642 1719 1754 1691 1657 1633 1650 1581 1290 1193 558 195 312 350 279 240 119 237 146 34 18 6 12 8 8 8 7
1234 1168 1140 1194 1247 1262 1311 1174 1147 1216 1315 1463 1473 1458 1483 1704 1810 1703 1699 1781 1798 1775 1638 1378 1243 826 302 428 463 340 252 76 242 134 47 21 2 6 5 16 10 9
1300 1223 1130 1202 1330 1320 1209 1155 1236 1322 1416 1366 1360 1524 1702 1812 1857 1972 1953 1982 1898 1898 1721 1456 1282 874 423 640 572 400 266 112 208 102 55 33 5 2 5 16 15 6
1230 1272 1250 1260 1300 1229 1156 1163 1323 1421 1480 1456 1422 1514 1675 1804 1953 1939 1756 1700 1700 1766 1876 1713 1555 899 590 641 711 398 257 165 262 130 96 65 29 2 3 6 14 11
1408 1374 1382 1302 1263 1258 1234 1258 1337 1410 1424 1464 1508 1648 1879 2075 2088 2065 1840 1706 1630 1826 1898 1992 1890 923 438 508 657 449 234 475 312 209 133 68 37 1 2 6 11 12
1446 1367 1323 1318 1322 1196 1218 1160 1276 1229 1374 1618 1558 1651 1764 1902 1996 1887 1931 1750 1644 1780 2032 2009 1932 1597 548 465 536 537 233 542 336 167 157 86 52 22 6 0 2 6
1402 1317 1187 1229 1384 1314 1227 1164 1117 1230 1451 1520 1486 1516 1604 1698 1762 1857 1960 1967 1610 1566 1430 1538 1378 1542 878 611 658 659 283 420 332 273 186 126 64 28 16 0 1 0
1240 1293 1271 1235 1370 1371 1255 1110 1177 1246 1260 1424 1375 1428 1583 1912 1950 1946 1886 1760 1412 1364 1299 1274 1128 1318 1258 843 843 858 347 654 438 342 237 161 81 58 44 16 8 12
1307 1246 1416 1510 1485 1536 1439 1298 1345 1356 1246 1174 1230 1182 1229 1364 1840 1760 1741 1292 1216 1486 1100 1385 1213 1329 1758 1364 982 936 534 270 666 449 284 216 139 117 54 32 34 36

ECMWFNIL_con_mucape_006.txt.gz
CAPE
540 474 299 246 313 318 323 290 238 255 384 345 332 291 298 276 381 400 372 360 434 484 476 462 490 572 680 686 662 889 988 1128 1328 1166 981 960 645 456 506 724 1110 1131
452 363 354 254 356 372 388 302 255 287 358 313 286 283 222 249 186 228 267 388 324 376 539 493 472 600 532 463 540 733 930 1068 1029 1190 1226 1180 970 970 801 1016 868 1060
413 318 218 166 79 85 109 218 348 299 289 284 278 235 184 192 229 289 490 389 398 523 877 616 403 377 388 432 534 766 914 974 1076 1135 1206 1268 1284 1108 1034 874 982 802
477 328 180 140 131 83 102 197 324 316 280 221 206 196 213 350 422 569 575 604 699 644 476 477 508 486 480 568 584 677 848 956 885 994 996 1010 1066 1208 1337 1172 1117 988
355 282 308 206 107 132 206 308 335 332 311 280 245 206 212 342 391 417 472 566 669 639 382 400 460 418 476 496 509 522 710 653 533 648 685 618 728 953 974 912 1149 1199
354 279 239 204 159 95 121 154 228 276 293 266 248 214 206 280 386 464 541 619 480 504 530 507 554 489 450 569 808 630 544 417 399 428 456 556 486 520 536 501 590 695
392 358 315 196 154 131 162 224 249 269 222 221 368 383 376 370 448 532 698 816 886 987 978 1042 989 770 806 902 932 812 738 744 637 668 668 607 468 618 618 580 476 429
376 250 241 144 77 94 123 161 162 198 216 252 310 292 371 401 587 556 675 809 878 1018 1299 1432 1265 998 866 1006 1034 1034 1144 1072 1007 934 839 832 859 699 576 347 308 311
390 283 198 146 99 74 40 2 0 0 35 186 240 234 294 397 449 510 655 861 1109 1298 1451 1526 1515 1333 916 823 1013 1178 1073 1039 1056 1000 921 873 676 553 584 737 843 742
384 377 177 18 1 4 0 0 0 0 2 31 141 144 186 451 527 691 845 1058 1362 1452 1508 1542 1455 1338 1202 1094 1190 1144 984 888 894 908 824 456 236 265 288 356 378 369
400 240 78 29 13 1 0 0 0 0 2 16 50 102 244 378 490 791 1142 1458 1481 1512 1501 1518 1481 1455 1519 1513 1354 1163 1052 940 942 803 564 411 139 70 66 255 462 467
366 176 62 17 8 2 0 4 2 16 8 0 0 0 32 132 271 374 1116 1392 1405 1482 1517 1530 1650 1731 1749 1674 1394 1178 1081 962 865 668 495 273 168 84 86 176 397 398
237 106 55 21 18 12 9 0 1 0 0 2 0 0 1 30 170 353 650 1396 1588 1622 1560 1604 1699 1758 1828 1714 1515 1162 940 799 650 563 437 311 176 56 40 88 155 162
250 74 44 42 34 28 24 37 57 57 58 38 23 3 0 3 42 288 552 969 1254 1464 1578 1818 1880 1932 1884 1779 1522 1108 968 808 719 638 477 271 104 70 66 57 42 28
278 90 41 32 24 68 111 149 172 156 106 67 40 37 28 143 361 490 754 1033 1298 1546 1817 1915 1872 1844 1907 1738 1142 861 876 710 680 469 363 200 92 65 32 24 14 12
331 203 155 113 119 128 205 306 307 190 44 28 24 23 57 194 632 900 1018 1086 1045 1180 1628 1886 1904 1928 1646 759 278 627 665 764 664 504 435 258 184 34 0 2 4 9
400 307 303 207 207 239 387 577 561 208 72 51 72 195 398 689 954 947 852 969 1104 1290 1558 1768 1868 1933 1351 545 397 345 706 742 646 491 408 375 242 46 2 1 1 0
476 398 368 268 275 430 586 716 809 315 146 118 112 191 358 442 564 722 950 1216 1337 1343 1401 1615 1712 1645 1304 694 483 484 472 812 555 496 492 448 218 68 8 0 1 1
664 447 336 304 421 586 722 910 957 431 194 118 90 136 246 507 605 626 913 1102 1287 1272 1196 1158 1290 1477 1354 996 544 463 533 559 659 472 444 420 325 205 42 12 6 2
726 502 449 444 569 750 908 1107 929 296 188 87 66 188 329 474 575 654 957 1115 910 926 1039 1205 1370 978 1238 1086 690 635 686 519 698 408 435 396 431 350 118 66 34 19
752 573 643 690 753 965 1235 1068 574 225 244 185 156 165 264 422 584 669 805 872 770 641 708 805 708 914 1150 1035 712 687 686 547 746 573 641 524 474 430 278 159 98 61
724 648 760 952 1140 1247 1235 828 268 152 238 324 494 414 423 525 547 707 947 1147 975 784 661 674 547 964 1316 1249 846 600 715 652 647 686 894 810 608 444 394 302 207 163
657 663 699 757 881 970 1072 695 158 155 208 341 545 445 316 240 254 254 503 888 960 872 560 686 905 1450 1267 1300 1103 754 666 938 438 479 777 904 936 714 529 392 264 212
754 702 661 614 768 884 808 511 132 140 317 544 498 421 310 239 178 234 503 698 640 624 570 790 510 477 1118 1236 1115 964 826 1167 962 541 759 1030 1142 1102 842 476 401 306
734 672 725 698 741 664 579 405 293 376 431 882 667 290 342 572 296 387 540 788 569 336 334 253 424 372 752 983 1098 1127 1012 1482 1375 1032 1074 1098 1076 1366 1078 615 450 416
833 865 920 758 648 699 660 734 1079 775 735 850 566 259 295 395 484 497 482 494 512 566 395 350 545 717 712 934 1154 1339 1238 1270 1707 1545 1224 988 1101 1375 1250 553 617 472

ECMWFNIL_con_mucape_009.txt.gz
CAPE
426 557 482 420 369 392 351 326 215 158 163 245 403 413 510 513 536 598 518 511 460 416 402 416 502 540 462 396 408 406 464 628 760 640 561 928 1094 1160 961 809 1181 1495
506 537 447 312 375 315 342 265 221 241 375 430 495 550 527 528 508 477 530 526 495 409 399 500 354 346 360 285 344 425 634 772 1150 852 733 813 1125 1003 927 980 1043 880
500 488 524 504 369 294 92 104 146 394 497 519 507 464 360 380 402 438 518 528 505 477 560 562 340 274 266 272 299 398 463 714 1026 805 785 1004 930 971 957 932 919 885
586 431 323 309 285 211 186 125 242 372 374 419 378 323 335 379 412 438 390 411 459 470 393 400 354 251 214 276 306 368 420 532 506 572 560 530 578 625 643 695 660 654
596 613 497 350 324 201 95 180 233 226 398 357 343 313 386 462 439 371 380 381 408 354 189 193 204 166 198 188 318 500 387 293 231 250 252 302 514 563 488 524 604 492
541 357 394 303 289 321 210 201 182 208 300 327 307 260 260 277 368 392 384 461 328 244 341 320 342 370 286 285 438 676 585 459 373 624 715 940 851 826 824 838 754 714
640 606 566 506 432 350 261 246 276 228 211 284 311 335 318 282 341 417 459 522 536 677 677 869 758 845 746 524 583 606 651 774 838 809 1008 898 866 898 825 472 219 154
663 449 498 508 416 331 274 206 188 126 248 311 236 250 249 230 255 294 320 410 518 555 770 1007 1064 966 909 646 533 530 599 831 720 690 764 886 926 704 290 161 137 46
525 463 469 428 352 229 141 144 35 12 2 26 150 139 166 192 174 217 401 599 729 878 1093 1336 1272 1273 1224 1236 1060 955 1254 1010 762 846 860 880 776 434 308 210 115 121
643 548 374 262 171 140 121 101 2 1 15 21 12 2 7 110 174 230 308 355 531 829 1301 1698 1514 1549 1509 1376 1094 1134 1241 1254 1040 1010 902 820 616 497 346 259 190 264
600 499 399 414 233 48 16 9 0 0 1 0 12 65 113 33 58 88 150 222 268 1163 1700 1748 1596 1267 1362 1344 1134 1047 1096 1204 1093 964 868 737 636 495 278 199 267 329
610 535 349 218 147 82 58 36 6 5 4 20 2 2 0 0 0 2 30 91 158 403 1678 1878 1785 1782 1732 1634 1340 1035 1090 1236 1124 1060 798 733 546 455 247 280 250 268
454 452 392 180 136 142 165 64 8 0 8 52 13 7 6 1 0 1 9 62 140 245 941 1382 1497 1623 1650 1615 1668 1682 1560 1416 1227 1164 966 687 521 425 323 310 179 117
290 286 253 184 111 127 109 97 109 97 123 154 165 88 9 5 4 5 6 19 124 362 831 1230 1286 1198 1194 1302 1337 1603 1539 1331 1228 1169 955 508 512 532 348 169 118 55
414 345 267 171 145 201 238 296 232 218 219 207 216 155 50 24 45 12 60 221 380 813 1208 1418 1181 828 1165 1307 1479 1620 1561 1210 991 882 654 497 554 579 406 222 125 73
693 640 409 242 226 287 381 336 250 294 458 417 276 138 130 98 199 250 235 370 610 708 986 1148 1040 981 1322 925 1041 1315 1070 868 868 801 562 515 562 591 404 297 158 148
782 732 678 567 496 449 435 505 555 723 796 682 462 274 253 217 216 222 213 230 520 825 890 1010 991 1099 699 1082 1224 1384 1021 837 929 758 507 436 420 565 450 398 297 368
673 698 634 646 614 572 584 587 693 826 1037 886 467 301 232 113 120 148 293 410 746 928 1113 1044 1053 940 916 991 1210 1222 1067 826 921 851 501 349 360 513 648 552 409 468
788 705 685 675 670 664 644 674 856 940 1347 1096 591 269 163 175 238 274 364 506 718 1002 1278 1119 846 784 1039 1024 1081 1117 1002 828 914 1033 569 391 392 475 537 714 719 618
753 798 755 730 740 773 783 845 983 1220 1426 841 420 289 174 182 238 517 704 598 763 892 594 617 526 569 420 712 844 890 910 864 992 1117 772 534 594 625 742 855 803 687
724 706 787 802 820 860 952 1020 1400 1628 1220 594 310 243 304 553 678 668 557 479 897 663 798 813 636 121 12 325 513 689 910 827 1064 1211 1069 838 890 906 860 1005 985 930
759 766 824 872 848 951 1054 1225 1636 1801 989 534 364 340 474 422 283 215 489 399 489 769 850 840 697 512 226 152 450 656 844 864 1218 1537 1140 758 626 803 1048 1148 1303 1281
853 834 816 788 815 816 741 754 1103 1508 830 401 339 518 500 326 395 383 502 489 572 670 609 572 545 667 479 86 282 712 890 1278 1401 1516 1289 691 562 444 806 1309 1530 1594
900 854 876 830 719 547 588 666 847 1087 631 389 533 650 331 243 460 396 428 480 560 714 596 456 325 334 335 362 0 0 590 727 710 1242 1205 1050 427 738 1154 1470 1789 791
922 990 972 864 702 554 513 580 690 764 649 671 785 628 470 444 413 426 463 565 539 576 505 554 469 506 562 215 0 0 0 536 668 1129 1110 559 472 636 671 1236 1607 1350
986 1086 1042 876 666 410 402 564 648 679 794 788 898 752 414 232 326 429 522 684 658 608 544 596 866 942 777 454 3 0 146 480 632 704 1288 1242 848 281 779 607 361 380

ECMWFNIL_con_mucape_012.txt.gz
CAPE
474 581 526 500 680 546 464 466 465 576 645 683 938 1014 1180 1062 975 1018 977 1140 1067 1076 1078 1050 1010 926 840 842 789 861 869 942 972 1204 1000 892 856 767 675 729 833 1081
668 526 713 681 674 701 643 565 697 515 604 776 1107 1270 1326 1029 789 811 992 962 999 985 1048 945 989 988 903 675 774 791 928 966 912 774 881 768 858 876 783 604 547 770
443 677 722 524 587 600 491 421 219 387 616 743 656 818 910 713 824 842 1007 960 916 935 1039 961 810 922 874 743 786 841 735 824 811 751 766 800 762 704 635 457 482 472
885 739 683 576 679 378 256 329 484 711 758 1067 832 719 624 682 790 831 922 928 940 990 965 809 760 745 754 710 712 859 774 851 704 711 654 732 723 701 710 666 680 518
999 890 635 488 470 527 502 238 251 275 513 629 519 704 947 949 925 794 770 835 942 780 707 794 714 661 804 678 700 892 915 859 729 611 714 714 833 815 722 708 726 502
1107 909 1040 888 624 628 554 400 517 344 376 212 532 524 597 663 693 697 692 666 534 540 625 714 797 867 774 794 916 1021 949 892 879 868 852 786 761 791 739 736 548 336
829 801 595 617 506 515 636 561 485 540 366 421 538 639 578 567 689 812 815 728 654 918 833 1006 1135 1276 1242 1172 1085 1062 1022 919 798 885 779 720 825 790 651 512 482 423
919 778 872 1001 784 880 786 640 557 717 844 623 462 747 793 557 717 596 604 781 662 738 1024 1087 1248 1344 1238 1077 1200 1131 1023 876 925 874 836 820 883 824 699 563 434 405
1131 1018 972 857 839 690 328 295 302 496 460 440 394 263 669 742 672 620 860 843 806 921 1136 1216 1219 1300 1246 1146 1344 1366 1368 1380 1265 1146 1096 972 834 743 632 527 420 361
1124 1078 692 400 304 465 209 180 87 31 34 454 618 188 276 439 449 583 685 857 902 891 981 1093 1446 1537 1453 1167 1132 1145 1156 1162 1222 1281 1123 977 874 725 574 495 380 341
842 790 638 621 397 87 62 18 0 4 71 2 76 94 184 503 990 876 984 1179 1010 973 919 854 1052 1548 1099 974 1081 1161 1193 1016 1031 1199 1198 1120 1018 764 484 538 420 336
996 798 615 585 550 378 233 154 92 89 4 2 214 77 338 147 329 518 492 764 804 798 747 797 1178 1395 1058 814 856 1120 1393 1445 1100 1083 1130 1154 1109 683 516 501 402 376
995 945 839 454 615 480 416 138 59 11 6 169 70 115 65 90 115 286 610 534 653 710 707 833 1162 1503 1352 1208 984 988 987 1043 1015 934 952 1016 970 550 453 408 386 376
807 911 843 920 646 597 362 363 292 276 509 577 446 216 180 262 159 193 243 333 460 555 652 781 1124 1806 1472 1219 1106 855 791 662 1069 1149 908 877 837 672 559 424 420 372
909 744 801 858 829 841 683 636 689 569 635 688 718 649 487 350 285 299 427 591 625 669 822 938 1522 1054 1184 1302 1181 897 840 873 1071 972 804 783 752 634 558 616 594 558
1015 887 903 939 784 739 804 856 664 799 615 690 838 775 836 818 858 829 393 299 530 614 664 730 722 448 919 539 362 1030 1080 1046 1232 1210 1111 1055 893 724 574 557 582 561
1244 1208 1200 1056 933 759 831 862 952 956 1015 1137 1183 1184 1281 1086 868 834 235 212 324 427 555 805 638 666 198 248 328 518 809 1329 1594 1421 1220 1123 972 699 642 642 641 638
1293 1424 1320 1288 1189 1137 1146 1104 1065 1164 1265 1317 1374 1278 1425 1253 727 690 678 674 543 497 684 1099 1184 468 304 0 281 541 671 1201 1339 1255 1151 1126 1053 829 648 600 639 702
1428 1404 1400 1330 1322 1314 1296 1212 1322 1375 1395 1346 1312 1483 1232 1146 1016 740 736 810 840 1008 1124 998 1165 641 43 3 58 473 646 721 1024 1176 1215 1236 1198 1000 782 782 948 1028
1346 1303 1283 1282 1379 1410 1395 1384 1277 1311 1328 1177 1288 1413 1177 1074 753 681 818 1055 1105 1102 1142 1010 1050 828 488 124 1 2 141 521 813 1091 1266 1154 1160 1105 1044 989 1136 1188
1442 1347 1316 1386 1416 1423 1479 1449 1445 1480 1496 1444 1417 1279 1123 1184 1029 982 959 731 765 1073 1274 1176 1063 674 350 25 0 0 0 10 584 999 1197 1125 1085 952 958 996 1110 852
1434 1374 1420 1469 1461 1474 1504 1532 1615 1751 1757 1972 1804 1288 947 763 873 857 769 653 762 731 621 749 533 224 0 0 0 0 0 97 653 1173 1290 1213 1007 900 964 1125 956 764
1299 1309 1402 1450 1451 1436 1475 1489 1633 1788 1921 2047 1729 1277 929 880 847 715 730 745 659 836 892 927 736 541 58 0 0 0 46 693 1101 1218 1207 1075 991 1026 1178 767 532 611
1463 1382 1487 1524 1517 1469 1469 1478 1259 1167 1377 1976 1722 1219 764 601 669 613 666 703 683 666 282 571 618 371 0 0 0 0 50 443 988 1238 1200 1233 1081 1168 1324 1177 854 652
1562 1590 1576 1549 1531 1438 1285 1232 1286 1267 1444 1792 1390 1084 885 1023 849 589 512 573 410 296 345 434 440 426 342 474 385 0 2 496 1104 1217 1192 1196 1261 1288 1320 1378 1156 1004
1502 1741 1687 1454 1537 1636 1534 1216 1228 1108 842 849 1161 964 877 916 870 572 467 376 285 347 278 626 516 615 799 469 268 0 0 334 1128 1248 1124 1071 1125 1086 1047 946 876 778

ECMWFNIL_con_mucape_015.txt.gz
CAPE
143 122 270 573 150 216 292 182 332 213 188 138 409 496 384 520 624 450 606 868 750 582 783 846 785 702 771 590 717 611 739 654 719 803 685 708 619 635 505 530 443 529
225 341 776 348 716 654 412 68 82 68 193 274 222 436 774 746 441 433 694 595 666 573 608 651 724 784 678 647 493 466 454 688 643 1050 593 603 545 522 588 586 337 242
78 474 414 121 98 327 152 129 134 225 15 38 342 444 207 482 678 499 390 454 565 659 690 722 710 614 672 657 631 617 581 506 566 561 647 496 559 591 431 401 407 398
217 328 340 164 72 88 493 286 78 58 7 82 199 474 505 297 163 292 468 1227 640 569 668 708 574 515 522 567 579 468 477 497 443 368 502 604 423 403 419 538 656 392
212 305 428 408 332 428 266 8 114 119 226 276 329 226 358 424 362 412 454 412 509 510 522 521 612 562 602 592 511 385 493 651 665 560 418 300 311 545 617 534 472 340
579 215 271 128 250 356 164 22 0 0 0 122 53 249 269 334 353 251 250 284 315 303 281 388 545 679 715 763 719 585 698 695 700 667 604 608 645 690 680 574 473 331
471 564 337 356 351 238 220 122 136 325 71 4 56 132 237 206 91 168 270 304 318 414 414 469 592 613 866 1034 990 855 764 795 806 706 661 663 634 662 648 487 343 219
567 316 364 236 211 232 218 170 115 114 104 145 64 23 197 166 173 254 386 354 316 290 396 510 490 609 859 1033 993 1000 1004 1005 889 862 706 617 584 528 520 484 218 144
383 301 217 328 218 343 273 236 225 129 112 172 169 118 223 211 211 326 378 286 290 292 244 364 578 753 837 968 973 1076 1149 1175 1203 1110 996 905 763 684 347 283 183 222
443 464 399 283 406 394 357 236 143 52 84 80 24 5 6 146 325 272 245 272 239 281 297 370 487 604 927 1067 865 700 767 798 736 733 861 957 795 517 311 204 148 122
565 676 424 389 302 212 183 82 18 0 9 27 54 46 38 15 94 234 106 130 233 255 302 372 466 730 1053 916 766 766 767 857 961 989 851 746 627 618 632 315 270 177
619 590 356 236 234 165 90 26 1 3 0 4 5 14 4 1 0 28 160 77 289 529 528 521 526 912 927 753 637 554 719 993 1049 888 778 599 633 570 508 411 297 117
546 446 296 266 295 159 81 64 41 0 0 42 6 9 10 2 1 0 1 78 242 282 245 447 576 889 807 803 783 786 812 782 631 545 561 543 487 475 440 398 163 92
555 417 321 290 304 311 211 79 19 40 76 113 196 0 2 9 22 6 2 110 92 106 81 131 159 1098 1159 1051 890 715 628 592 413 452 625 610 518 470 507 429 274 114
502 282 281 471 476 333 258 158 92 77 103 136 30 74 222 129 45 50 68 72 85 92 96 219 792 923 841 580 598 926 930 676 407 444 523 529 519 497 506 467 392 300
559 616 591 477 407 227 44 22 17 42 129 150 172 165 129 267 316 187 209 235 84 78 360 594 663 578 647 656 982 1045 834 661 606 611 586 602 720 675 586 531 443 332
654 632 587 476 283 159 154 146 129 226 241 174 194 285 336 380 533 514 249 65 10 16 5 182 387 404 524 745 798 555 386 355 504 590 754 962 985 735 577 552 493 390
211 240 346 300 247 180 160 148 198 254 276 268 322 352 406 525 549 518 442 427 224 70 96 432 576 643 480 191 10 4 87 261 409 665 860 891 794 714 655 614 606 563
297 410 333 340 283 195 180 237 248 296 327 378 482 572 682 711 704 675 652 496 340 322 386 841 830 822 588 410 0 0 0 13 162 414 535 611 660 742 835 819 738 704
528 458 473 424 436 383 357 334 393 391 415 479 567 720 811 841 864 854 666 375 373 351 594 749 704 763 769 569 258 0 0 0 8 71 258 488 628 739 822 816 741 684
642 565 578 583 596 575 556 548 532 560 623 688 746 769 862 910 803 679 645 363 472 828 774 728 798 820 712 642 539 0 0 0 0 4 128 312 523 709 761 731 709 607
723 674 642 696 731 735 716 695 710 708 709 740 793 787 874 926 837 738 559 466 331 527 725 733 795 951 884 670 555 0 0 0 0 0 18 196 478 739 857 805 630 645
736 685 667 712 784 813 807 818 806 764 739 810 970 1057 1069 1032 976 939 739 418 392 328 305 268 241 255 219 157 212 221 23 0 24 179 363 586 774 854 803 676 641 712
928 747 707 768 857 886 880 851 820 843 883 1078 1162 1204 1199 1126 1060 567 318 74 215 27 56 11 14 0 0 0 0 0 141 220 97 63 346 702 940 957 879 768 732 1115
1202 986 883 871 904 924 936 903 898 928 980 1109 1286 1215 1154 967 633 373 0 31 38 46 169 96 69 66 0 0 0 0 292 302 136 334 745 914 911 890 863 856 845 856
1404 1181 981 898 888 906 928 950 917 917 907 809 1004 1180 999 757 500 423 283 226 204 60 134 98 192 159 155 0 0 0 12 236 123 415 699 838 830 756 732 639 624 596

ECMWFNIL_con_mucape_018.txt.gz
CAPE
0 0 0 0 0 0 43 5 0 0 0 0 0 0 75 152 275 185 146 395 510 217 287 435 664 467 506 342 397 464 460 242 337 412 629 625 496 503 589 394 371 471
0 6 130 0 38 271 2 0 0 0 0 0 0 16 30 163 314 256 223 454 514 275 191 285 326 288 236 252 232 232 150 319 267 658 631 598 482 227 262 202 306 21
0 4 84 0 62 55 0 0 0 0 0 0 0 0 63 450 107 119 217 135 120 123 145 161 205 301 292 210 160 201 273 132 184 156 535 506 159 200 168 143 47 68
0 0 2 0 0 0 0 0 0 0 0 0 0 86 121 214 132 94 23 858 230 187 155 174 234 196 177 159 178 193 166 103 103 122 136 234 335 238 66 12 294 414
0 0 0 0 0 0 4 3 2 0 0 0 0 8 253 202 32 0 8 72 132 70 89 157 130 149 158 141 124 122 94 289 191 166 191 332 45 118 145 292 404 338
0 14 16 0 0 0 0 0 0 0 0 0 0 95 56 18 0 0 19 16 6 19 33 26 28 43 112 184 144 130 177 479 468 378 422 378 356 342 407 484 463 381
0 6 57 24 18 5 1 0 0 0 0 0 0 0 12 13 5 5 0 0 0 17 11 7 20 97 132 200 242 510 584 591 530 455 466 479 472 443 484 292 122 298
6 0 24 4 7 12 1 0 0 0 0 0 0 0 0 0 0 0 0 0 3 6 19 23 31 78 86 200 305 550 658 674 656 583 631 660 661 653 511 346 129 33
42 54 20 9 4 0 8 0 0 0 0 3 0 0 0 0 0 0 0 8 17 33 21 20 28 32 21 106 335 511 638 712 732 774 814 836 775 719 644 574 323 133
74 100 69 25 11 10 3 2 4 0 15 0 0 0 0 0 4 0 1 13 25 59 30 18 14 20 72 133 327 504 574 518 516 674 748 663 592 652 698 576 360 219
91 57 56 44 22 22 34 21 22 34 46 44 0 0 0 0 0 13 9 11 32 24 12 6 16 38 78 155 237 538 571 464 433 472 529 620 643 651 659 528 399 264
79 81 50 38 55 46 105 119 78 53 0 2 0 0 0 0 0 0 30 0 0 0 0 3 12 25 62 163 365 555 554 507 444 505 706 802 762 664 565 466 418 355
87 126 109 93 140 91 94 92 47 14 0 0 0 0 0 0 0 0 13 0 0 0 24 40 32 29 58 106 365 426 421 354 387 580 675 595 442 375 324 303 278 288
140 160 144 121 114 87 34 9 1 0 0 0 0 0 0 0 0 0 0 0 0 0 0 0 0 2 21 46 232 358 452 509 486 463 449 358 254 274 321 267 213 229
331 174 144 149 185 69 45 8 0 0 0 0 0 0 0 0 0 0 0 0 0 0 0 0 0 0 33 156 222 524 549 420 394 465 465 392 299 252 280 304 337 333
496 439 295 426 425 100 68 38 6 0 0 0 0 0 0 1 0 0 0 0 0 1 0 0 10 72 371 389 327 237 68 167 474 524 504 406 343 360 393 468 590 545
672 519 232 101 111 66 23 37 13 0 0 0 0 0 0 13 25 2 25 80 176 128 0 0 7 88 264 145 391 380 495 445 485 474 402 368 398 444 484 612 771 653
728 289 81 96 68 54 77 20 0 0 0 0 0 0 4 17 41 39 59 134 281 399 402 355 311 4 7 6 153 206 433 564 434 273 42 71 254 441 616 685 667 580
704 389 272 128 247 161 143 383 1 0 0 0 1 7 27 54 62 96 165 353 384 514 501 504 400 58 136 184 262 290 206 137 77 4 24 159 256 286 306 315 356 453
640 631 358 216 296 460 449 432 385 209 2 6 38 107 147 122 290 414 492 566 561 427 308 409 423 238 354 422 398 334 244 109 30 36 42 39 4 11 46 109 201 332
550 209 142 249 314 364 462 472 402 40 8 21 83 102 159 266 440 524 578 582 570 360 6 50 195 397 447 373 323 302 342 312 146 65 93 83 0 0 8 38 152 326
550 531 424 106 448 462 412 302 47 32 46 74 243 303 370 471 553 611 655 658 520 348 143 99 294 300 249 0 84 105 326 463 354 69 50 110 91 0 2 93 308 469
392 341 396 100 81 232 142 168 159 140 169 251 416 511 571 596 589 570 583 635 678 704 459 16 4 0 0 0 0 0 0 0 0 0 0 74 167 51 254 519 652 679
278 309 277 209 290 342 236 324 360 424 472 512 539 586 602 655 651 648 686 755 806 687 413 32 0 0 0 0 0 0 0 0 0 0 0 0 149 308 542 622 608 658
233 358 421 463 519 522 486 523 571 630 658 649 651 649 658 641 679 622 579 642 582 392 231 62 0 0 0 0 0 0 0 0 0 0 152 170 161 453 523 374 225 140
373 523 572 624 708 738 726 696 726 754 758 721 715 738 736 677 549 431 482 580 484 20 5 26 0 0 36 0 0 0 0 0 0 0 119 196 374 252 2 0 0 0

ECMWFNIL_con_mucape_021.txt.gz
CAPE
1063 618 0 0 0 0 0 0 0 0 0 0 0 0 0 2 6 11 20 50 163 94 90 50 244 190 156 31 54 46 54 0 0 0 0 92 366 197 16 14 0 0
738 0 10 0 0 0 0 0 0 0 0 0 0 0 0 2 5 20 3 55 291 124 2 11 77 96 22 18 1 3 1 23 4 152 14 7 8 162 147 1 0 0
364 0 0 0 0 0 0 0 0 0 0 0 0 0 0 6 1 22 0 29 74 84 8 0 0 12 6 0 0 8 28 0 0 0 90 27 0 0 0 0 0 0
855 126 0 0 0 0 0 0 0 0 0 0 0 0 0 39 37 10 2 544 2 1 0 0 0 0 0 0 0 0 0 0 0 0 0 5 6 1 0 0 2 0
894 199 0 0 0 0 0 0 0 0 0 0 0 0 13 44 32 0 0 19 7 0 0 0 0 0 0 0 0 0 0 0 0 0 0 188 50 4 5 0 0 1
654 0 0 0 0 0 0 0 0 0 0 0 0 0 0 0 0 0 0 0 0 0 0 0 0 0 0 0 0 0 0 0 0 0 248 278 218 129 34 153 154 180
563 0 0 0 0 0 0 0 0 0 0 0 0 0 0 0 0 0 0 0 0 0 0 0 0 0 0 0 0 0 0 0 0 35 315 341 312 300 308 316 308 275
417 0 0 0 0 0 0 0 0 0 0 0 0 0 0 0 0 0 0 0 0 0 0 0 0 0 0 0 0 0 0 0 12 0 355 409 382 387 441 478 503 489
0 0 0 0 0 0 0 0 0 0 0 0 0 0 0 0 0 0 0 0 0 0 0 0 0 0 0 0 0 0 0 2 47 61 45 440 454 463 514 559 540 487
0 0 0 0 0 0 0 0 0 0 0 0 0 0 0 0 0 0 0 0 0 0 0 0 0 0 0 0 0 0 0 0 4 38 368 442 470 519 577 572 500 447
0 0 0 0 0 0 0 0 0 0 0 0 0 0 0 0 0 0 0 0 0 0 0 0 0 0 0 0 0 0 0 2 9 2 10 150 368 428 428 429 478 492
99 0 0 0 0 23 0 0 0 0 0 0 0 0 0 0 0 0 0 0 0 0 0 0 0 0 0 0 0 0 0 1 2 0 0 0 1 276 400 515 579 604
203 209 158 210 142 70 0 0 0 0 0 0 0 0 0 0 0 0 0 0 0 0 0 0 0 0 0 0 0 0 0 0 0 0 2 5 14 218 459 558 558 489
203 297 190 194 241 61 0 1 0 0 0 0 0 0 0 0 0 0 0 0 0 0 0 0 0 0 0 0 0 0 0 0 0 0 0 247 289 338 374 340 246 195
377 0 0 147 257 202 0 34 12 3 0 0 0 0 0 0 0 0 0 0 0 0 0 0 0 0 0 0 0 0 0 0 0 0 144 257 202 196 232 240 200 160
539 372 2 204 323 331 262 181 40 5 1 0 0 0 0 0 0 0 0 0 0 0 0 0 0 25 27 6 9 22 0 0 0 0 249 204 158 161 180 174 167 187
380 0 31 117 253 333 196 58 29 26 2 0 0 0 0 0 0 0 0 0 0 0 0 41 153 115 2 1 3 94 170 0 0 0 65 180 182 180 146 127 135 178
349 174 15 6 188 167 70 52 339 119 207 0 0 0 0 0 0 0 0 0 0 0 0 0 0 26 312 328 287 147 129 157 14 7 11 94 157 74 37 4 97 178
357 109 20 16 16 36 76 168 66 317 234 83 0 0 0 0 0 0 0 0 0 0 2 6 273 327 362 355 334 142 0 1 10 2 0 0 0 0 1 57 58 64
387 17 46 30 32 50 99 60 46 246 119 0 0 103 340 316 0 0 0 0 4 8 18 43 337 346 202 62 54 0 0 0 0 0 0 0 0 0 0 79 89 38
400 250 115 131 141 91 47 74 96 124 14 0 47 284 372 54 41 20 23 54 56 39 128 374 431 393 334 236 194 253 188 0 0 212 251 293 180 43 0 18 103 72
530 419 150 254 194 46 14 21 43 128 246 379 380 387 395 361 316 80 69 75 18 353 380 467 528 510 578 386 0 0 0 0 0 51 72 272 368 328 156 91 65 22
652 346 304 103 58 40 6 6 18 20 0 367 456 509 531 471 360 60 96 46 155 403 466 517 566 668 630 243 0 0 0 0 0 0 0 0 143 250 7 0 0 240
550 466 266 88 212 288 412 120 49 181 312 163 382 521 592 472 92 49 1 405 485 547 551 646 774 709 419 0 0 0 0 28 41 0 0 0 0 0 0 19 228 346
578 460 394 264 310 379 409 429 146 249 418 424 503 567 486 262 129 153 467 570 635 656 622 538 465 414 99 0 0 0 0 0 0 0 0 0 0 0 0 14 223 139
596 641 545 333 343 377 426 463 422 283 317 350 404 404 351 366 433 528 617 652 598 572 409 332 317 182 0 0 73 32 0 0 0 0 0 0 0 0 0 0 0 0

ECMWFNIL_con_mucape_024.txt.gz
CAPE
2344 2047 1952 2081 2156 1661 0 0 0 0 0 0 0 0 0 2 22 36 56 16 56 56 19 24 132 128 137 67 69 43 54 3 0 0 0 10 28 20 47 12 0 1
2179 2049 2099 2237 2182 1549 0 0 0 0 0 0 0 0 0 4 6 22 14 6 102 103 27 28 72 125 108 93 30 31 16 23 5 42 0 0 20 3 12 9 4 1
2192 2162 2219 2286 2225 1309 0 0 0 0 0 0 0 0 0 3 5 6 0 4 24 102 24 12 15 76 58 47 20 24 45 2 0 0 52 12 1 2 14 5 5 7
2252 2241 2272 2365 2157 568 0 0 0 0 0 0 0 0 0 2 1 6 0 296 8 31 29 2 4 2 13 20 12 7 0 0 0 0 0 4 11 6 2 0 20 16
2268 2282 2379 2475 1836 254 0 0 0 0 0 0 0 0 0 3 1 0 0 12 17 6 2 6 0 0 0 0 1 10 5 4 0 0 0 0 0 0 4 3 10 16
2253 2348 2524 2471 1451 104 0 0 0 0 0 0 0 0 0 0 0 1 0 0 1 3 0 0 0 0 0 0 0 1 0 0 0 0 0 0 0 0 2 16 13 15
2293 2450 2580 2266 1210 38 0 0 0 0 0 0 0 0 0 0 0 0 0 0 0 17 10 5 0 0 0 0 0 0 0 0 0 0 0 0 0 6 3 42 208 194
2285 2485 2589 2186 1130 0 0 0 0 0 0 0 0 0 0 0 0 0 0 0 0 0 3 0 0 0 0 0 0 0 0 0 0 0 0 0 0 7 55 202 268 269
2274 2475 2515 2146 1077 412 0 0 0 0 0 0 0 0 0 0 0 0 0 0 0 1 0 0 0 0 0 0 0 0 0 0 1 6 12 40 50 81 91 79 235 282
2208 2411 2504 1958 794 0 0 0 0 0 0 0 0 0 0 0 0 0 0 0 0 4 0 0 0 0 0 0 0 0 0 0 0 0 12 41 81 134 153 128 162 235
2110 2324 2266 1556 370 0 0 0 0 0 0 0 0 0 0 0 0 0 0 0 0 0 0 0 0 0 0 0 0 0 0 0 0 0 3 31 95 169 237 287 214 228
2006 2196 2102 1853 0 0 0 0 0 0 0 0 0 0 0 0 0 0 0 0 0 0 0 0 0 0 0 0 0 0 0 0 0 0 6 20 46 74 110 199 258 251
1996 2242 1921 844 0 0 0 0 0 0 0 0 0 0 0 0 0 0 0 0 0 0 0 0 0 0 0 0 0 0 0 0 2 5 19 39 52 66 151 196 193 183
2007 1722 721 127 0 0 0 0 0 0 0 0 0 0 0 0 0 0 0 0 0 0 0 0 0 0 0 0 0 0 0 0 5 34 44 56 80 95 141 156 176 217
1499 1149 196 48 234 231 165 0 0 0 0 0 0 0 0 0 0 0 0 0 0 0 0 0 0 0 0 0 0 0 0 0 1 8 39 62 58 40 27 140 162 144
1677 1474 844 237 114 134 96 39 16 6 0 0 0 0 0 0 0 0 0 0 0 0 0 0 0 0 6 0 0 4 0 0 0 0 11 32 104 106 42 9 10 22
1794 1633 1189 811 378 0 0 10 6 5 0 0 0 0 0 0 0 0 0 0 0 0 0 0 0 0 0 0 0 0 54 26 8 24 48 65 69 72 118 142 107 44
1872 1859 1626 844 423 60 0 22 0 0 0 3 0 0 0 0 0 0 0 0 0 0 0 0 0 0 0 126 183 199 204 219 235 190 110 66 54 79 108 130 118 74
1823 1741 1655 830 759 240 242 136 2 3 2 1 1 1 0 0 0 0 0 0 0 0 0 0 0 0 0 96 193 262 279 286 283 235 116 147 89 112 152 154 106 60
1756 1708 1524 1063 484 245 0 4 0 11 2 94 88 0 0 0 0 0 0 0 0 0 0 2 2 6 50 93 185 261 192 150 35 64 107 147 168 198 193 164 160 162
1818 1696 1568 862 488 173 6 0 0 0 0 0 0 0 0 0 0 0 0 0 1 333 334 217 21 6 74 134 274 339 447 371 135 163 191 194 191 172 161 168 230 212
1676 1644 1492 654 447 310 150 12 0 0 0 0 0 0 0 0 0 164 86 9 68 419 339 92 95 3 86 238 324 495 583 395 44 0 0 32 29 24 18 0 30 0
1598 1641 1422 863 590 396 33 8 0 0 0 0 0 0 0 0 0 0 94 302 400 392 263 96 122 170 223 379 515 638 558 279 0 0 0 0 0 0 0 0 0 0
1691 1515 1328 960 688 437 68 3 0 0 0 1 2 0 0 2 8 310 410 480 488 462 419 134 162 263 445 648 654 519 308 204 123 72 76 83 14 0 0 0 1 31
1697 1364 1015 717 478 84 50 24 0 0 0 0 4 9 30 36 76 244 400 526 591 591 456 169 261 539 605 535 367 280 200 127 0 48 106 0 0 0 0 0 0 0
1415 1244 887 599 427 76 67 15 0 0 0 1 18 34 67 50 86 368 471 570 614 517 377 355 536 543 495 391 273 186 144 44 166 146 0 0 0 0 1 0 0 0

ECMWFNIL_con_mucape_030.txt.gz
CAPE
4399 4369 4343 4201 4032 3611 3352 3369 3064 3024 2917 2385 1990 1746 1295 1142 948 862 754 675 678 714 712 784 829 763 671 581 622 629 537 755 764 618 592 515 449 408 384 359 341 353
4558 4419 4290 4204 4126 3890 3700 3500 3303 3186 3086 2666 2139 1862 1417 1299 1175 918 831 677 756 801 887 843 939 860 768 549 595 662 618 577 786 608 580 548 429 411 359 347 280 245
4742 4601 4534 4255 4105 4030 3812 3626 3581 3385 3084 2784 2380 2010 1680 1479 1297 1037 805 734 826 858 902 911 896 943 871 753 694 527 404 537 712 594 531 486 390 371 324 128 148 149
4826 4663 4506 4250 3968 4147 3988 3790 3661 3471 3070 2722 2387 1980 1650 1280 920 935 726 741 894 842 793 826 732 758 856 802 655 529 505 693 579 573 502 484 465 291 184 162 113 100
4810 4716 4528 4294 4084 4072 3967 3658 3373 3324 3010 2575 2353 1926 1436 1068 820 703 680 845 796 773 759 838 828 740 786 697 622 589 630 620 606 551 485 417 374 256 200 136 158 104
4820 4774 4706 4446 4242 4031 3760 3442 3386 3193 2914 2436 2180 1616 1319 1092 688 534 646 746 757 562 494 582 739 670 707 705 644 599 568 590 392 504 477 424 309 130 121 126 133 119
4736 4843 4720 4296 4055 3484 3307 3440 3393 3036 2726 2287 1881 1394 966 749 645 574 789 889 755 603 411 475 572 595 702 685 744 866 809 536 509 524 398 314 292 253 159 135 241 342
4664 4766 4568 4012 3563 3393 3218 3258 3224 2904 2640 2142 1882 1413 836 724 532 715 880 886 644 582 600 502 629 765 672 641 671 689 521 455 528 501 440 340 332 312 298 280 383 540
4695 4508 4112 3661 3290 3020 2856 3142 3090 2866 2332 1996 1726 1302 1032 592 696 824 1170 897 617 778 862 421 611 679 551 421 431 507 427 370 392 366 421 337 306 350 382 390 459 552
4589 4184 3691 3265 2918 2869 2768 3037 2825 2740 2309 1964 1427 992 923 741 911 1045 1186 1124 668 411 325 288 566 652 591 520 539 512 460 517 526 489 487 424 437 452 398 369 362 450
4318 3865 3410 3096 2680 2518 2959 2936 2704 2625 2353 1946 1428 928 900 1012 1151 1139 1155 818 344 409 312 521 691 671 737 506 549 601 546 579 586 559 630 729 854 692 548 541 408 300
4154 3705 3240 3076 2922 2830 2892 2848 2671 2542 2141 1730 1248 872 894 898 1087 670 633 551 370 414 348 518 577 690 756 734 453 468 540 568 542 795 840 860 823 666 663 604 632 642
4136 3498 3170 3032 2740 2866 2961 2765 2508 2074 1818 1526 858 667 687 328 320 465 519 397 391 523 670 704 761 764 798 796 730 676 778 972 1032 1013 1023 1052 809 577 469 479 446 572
3922 3433 3210 2941 2746 2981 2915 2726 2442 2028 1902 1272 456 549 263 231 274 174 434 595 667 558 539 548 789 854 1411 1247 908 940 1076 1049 1078 1070 989 844 684 665 533 384 251 272
4016 3478 3239 2876 2607 2794 2911 2642 2204 2059 1632 1180 848 538 423 283 231 520 678 522 614 548 394 682 876 811 800 1003 936 964 817 739 866 696 958 662 612 631 633 582 500 372
3466 3464 3016 2662 2518 2584 2658 2466 2153 1914 1745 1658 1396 823 272 259 148 462 461 467 588 595 616 942 776 793 758 403 399 558 658 742 424 868 860 644 612 734 759 643 594 619
3739 3594 3058 2614 2539 2478 2661 2436 2052 1930 1686 1599 960 815 747 580 536 437 183 200 70 302 849 881 807 687 277 63 9 2 308 524 733 876 894 828 772 872 923 771 625 628
3453 3300 2878 2521 2491 2442 2435 2388 2058 1866 1738 1667 1106 923 984 816 486 488 254 136 74 315 796 820 796 506 198 42 0 0 23 539 672 696 796 848 1007 986 1033 1191 1268 1263
3082 2948 2798 2722 2596 2182 2421 2010 2138 2117 1922 1795 1371 1079 1040 950 700 450 503 556 756 908 830 708 769 417 189 19 0 0 0 142 503 530 658 877 1284 1641 1698 1746 1844 1873
3092 2678 2696 2521 2346 2339 2342 1889 1990 2082 2049 1859 1598 1410 1337 1200 588 640 641 688 770 845 684 578 447 148 88 69 16 0 0 59 551 608 759 942 1287 1494 1708 1848 1969 2000
2757 2706 2688 2410 2218 2208 2226 1955 1774 1930 1912 1822 1717 1654 1361 961 732 870 517 744 670 687 787 610 296 37 92 88 12 0 0 8 507 735 858 1053 1250 1509 1871 2033 1962 1604
3051 2737 2641 2492 2225 2153 2012 1867 1791 1810 1841 1816 1737 1664 1491 1195 764 699 443 502 521 494 298 572 72 0 70 104 51 0 0 202 541 877 1031 1147 1436 1680 1964 2064 1478 958
2889 2650 2560 2445 2292 2112 1924 1811 1893 1783 1779 1767 1763 1720 1614 1590 1288 828 576 482 315 240 584 377 50 192 0 0 0 0 0 360 698 880 1069 1251 1456 1772 1908 1474 1331 1213
2784 2502 2457 2337 2144 1952 1897 1778 1685 1750 1772 1791 1723 1750 1662 1340 1052 530 492 453 228 83 440 528 217 102 136 132 103 0 14 680 1034 1202 1306 1368 1767 1784 1396 915 772 776
2702 2581 2423 2255 2148 1949 1678 1689 1753 1778 1768 1720 1702 1647 1668 1188 788 593 549 395 123 158 390 472 180 336 654 784 683 519 429 755 1197 1577 1526 1770 1696 1389 1075 875 1080 1097
2441 2392 2364 2205 2176 1982 1948 1866 1717 1716 1631 1642 1664 1574 1428 984 694 711 533 395 293 412 252 567 518 579 1402 849 832 734 558 786 1425 1515 1592 1530 1420 992 836 1386 1525 1550

ECMWFNIL_con_mucape_033.txt.gz
CAPE
3986 3843 3922 4093 3888 3423 3155 3006 2683 2560 2488 2050 1763 1763 1648 1756 1318 1019 926 1151 864 632 736 918 846 652 465 285 331 276 356 413 494 530 606 449 290 255 261 254 190 244
4204 3990 3936 4011 4024 3844 3496 3232 3140 2739 2644 2547 2166 1962 1806 1525 1359 1034 980 1046 858 616 871 852 848 780 578 337 389 428 506 340 543 332 394 486 518 314 305 231 234 323
4452 4212 4230 4124 3904 3838 3486 3470 3294 3045 2780 2678 2472 2236 1763 1446 1532 1195 964 927 852 686 847 844 898 931 694 540 429 446 444 270 255 213 436 430 341 350 469 154 214 323
4651 4310 4250 4120 3891 3819 3831 3534 3453 3292 3004 2832 2684 2223 1646 1356 1366 1252 1084 948 914 864 934 841 739 629 794 741 559 408 361 299 347 394 477 510 501 472 358 270 126 84
4936 4620 4408 4323 4089 3897 3992 3844 3354 3419 3151 2755 2762 2264 1765 1586 1413 1434 1165 962 941 1083 862 917 790 656 692 693 586 555 422 416 428 536 592 572 672 478 290 208 265 214
5145 4998 4750 4554 4374 4151 3906 3949 3806 3413 3438 2770 2870 2172 1820 1672 1513 1376 1156 908 717 859 717 782 771 727 737 897 810 842 578 345 365 524 525 508 457 238 239 248 252 238
5134 5144 4899 4724 4497 4303 4223 4205 4121 3781 3532 2895 2898 2412 2058 1833 1517 1022 924 916 792 811 772 668 1008 1051 928 1037 1059 937 997 883 588 496 511 540 476 327 254 262 348 304
5090 5191 5006 4890 4652 4554 4395 4302 4151 3812 3546 3311 2899 2631 2325 1995 1552 815 866 883 887 816 700 534 1163 1160 745 785 814 764 1010 697 488 562 648 710 497 359 296 377 340 342
5054 5262 5328 4906 4820 4524 4267 4084 3882 3636 3500 3324 2905 2517 2520 2143 1430 801 954 948 969 1075 673 909 900 930 817 822 861 864 919 602 330 434 626 517 428 480 420 389 439 474
5126 5106 5072 4748 4578 4652 4267 3934 3434 3406 3340 3261 2902 2285 2443 1922 1369 846 842 1220 966 1179 734 349 718 913 845 851 774 688 804 660 450 517 493 406 374 386 372 450 514 498
5073 4907 5032 4812 4546 4326 4177 3600 3141 3220 3284 3102 2926 2720 2404 1718 1332 488 949 1327 1074 759 847 848 904 703 772 506 556 619 712 613 553 574 496 483 492 526 542 652 606 528
5099 4849 4929 4975 4804 4233 3878 3458 3064 3230 3248 3257 3323 2826 2288 1640 1062 451 1243 1449 988 1010 934 749 610 706 825 686 469 717 907 672 565 438 370 481 496 508 523 549 763 786
5182 4976 4957 4931 4821 4296 3802 3280 3133 3111 3120 2924 2942 2736 2328 1590 1034 1069 1613 1502 989 692 462 489 371 700 890 914 731 739 864 709 458 472 540 556 586 565 476 366 430 613
5316 5063 5074 5041 4742 4460 3839 3456 3408 3384 3502 2927 2836 2189 2117 1473 1150 1203 1590 1318 374 441 376 322 615 934 1064 978 856 847 736 469 692 796 691 695 649 561 542 220 206 374
5528 5438 5206 4844 4538 4380 4044 3747 3620 3626 3630 3502 3043 2530 2092 1628 1319 1360 1114 471 366 326 408 548 702 720 638 830 740 748 476 773 954 870 760 604 642 621 552 380 589 526
5706 5488 5154 4862 4582 4400 4271 4068 3897 3794 3587 3578 3198 2647 2188 1719 1336 722 712 580 582 490 434 444 673 499 720 535 866 1009 995 759 724 724 718 613 806 747 449 256 590 616
5532 5460 5127 4745 4484 4344 4316 4125 3864 3680 3672 3664 3304 3022 2180 1882 961 950 878 878 858 704 497 599 374 778 129 644 906 728 854 849 634 723 789 904 809 840 513 616 586 694
5478 5264 4958 4654 4286 4081 3827 3722 3658 3543 3613 3632 3235 2926 2164 1466 1271 1248 1212 1072 959 860 690 582 389 250 85 445 525 386 547 778 513 478 470 574 792 688 755 886 926 809
5289 5090 4827 4501 4150 3896 3755 3076 3314 3394 3388 3258 2866 2546 1991 1657 1652 1598 1576 1409 1274 1196 1046 693 598 770 292 46 11 0 155 254 202 240 254 392 509 827 877 1239 1381 1324
4976 4525 4632 4239 4253 3946 3554 3559 3351 3422 3318 3112 2888 2782 2241 2124 1933 1958 1944 1735 1552 1483 1217 989 883 826 337 310 78 0 34 125 144 234 330 425 568 789 908 1296 1880 2141
4731 4467 4230 4329 4169 3747 3512 3368 3265 3341 3399 3209 2960 2680 2372 2147 2009 2012 1969 1773 1597 1495 1189 908 820 476 368 282 308 111 8 13 266 395 510 614 661 762 1077 1228 1760 1925
4734 4251 3599 4097 3756 3548 3410 3332 3299 3310 3157 3144 2976 2548 2188 1849 1737 1886 1904 1790 1654 1579 1438 1117 723 640 495 452 329 18 0 129 358 588 563 717 814 861 947 1554 1725 2221
4666 4104 3692 3694 3628 3494 3284 3114 3074 3069 2983 2997 2734 2450 2034 1796 1602 1786 1865 1752 1692 1570 1352 962 589 600 509 444 248 0 0 341 296 301 476 739 962 1016 1140 1378 1948 2405
4616 4013 3500 3473 3566 3398 3127 2792 2777 2840 2829 2682 2510 2065 1788 1658 1697 1804 1829 1817 1667 1574 1354 858 734 614 526 422 0 0 7 213 438 486 580 857 1168 1235 1252 1784 2400 1569
4068 3752 3479 3155 3137 3134 2883 2796 2810 2774 2614 2394 2211 1958 1706 1751 1802 1779 1887 1747 1714 1620 1276 948 709 1317 406 147 0 0 10 430 452 499 686 1026 1149 1352 1630 2253 2125 1621
3832 3616 3314 2953 2850 3032 2940 2880 2782 2545 2474 1998 1780 1620 1655 1758 1810 1867 1916 1649 1732 1711 1309 775 529 460 0 0 0 0 0 561 625 877 938 1108 1338 1658 1963 2057 1305 1354

ECMWFNIL_con_mucape_039.txt.gz
CAPE
3132 3129 3076 2781 2728 2588 2632 2406 2150 2216 1951 1864 1988 1852 1875 1547 1446 1217 1092 950 646 229 348 90 147 130 699 284 381 323 268 187 285 251 220 296 146 216 310 165 146 21
3139 3116 3121 2900 2798 2574 2616 2460 2218 2348 2067 1880 1666 1791 1783 1664 1143 1144 1031 934 624 306 335 310 291 128 493 180 363 284 239 183 332 429 209 498 111 112 162 249 73 152
3126 3150 3117 3117 2956 2813 2714 2674 2392 2329 2156 1992 1646 1468 1322 1341 1122 1010 890 758 569 446 250 431 403 327 368 66 146 358 221 100 416 247 337 226 220 208 225 212 163 140
3146 3145 3120 3173 3158 3021 2895 2809 2534 2336 2193 2004 1750 1474 1164 1401 1175 834 752 769 696 490 290 304 497 353 510 118 53 147 265 158 219 218 324 222 288 212 268 152 236 41
3152 3150 3130 3151 3198 3168 3088 2819 2626 2370 2172 1946 1710 1423 1253 1139 1234 914 847 781 704 591 488 313 291 383 435 208 54 97 188 226 252 347 310 176 234 365 210 276 196 303
3193 3105 3173 3148 3178 3260 3150 2968 2680 2384 2130 1913 1680 1391 1330 995 1237 925 855 755 667 554 544 543 290 302 317 402 86 123 174 175 260 245 458 153 258 236 132 105 198 261
3235 3101 3164 3127 3141 3249 3156 3060 2827 2477 2192 1976 1729 1413 1318 996 1103 925 931 732 651 588 526 600 480 280 258 574 154 163 162 158 189 333 270 319 382 276 191 93 124 161
3257 3147 3139 3115 3093 3176 3219 3051 2916 2610 2280 2038 1811 1538 1241 1251 1004 956 912 804 672 599 513 503 619 440 286 220 489 242 207 248 189 443 270 290 535 328 162 178 208 97
3283 3227 3176 3120 3045 3128 3239 3121 2924 2722 2379 2153 2033 1874 1436 1270 1138 1019 860 863 718 606 476 484 562 546 378 231 542 459 260 310 253 324 322 244 266 314 295 255 248 221
3321 3295 3251 3160 3036 3052 3212 3210 3036 2825 2568 2280 2168 2031 1701 1484 1306 1170 1038 844 766 633 436 450 525 522 486 284 311 570 363 268 199 246 307 202 207 192 226 270 188 220
3382 3362 3319 3229 3102 3054 3140 3219 3115 2962 2839 2522 2405 2212 2023 1749 1569 1375 1189 986 753 665 520 442 473 521 541 398 332 454 274 232 184 154 288 312 244 229 433 198 173 186
3444 3410 3373 3293 3198 3133 3139 3153 3148 3048 2997 2804 2633 2470 2273 2034 1836 1648 1442 1201 934 670 572 557 390 433 562 400 361 559 468 217 239 215 229 542 492 265 303 182 196 153
3477 3431 3402 3332 3228 3158 3138 3106 3098 3124 3091 3001 2851 2690 2515 2300 2112 1893 1666 1468 1209 903 640 620 658 476 424 323 571 690 555 417 282 289 264 291 615 551 273 232 209 218
3529 3462 3427 3366 3263 3135 3073 3080 2998 3050 3174 3130 3008 2854 2687 2530 2331 2123 1924 1695 1442 1179 928 700 648 653 402 358 388 600 595 546 452 281 260 244 315 502 367 286 287 316
3559 3485 3489 3465 3339 3186 3077 3064 2995 2940 3126 3214 3128 2992 2814 2699 2550 2372 2149 1951 1726 1470 1248 1022 811 669 523 438 528 680 833 857 583 366 274 267 239 365 460 247 277 312
3529 3497 3519 3574 3500 3350 3236 3200 3130 3032 3187 3312 3222 3100 2927 2781 2683 2564 2371 2160 1952 1778 1608 1429 1277 1067 845 614 726 932 1037 1066 948 642 388 305 269 238 366 251 274 318
3507 3493 3500 3594 3629 3521 3400 3355 3341 3194 3213 3417 3402 3248 3069 2883 2755 2657 2537 2399 2244 2105 1926 1761 1588 1364 1194 1047 1101 1218 1221 1204 1011 699 556 457 365 274 273 328 369 333
3630 3581 3478 3521 3671 3647 3511 3426 3415 3351 3257 3380 3496 3460 3321 3108 2932 2830 2716 2601 2486 2352 2217 2059 1856 1697 1585 1485 1423 1434 1370 1226 1066 868 748 676 492 372 286 192 482 486
3779 3770 3611 3506 3593 3708 3654 3515 3470 3478 3362 3349 3433 3478 3420 3266 3046 2878 2823 2718 2617 2509 2366 2237 2107 1990 1856 1751 1657 1609 1436 1188 1095 999 850 608 360 452 291 542 541 509
3946 3910 3849 3658 3614 3751 3847 3739 3610 3628 3566 3407 3390 3404 3383 3299 3171 3060 2909 2763 2688 2598 2498 2409 2306 2187 2081 1958 1808 1757 1590 1100 974 878 779 533 525 400 479 494 484 408
4193 4100 4055 3954 3882 3986 4118 4059 3850 3768 3715 3600 3477 3370 3306 3247 3142 3050 2954 2881 2823 2742 2652 2552 2451 2361 2295 2159 1990 1920 1570 1044 723 848 683 557 466 356 487 465 51 191
4407 4371 4337 4324 4362 4389 4410 4299 4112 3904 3797 3711 3604 3568 3331 3193 3127 3046 2990 2927 2876 2832 2771 2689 2586 2522 2450 2302 2160 2026 1742 1032 749 832 766 726 491 371 485 259 73 205
4632 4646 4668 4717 4682 4624 4552 4456 4296 4105 3896 3738 3588 3700 3695 3492 3261 3154 3075 3035 3011 2937 2879 2788 2737 2671 2536 2386 2259 2084 1678 1082 759 871 760 672 494 423 345 178 153 268
4892 4892 4893 4882 4763 4675 4578 4498 4383 4229 4068 3867 3666 3533 3533 3578 3602 3482 3319 3220 3166 3106 2990 2949 2868 2749 2560 2448 2385 2158 1579 1200 872 936 824 731 330 301 315 303 297 350
5098 5028 4961 4886 4763 4665 4554 4460 4338 4214 4069 3921 3760 3581 3410 3388 3404 3422 3403 3363 3320 3271 3156 2989 2804 2621 2496 2421 2307 2048 1907 1138 1032 1000 857 524 360 351 301 309 383 703
5194 5049 4946 4847 4743 4628 4524 4402 4296 4190 4079 3956 3814 3660 3453 3307 3266 3255 3280 3295 3267 3212 3042 2792 2643 2512 2399 2275 2126 1994 1721 1228 1012 985 629 541 570 378 386 342 441 494

ECMWFNIL_con_mucape_042.txt.gz
CAPE
1980 1944 2023 2115 2070 1940 1712 1866 1900 1805 1881 1982 1984 1975 1960 1910 1862 1822 1735 1406 1189 1026 1039 1072 1007 770 172 9 18 8 23 8 13 0 6 17 0 0 42 24 16 0
2092 2067 2099 2144 2150 2096 1941 1860 1837 1785 1759 1725 1772 1774 1838 1899 1877 1788 1790 1517 1142 1055 964 876 721 437 28 12 20 20 17 11 10 82 4 0 0 1 24 27 39 0
2206 2193 2221 2232 2207 2217 2167 2052 1900 1822 1785 1730 1706 1669 1699 1797 1757 1531 1478 1294 1107 1080 943 787 583 271 73 18 29 44 32 8 6 70 41 15 1 1 7 26 2 0
2269 2278 2314 2336 2266 2250 2284 2227 2083 1941 1855 1783 1692 1643 1579 1600 1559 1377 1268 1190 1109 1095 912 783 557 8 72 43 42 21 17 9 15 51 67 57 76 9 0 0 47 2
2300 2366 2399 2422 2371 2289 2330 2364 2282 2129 2002 1886 1610 1557 1450 1419 1346 1309 1275 1205 1136 1118 960 686 8 2 38 34 49 19 13 10 31 58 56 39 46 75 20 29 17 0
2304 2402 2461 2491 2478 2391 2349 2404 2412 2273 2144 1933 1664 1484 1423 1382 1390 1390 1310 1253 1170 1036 864 580 41 9 37 3 19 41 60 23 28 62 55 55 23 79 71 33 10 0
2413 2412 2504 2533 2567 2490 2386 2378 2400 2342 2218 2031 1772 1601 1467 1538 1383 1382 1318 1234 1156 1003 861 624 65 37 67 0 2 24 52 49 14 81 82 46 38 38 62 36 21 2
2581 2519 2527 2563 2599 2600 2500 2396 2374 2313 2218 2064 1869 1695 1604 1573 1514 1413 1392 1287 1128 933 838 672 75 66 88 32 0 4 11 66 24 68 96 60 16 31 26 21 6 2
2740 2673 2616 2622 2629 2665 2640 2518 2430 2314 2142 2000 1866 1738 1666 1598 1581 1506 1322 1179 980 837 728 638 532 128 96 94 22 0 0 21 41 40 52 77 44 31 23 4 2 5
2839 2817 2745 2697 2677 2688 2716 2690 2556 2422 2242 2033 1928 1827 1750 1710 1663 1544 1280 1021 856 755 696 640 604 492 152 116 88 10 0 5 9 14 28 29 58 55 22 5 6 2
2867 2887 2837 2771 2740 2705 2727 2766 2721 2585 2412 2226 2073 1976 1906 1838 1750 1611 1309 988 857 775 729 681 617 507 202 108 131 92 22 10 84 79 106 213 141 22 184 23 14 8
2898 2912 2895 2834 2777 2730 2716 2761 2778 2725 2575 2420 2272 2144 2062 1972 1868 1703 1474 1212 966 836 773 706 615 503 258 114 117 178 195 195 218 231 257 307 266 263 45 55 49 28
2951 2937 2930 2884 2811 2762 2728 2738 2780 2746 2665 2579 2450 2304 2158 2078 1970 1812 1574 1370 1202 1020 887 756 646 561 450 203 203 208 242 280 302 322 323 294 266 335 220 68 49 36
3014 2966 2932 2903 2860 2805 2716 2687 2746 2754 2705 2649 2566 2449 2299 2155 2031 1892 1714 1502 1324 1208 1103 1000 902 796 665 492 242 260 280 356 390 419 437 74 311 310 241 117 45 38
3095 3026 2967 2915 2870 2817 2718 2654 2701 2762 2757 2690 2594 2505 2363 2242 2116 1965 1784 1624 1495 1368 1286 1207 1148 1075 946 821 612 312 342 447 532 572 635 605 179 167 306 146 85 184
3182 3121 3044 2969 2907 2837 2758 2670 2661 2735 2778 2742 2679 2583 2458 2324 2211 2113 1947 1780 1652 1555 1479 1421 1379 1306 1214 1105 965 770 480 614 738 836 899 818 546 33 298 326 290 238
3243 3196 3134 3058 2971 2896 2824 2738 2681 2689 2731 2750 2742 2690 2598 2477 2364 2250 2146 2016 1871 1762 1681 1618 1574 1538 1458 1364 1265 1128 988 973 1118 1226 1218 1104 796 474 256 258 290 550
3332 3261 3198 3148 3068 2998 2913 2840 2747 2701 2697 2738 2756 2766 2737 2666 2563 2464 2364 2251 2160 2073 1981 1892 1805 1720 1661 1601 1531 1454 1361 1399 1431 1451 1394 1256 1018 539 293 204 273 337
3457 3366 3277 3190 3127 3069 3002 2939 2839 2746 2730 2720 2781 2822 2833 2802 2748 2685 2605 2523 2423 2344 2271 2208 2135 2057 1968 1914 1832 1755 1780 1732 1723 1619 1517 1170 984 648 364 364 452 351
3580 3483 3384 3283 3190 3120 3048 2988 2892 2817 2762 2751 2788 2872 2916 2918 2874 2836 2788 2743 2671 2583 2522 2445 2368 2306 2276 2220 2132 2084 2082 2039 2007 1888 1641 1371 1097 748 507 515 430 302
3646 3566 3488 3398 3294 3209 3124 3037 2980 2882 2808 2805 2807 2875 2969 3006 3005 2964 2928 2896 2838 2780 2716 2658 2592 2549 2488 2422 2377 2386 2415 2364 1898 1842 1757 1574 1274 845 623 529 488 270
3662 3597 3552 3467 3402 3315 3209 3141 3068 2985 2927 2881 2858 2912 3000 3042 3064 3053 3050 3033 2990 2940 2872 2843 2809 2783 2742 2707 2685 2674 2692 2535 2310 2009 1860 1605 1340 1111 709 575 515 426
3643 3601 3579 3540 3482 3384 3275 3203 3148 3104 3050 3002 2976 2984 3037 3100 3156 3168 3164 3137 3100 3066 3050 3051 3069 3055 3015 2972 2916 2859 2774 2627 2474 1918 1950 1804 1572 1340 887 597 492 451
3606 3610 3602 3573 3505 3406 3299 3226 3205 3187 3168 3142 3122 3112 3122 3170 3234 3302 3320 3316 3316 3287 3267 3295 3298 3261 3216 3143 3049 3003 2944 2853 2660 2394 2244 1922 1653 1488 1148 836 658 617
3604 3651 3615 3555 3494 3413 3296 3221 3258 3282 3247 3245 3241 3229 3248 3268 3326 3380 3438 3501 3504 3506 3488 3493 3475 3416 3326 3230 3144 3079 2990 2799 2595 2186 1900 1816 1588 1404 1112 926 839 652
3546 3671 3646 3578 3516 3441 3328 3266 3331 3352 3371 3359 3342 3325 3354 3385 3414 3457 3508 3552 3578 3604 3603 3579 3505 3446 3323 3272 3192 3134 2964 2749 2586 2372 2147 1860 1602 1372 1104 1038 880 693

ECMWFNIL_con_mucape_045.txt.gz
CAPE
1619 1577 1554 1522 1500 1452 1498 1568 1659 1823 2035 2182 2206 2300 2358 2380 2449 2563 2649 2657 2580 2552 2466 2125 1350 1038 790 652 550 484 28 0 0 0 0 0 0 0 0 0 0 0
1634 1617 1594 1572 1526 1466 1462 1588 1716 1834 1872 2086 2150 2178 2222 2236 2267 2436 2563 2545 2492 2433 2284 1750 1303 1102 888 851 756 541 310 0 0 0 0 0 0 0 0 0 0 0
1612 1616 1609 1614 1606 1566 1492 1544 1709 1836 1788 1870 2048 2043 2059 2109 2200 2348 2364 2333 2303 2147 1832 1456 1268 1150 1085 1070 926 694 558 0 0 0 0 0 0 0 0 0 0 0
1616 1593 1595 1610 1642 1666 1624 1553 1622 1724 1718 1671 1816 1944 1951 2023 2184 2250 2184 2142 1990 1686 1445 1312 1250 1241 1247 1203 1020 831 672 136 0 0 0 0 0 0 0 0 4 0
1696 1646 1609 1609 1632 1691 1751 1707 1645 1653 1661 1584 1602 1756 1874 1958 2066 2111 2017 1930 1764 1502 1322 1218 1164 1187 1188 1132 1038 944 747 0 0 0 0 0 0 0 0 0 0 0
1784 1743 1702 1676 1662 1697 1772 1832 1818 1750 1686 1680 1620 1669 1766 1869 1931 1948 1899 1847 1764 1586 1424 1320 1255 1167 1028 1014 1000 956 730 0 0 0 0 0 0 0 0 0 0 0
1880 1861 1836 1786 1762 1758 1778 1830 1884 1879 1816 1724 1702 1720 1754 1805 1843 1832 1807 1790 1763 1685 1562 1446 1382 1288 1055 840 847 826 472 0 0 0 0 0 0 0 2 0 0 0
1905 1940 1930 1915 1899 1892 1882 1873 1911 1938 1922 1863 1779 1718 1722 1763 1787 1783 1716 1725 1719 1658 1565 1500 1408 1317 1150 987 938 757 579 0 0 0 0 0 0 0 0 3 0 0
1915 1965 2010 2020 2012 2018 2011 1973 1968 1997 1993 1964 1899 1791 1732 1728 1753 1750 1730 1677 1650 1586 1507 1437 1375 1292 1192 1087 941 793 613 0 0 0 0 0 0 0 0 0 0 0
1983 1998 2050 2088 2106 2114 2122 2094 2055 2052 2072 2048 2015 1926 1799 1753 1731 1737 1714 1644 1581 1494 1410 1376 1327 1267 1212 1132 1033 889 607 0 0 0 0 0 0 0 0 0 0 0
2101 2075 2093 2136 2174 2188 2204 2200 2161 2130 2125 2135 2091 2044 1977 1916 1900 1890 1793 1626 1504 1434 1386 1373 1336 1260 1196 1168 1105 934 667 213 0 0 0 0 0 0 72 0 135 0
2253 2215 2192 2199 2223 2250 2278 2289 2284 2235 2205 2193 2174 2136 2110 2055 2022 1973 1847 1674 1551 1487 1478 1474 1425 1279 1199 1144 1067 938 777 375 0 0 0 0 0 2 10 54 326 245
2376 2365 2339 2305 2297 2312 2321 2350 2367 2340 2284 2259 2222 2232 2186 2148 2112 2059 1914 1760 1682 1656 1631 1580 1504 1394 1244 1117 1027 880 753 600 0 0 153 167 202 137 0 336 459 394
2464 2486 2473 2451 2426 2395 2385 2392 2410 2424 2394 2351 2298 2275 2228 2198 2160 2100 2023 1918 1794 1747 1716 1662 1597 1500 1352 1186 1014 844 724 610 506 24 0 0 68 221 296 482 585 530
2535 2562 2594 2601 2572 2532 2494 2472 2468 2479 2490 2454 2396 2339 2262 2226 2176 2102 2018 1907 1811 1755 1722 1696 1666 1600 1467 1258 1024 842 746 663 582 386 129 273 322 401 538 686 835 863
2605 2641 2683 2708 2707 2677 2626 2587 2556 2542 2562 2566 2526 2445 2371 2290 2190 2117 1998 1900 1806 1776 1766 1774 1750 1699 1592 1406 1170 1004 877 768 649 618 577 478 526 635 770 891 970 944
2731 2725 2742 2783 2803 2791 2768 2716 2664 2624 2613 2622 2615 2572 2506 2402 2288 2196 2093 2000 1919 1850 1833 1824 1804 1768 1684 1543 1393 1236 1119 1052 978 910 883 788 781 930 1016 1095 1127 1033
2870 2844 2825 2854 2868 2880 2862 2813 2758 2704 2668 2648 2652 2636 2592 2502 2416 2304 2197 2122 2056 2014 1960 1899 1829 1747 1674 1626 1506 1404 1297 1245 1196 1158 1146 1112 1112 1205 1264 1258 1264 1170
3000 2971 2960 2953 2956 2958 2929 2888 2836 2766 2714 2668 2656 2642 2614 2562 2490 2391 2316 2240 2174 2086 2018 1974 1939 1852 1738 1663 1569 1468 1402 1360 1342 1322 1322 1346 1386 1419 1434 1430 1378 1327
3110 3097 3092 3073 3052 3025 2992 2955 2896 2842 2758 2689 2656 2625 2608 2584 2526 2452 2388 2332 2286 2218 2152 2062 1988 1896 1819 1752 1691 1599 1538 1509 1497 1494 1508 1626 1655 1652 1631 1624 1400 1102
3199 3186 3181 3158 3115 3075 3039 2996 2939 2882 2796 2724 2639 2614 2606 2598 2567 2514 2457 2403 2344 2297 2234 2156 2086 2006 1929 1856 1788 1746 1703 1730 1736 1778 1822 1908 1912 1910 1922 1734 1551 1200
3250 3234 3223 3198 3148 3108 3069 3031 2974 2904 2831 2743 2651 2593 2583 2588 2589 2558 2531 2478 2422 2373 2331 2275 2195 2147 2096 2036 1972 1947 1941 1952 1972 1980 2114 2164 2173 2125 1894 1726 1638 1331
3273 3271 3243 3204 3166 3119 3090 3068 3008 2936 2866 2769 2688 2612 2563 2568 2601 2607 2595 2572 2532 2498 2443 2386 2366 2322 2295 2252 2197 2214 2211 2207 2229 2262 2377 2395 2282 2259 2042 1674 1541 1339
3231 3269 3239 3206 3165 3142 3126 3105 3045 2980 2914 2841 2755 2670 2598 2576 2575 2600 2614 2628 2621 2592 2557 2546 2528 2529 2516 2488 2442 2460 2422 2417 2438 2472 2661 2034 2174 2131 1880 1719 1694 1307
3110 3220 3247 3217 3193 3180 3158 3128 3088 3047 2980 2914 2859 2772 2695 2625 2577 2596 2635 2654 2669 2669 2668 2664 2671 2700 2714 2676 2650 2656 2621 2622 2659 2780 2604 2406 2271 1984 1888 1859 1853 1741
3082 3226 3274 3260 3247 3246 3210 3178 3137 3078 3058 2996 2937 2886 2808 2702 2641 2621 2647 2693 2726 2770 2797 2803 2822 2843 2855 2839 2808 2811 2784 2801 2885 2968 2744 2500 2419 2219 1966 2038 1734 1620

ECMWFNIL_con_mucape_051.txt.gz
CAPE
2421 2335 2222 2183 2208 2201 2328 2551 2558 2613 2827 2780 2938 3056 3152 3482 3589 3586 3548 3444 3317 3127 2990 2742 2915 2766 3144 2993 2722 2373 2325 2064 1994 1734 1572 1318 1220 1018 993 928 898 852
2435 2359 2251 2214 2224 2346 2465 2518 2540 2567 2795 2954 2963 3003 3360 3521 3697 3531 3594 3538 3354 3098 3014 2697 2947 2752 3083 2898 2695 2373 2339 2173 2096 1912 1540 1290 1226 1066 895 898 778 782
2485 2432 2345 2237 2151 2174 1916 2203 2424 2609 2635 2747 2873 3078 3225 3230 3363 3477 3539 3535 3360 3130 2919 2833 2638 2583 2716 2936 2757 2424 2344 2250 2120 2010 1754 1271 1071 958 881 583 645 848
2524 2496 2344 2153 2154 2142 2126 2250 2427 2504 2384 2576 2691 2730 2826 2927 3087 3350 3443 3440 3463 3362 3037 2774 2773 2681 2530 2676 2572 2465 2348 2286 2171 2059 1902 1256 1082 852 751 712 558 641
2517 2545 2428 2350 2309 2344 2408 2370 2201 2255 2277 2340 2528 2625 2879 3010 3137 3113 3289 3415 3357 3244 2996 2691 2765 2753 2692 2645 2619 2526 2292 2271 2174 2079 2006 1470 1096 873 783 728 698 576
2557 2586 2596 2550 2506 2555 2466 2346 2280 2196 2273 2195 2492 2487 2723 2917 2955 2921 3124 3177 3158 2965 2812 2810 2700 2763 2460 2659 2547 2354 2312 2178 2076 1991 1937 1596 1064 821 710 749 695 661
2523 2549 2558 2504 2500 2547 2472 2392 2390 2355 2321 2321 2513 2456 2517 2646 2888 2945 3098 3163 2958 2939 2900 2927 2935 2924 2999 2506 2512 2472 2410 2110 2011 1917 1867 1614 1206 1003 708 698 705 734
2402 2413 2443 2419 2410 2413 2428 2424 2448 2495 2452 2499 2486 2605 2564 2596 2819 2905 3045 3110 3034 3138 3236 3146 3112 3125 3167 2824 2569 2614 2190 2156 1958 1910 1834 1562 1257 1233 978 829 825 756
2388 2447 2447 2453 2422 2365 2339 2292 2387 2465 2410 2482 2433 2373 2518 2545 2730 2744 2999 3133 3092 3245 3443 3411 3334 3278 3228 2956 2836 2736 2480 2092 1923 1829 1705 1412 1292 1270 1166 924 854 822
2524 2507 2385 2300 2268 2312 2261 2199 2185 2355 2420 2413 2353 2291 2435 2548 2604 2796 3024 3224 3131 3193 3374 3445 3408 3293 3138 2880 2804 2725 2607 2360 1872 1680 1515 1481 1413 1324 1191 1043 911 864
2414 2399 2373 2344 2210 2203 2221 2179 2153 2206 2298 2320 2298 2299 2356 2518 2569 2734 2956 3097 3007 3064 3215 3346 3305 3239 3087 2809 2631 2571 2521 2374 1988 1715 1597 1523 1494 1457 1201 1147 990 971
2410 2320 2303 2335 2273 2223 2221 2202 2169 2242 2297 2328 2278 2296 2366 2373 2532 2572 2656 2868 2940 2915 3083 3236 3268 3192 3074 2888 2545 2349 2294 2234 2105 1758 1576 1493 1494 1450 1297 1190 1110 1030
2380 2341 2348 2377 2453 2375 2309 2285 2234 2221 2286 2336 2301 2270 2265 2318 2332 2506 2534 2655 2844 2864 2917 3097 3218 3166 3087 2924 2681 2334 2199 2139 1976 1773 1687 1540 1424 1293 1183 1114 1066 990
2383 2387 2508 2536 2541 2605 2514 2396 2343 2318 2401 2432 2474 2366 2278 2295 2296 2378 2520 2508 2668 2779 2836 2939 3092 3091 3058 2948 2717 2371 2121 2043 1918 1753 1710 1625 1539 1415 1280 1216 1139 1043
2609 2576 2660 2683 2665 2748 2639 2538 2508 2522 2541 2574 2594 2499 2370 2343 2368 2335 2469 2521 2500 2649 2714 2705 2783 2856 2883 2828 2693 2421 2153 1952 1863 1711 1665 1656 1594 1511 1385 1306 1222 1107
2844 2786 2830 2904 2827 2825 2870 2732 2633 2634 2574 2648 2716 2660 2579 2569 2544 2506 2448 2518 2516 2594 2652 2650 2605 2631 2291 1969 2020 2410 2240 1941 1778 1636 1589 1602 1602 1535 1427 1363 1319 1207
2617 2720 2813 2787 2772 2788 2835 2798 2793 2792 2793 2843 2818 2759 2664 2749 2740 2638 2525 2488 2510 2540 2619 2578 2565 2485 1876 1704 1630 1613 2051 2014 1798 1652 1483 1541 1580 1559 1470 1409 1384 1318
2618 2721 2793 2888 2954 2946 2994 2992 2870 2840 2872 2890 2867 2847 2880 2791 2846 2788 2809 2610 2521 2532 2537 2565 2582 2074 1760 1625 1558 1537 1505 1900 1813 1690 1421 1470 1553 1555 1481 1426 1415 1400
2842 2891 2919 2900 2990 2936 2981 3009 3039 3042 3015 3021 2944 2950 2964 3005 2979 2870 2854 2801 2653 2674 2572 2532 2582 2046 1736 1643 1573 1536 1516 1534 1801 1722 1569 1468 1553 1572 1488 1435 1468 1474
2945 2882 2878 2953 2986 2980 3041 3031 3003 3049 2952 2876 2891 2967 2949 2922 2894 2942 2990 2989 2837 2791 2708 2630 2600 2126 1815 1753 1669 1583 1533 1495 1702 1694 1668 1536 1596 1600 1528 1501 1536 1539
3091 3052 3124 3136 3136 3123 3064 3037 3038 3047 3015 2904 2900 2984 3085 2987 2818 2936 2901 2834 2852 2709 2818 2714 2575 2112 1931 1882 1833 1754 1646 1556 1532 1537 1564 1614 1644 1617 1585 1569 1592 1588
3115 3143 3186 3242 3193 3123 3098 3058 3052 3189 3216 3111 2983 3001 2983 2897 3010 3056 2966 2859 2844 2619 2656 2563 2724 2144 2008 1964 1936 1865 1774 1699 1631 1612 1638 1674 1668 1664 1646 1640 1633 1623
3216 3204 3286 3269 3283 3255 3220 3132 3192 3259 3316 3238 3120 3100 2956 2966 3047 3066 3102 3080 2983 2698 2654 2805 2763 2564 2117 2076 2019 1956 1880 1808 1736 1698 1699 1739 1739 1720 1714 1699 1674 1629
3318 3370 3337 3263 3252 3194 3227 3207 3232 3298 3315 3244 3200 3116 2973 3087 3064 3026 3013 3057 3028 2797 2875 2912 2889 2863 2320 2139 2123 2065 1997 1925 1855 1828 1778 1798 1785 1759 1757 1759 1707 1660
3153 3184 3176 3176 3316 3338 3260 3310 3349 3405 3322 3293 3204 3173 3140 3217 3054 2999 2890 2974 3179 2962 2734 2638 2752 2826 2376 2294 2240 2208 2140 2058 2014 1938 1862 1826 1709 1792 1801 1758 1700 1703
3178 3342 3336 3284 3374 3372 3341 3422 3515 3458 3453 3437 3382 3230 3272 3296 3103 2845 3125 3168 2944 2919 2861 2790 2915 3239 2572 2420 2347 2343 2282 2159 2107 2062 1976 1867 1745 1739 1806 1777 1726 1743

ECMWFNIL_con_mucape_054.txt.gz
CAPE
3270 3225 3310 3304 3342 3109 3075 3297 3298 3365 3312 3054 3216 3469 3470 3752 3738 3498 3910 4162 4439 4177 3973 3727 3497 3197 3216 3384 3495 3494 3308 3241 2926 2773 2653 2232 2122 1687 1398 1280 1161 691
3284 3308 3298 3315 3398 3345 3302 3304 3498 3430 3599 3481 3279 3273 3679 3748 4116 3929 4070 4352 4564 4394 4113 3865 3650 3400 3294 3114 3408 3414 3463 3195 3136 2808 2702 2499 2296 1991 1498 1522 1170 914
3553 3523 3484 3340 3218 3361 3134 3271 3464 3578 3475 3591 3486 3418 3583 3925 4117 4379 4343 4414 4418 4299 4239 4082 3766 3592 3279 3184 3422 3464 3318 3347 3020 2866 2751 2684 2409 2137 1826 1256 1120 931
3748 3584 3429 3336 3274 3265 3318 3228 3454 3579 3361 3342 3521 3437 3382 3556 3976 4374 4502 4363 4386 4283 4247 4105 3715 3582 3354 3261 3286 3140 3319 3311 3004 3067 2825 2896 2544 2227 1850 1367 1033 918
3879 3810 3595 3509 3357 3288 3453 3281 3166 3388 3401 3276 3271 3476 3565 3590 3918 4094 4330 4452 4283 4331 4274 4168 3953 3594 3602 3460 3284 3087 2886 3118 3154 3230 3167 2903 2684 2234 2002 1477 1176 909
3949 3932 3910 3748 3561 3469 3382 3394 3467 3205 3373 3151 3277 3245 3465 3713 3769 3676 3879 4079 4218 3946 3787 4054 4004 3672 3568 3579 3277 3045 2766 2652 2802 3342 3106 2807 2611 2175 2026 1627 1417 1180
3878 4002 3872 3758 3798 3546 3485 3458 3481 3305 3227 3303 3352 3298 3400 3665 3810 3718 3655 4008 3857 3975 3698 3834 4100 3745 3564 3618 3371 3325 3190 2944 2648 3219 2882 2692 2632 2355 1990 1843 1630 1447
3839 3869 3824 3880 3797 3626 3578 3493 3512 3518 3439 3557 3462 3491 3595 3546 3882 3904 3786 3814 3759 3917 3963 3866 4069 4020 3693 3703 3711 3523 3338 2960 2812 2914 2742 2589 2571 2248 1991 2002 1844 1745
3798 3852 3915 3900 3812 3559 3489 3506 3584 3728 3691 3545 3390 3360 3669 3614 3719 3848 3990 3975 3912 4048 4291 4050 4086 4063 3853 3864 3905 3803 3574 2989 2678 2738 2695 2518 2533 2195 2109 2157 2016 1930
3798 3602 3657 3652 3600 3558 3486 3482 3381 3569 3691 3613 3519 3371 3424 3834 3719 3798 4054 4255 4236 4116 4258 4288 4236 4137 3976 3854 4053 3992 3707 3382 3035 2846 2605 2361 2358 2410 2334 2331 2176 2081
3649 3516 3532 3564 3457 3417 3432 3294 3235 3271 3438 3583 3519 3396 3265 3698 3866 3841 4020 4327 4297 4367 4350 4388 4266 4326 4189 4052 4118 4065 3888 3678 3476 3168 2919 2776 2820 2914 2780 2733 2357 2132
3627 3441 3371 3452 3479 3236 3217 3236 3204 3128 3220 3486 3568 3440 3428 3316 3804 3849 3845 4295 4436 4425 4424 4506 4518 4359 4282 4212 3951 4091 4132 4045 3878 3424 3079 3161 3260 3293 3054 2804 2586 2282
3482 3356 3353 3352 3425 3342 3122 3085 3006 2954 3043 3277 3459 3530 3473 3301 3300 3824 3868 4040 4439 4467 4406 4540 4657 4414 4379 4397 4303 4167 4194 4146 3785 3679 3500 3513 3491 3209 3002 2835 2566 2400
3478 3498 3402 3428 3474 3626 3461 3183 3116 3020 3191 3168 3337 3509 3353 3348 3241 3487 3937 3907 4128 4426 4454 4451 4620 4540 4496 4586 4476 4228 3980 4063 3836 3798 3530 3528 3398 3250 2982 2769 2651 2457
3652 3534 3584 3486 3476 3751 3706 3377 3347 3447 3338 3273 3430 3493 3426 3343 3318 3284 3740 4008 4019 4278 4410 4258 4318 4485 4498 4484 4297 4162 4061 3818 3768 3717 3535 3476 3478 3215 3031 2841 2705 2539
3670 3759 3792 3765 3667 3675 3883 3763 3433 3445 3371 3498 3447 3531 3707 3569 3430 3413 3457 3842 4054 4173 4223 4259 4234 4286 3969 3738 3868 4246 4044 3758 3696 3661 3536 3386 3451 3319 3033 2903 2711 2573
3979 3921 3875 3937 3957 3830 4026 3938 3734 3606 3662 3720 3723 3778 3809 3804 3684 3513 3362 3495 3793 3992 4102 4124 4126 4087 3520 3329 3318 3347 3813 3808 3565 3610 3542 3417 3340 3436 3235 2934 2801 2638
4038 4117 4126 4082 4025 4021 4084 4181 3942 3797 3810 3852 3867 3854 4006 3888 3798 3695 3712 3483 3539 3798 3927 3998 4112 3625 3177 2972 2869 2860 2964 3584 3575 3464 3445 3353 3287 3268 3267 3043 2825 2663
4016 4115 4159 4193 4268 4266 4233 4308 4267 3982 3905 3876 3823 4022 3980 4120 4026 3949 3879 3744 3556 3733 3838 3833 4013 3489 3000 2726 2548 2472 2384 2666 3379 3449 3283 3265 3247 3253 3203 3177 2980 2695
4217 4161 4245 4265 4302 4306 4302 4326 4296 4174 3951 3804 3864 3996 4099 4143 4091 4036 4088 4094 3919 3821 3858 3871 3952 3473 3069 2649 2381 2231 2160 2105 2931 3310 3243 3110 3119 3160 3172 3174 3107 2848
4147 4103 4302 4370 4316 4326 4344 4308 4290 4256 4115 3877 3768 3869 4068 4197 4219 4139 4097 4146 4143 3998 3940 3912 3851 3302 3159 2838 2471 2189 2020 1892 2609 2918 3048 2916 2920 3073 3137 3106 3076 2942
4057 4122 3969 4029 4133 4171 4226 4186 4227 4300 4240 4014 3806 3783 3975 4084 4222 4112 4134 4183 4216 4174 3982 3929 3858 3174 3034 2909 2664 2374 2120 1922 2348 2756 2894 2864 2755 2667 2681 2747 2406 2426
4015 3943 3937 3885 4103 4150 4133 4132 4211 4250 4262 4241 4031 3800 3793 4025 4235 4150 4103 4116 4107 4034 3808 3689 3927 3883 3023 2841 2669 2482 2259 2059 2260 2576 2731 2681 2762 2679 2612 2620 2567 2555
4003 3948 4045 4090 4086 4105 4120 4091 4038 4076 4209 4224 4122 3980 3758 3864 4003 4127 4236 4120 3850 3782 3587 3757 3835 3959 3117 2932 2734 2540 2350 2156 2364 2578 2621 2621 2452 2418 2463 2482 2473 1995
3937 3949 3987 3954 4050 4005 3976 4102 4092 4102 4085 4128 4124 4061 3919 3899 3696 3977 4243 4096 3762 3420 3232 3466 3619 3507 3270 3111 2838 2685 2508 2302 2457 2588 2682 2739 2639 2616 2475 2201 2274 1987
3788 3978 4100 3941 4159 4162 4157 4208 4148 4032 4016 4009 4102 3997 4003 3881 3740 3769 3961 4042 3950 3775 3626 3288 3298 3889 3092 3077 3055 2943 2770 2439 2595 2471 2633 2705 2606 2229 2224 2119 2157 2442

ECMWFNIL_con_mucape_057.txt.gz
CAPE
3628 3454 3444 3108 2840 2617 2662 3059 3525 3825 3695 2893 2802 3046 3128 3086 3035 2738 2960 3230 3875 4088 3880 3688 3914 4002 3918 4056 4232 3969 3426 3306 3094 2844 2793 2342 2018 1664 1528 1470 1352 1110
3632 3525 3462 3164 3066 2968 2860 2872 3302 3533 3831 3498 2864 2773 3175 3084 3225 3031 3091 3427 3734 4240 4226 3928 4093 4142 3972 3596 4132 4143 4022 3555 3419 2902 2930 2576 2297 1741 1635 1796 1453 1104
3617 3678 3571 3192 2912 2991 2549 2830 3092 3443 3428 3686 3266 2778 2874 3386 3447 3629 3359 3469 3725 4164 4420 4184 3960 4115 3880 3400 3875 4062 4110 3955 3678 2983 2941 2804 2398 1782 1854 1686 1636 1410
3756 3616 3504 3217 2875 2954 3026 2885 3048 3437 3420 3534 3666 2979 2585 2734 3508 3896 3971 3881 3883 4056 4142 4102 3662 3626 3902 3477 3680 3919 3974 4090 3896 3372 2971 2923 2764 2206 1691 1850 1740 1457
4005 3824 3398 3401 3068 3092 3300 3254 2924 3156 3453 3401 3420 3508 3205 3056 3415 3725 4206 4197 4251 4336 4246 4112 3919 3673 4024 3796 3764 3818 3674 3913 3905 3740 3307 3041 3064 2663 2063 1789 1840 1558
4076 3938 4005 3636 3647 3275 3154 3536 3345 2988 3413 3145 3274 3280 3447 3524 3373 3713 3987 4135 4269 4138 3604 3888 4214 3879 3710 4152 4052 3781 3372 3334 3289 3798 3503 3257 3075 2733 2282 1850 1957 1842
3984 4064 4002 3995 3566 3751 3498 3451 3555 3459 3154 3310 3324 3288 3384 3622 3824 3770 3862 4370 4304 4323 3775 3823 4135 3976 3736 3967 4132 4053 3582 3285 3140 3743 3778 3535 3249 2663 2227 1979 2064 1998
3925 3958 4060 4283 4005 3784 3638 3559 3715 3758 3457 3426 3382 3568 3504 3480 3999 3915 3932 4127 4330 4492 4236 3812 4194 4177 3855 3872 4210 4342 3897 3261 3091 3617 3792 3653 3188 2972 2552 2099 2053 2040
4002 4023 4352 4242 3886 3813 3553 3448 3620 3874 3914 3605 3439 3508 3809 3749 3899 4128 4245 4169 4257 4372 4558 4075 4313 4450 4193 4068 4242 4315 4013 3376 3134 3234 3447 3158 2832 2697 2536 2337 2126 2108
4302 4132 4154 4117 3784 3649 3479 3415 3173 3649 3928 3986 3674 3289 3536 3959 3872 4196 4457 4507 4299 4191 4439 4551 4231 4418 4552 4220 4146 4240 4176 3881 3555 3317 3299 3094 2790 2710 2655 2535 2310 2251
4245 3992 4195 4139 3700 3334 3212 3059 2838 2847 3612 3884 3736 3254 2973 3771 4111 4155 4556 4801 4503 4336 4367 4580 4506 4628 4686 4222 4080 4264 4304 4160 3694 3530 3457 3358 3081 3010 2802 2726 2486 2352
4407 4003 3854 3840 3439 3143 2851 2631 2465 2536 2916 3692 3754 3515 3187 2895 4087 4250 4302 4754 4834 4616 4532 4813 4799 4614 4668 4527 4077 4144 4404 4261 3954 3576 3366 3463 3369 3086 3033 2753 2560 2560
4264 4007 3715 3525 3574 3081 2766 2537 2448 2385 2460 3016 3687 3709 3460 3051 3140 4314 4328 4654 5003 4780 4682 4812 4933 4973 5073 4890 4400 4208 4399 4473 4276 3873 3603 3483 3306 3028 2968 2879 2788 2805
4224 4102 3875 3802 3730 4070 3333 2768 2586 2609 2662 2694 3412 3843 3583 3259 2969 3620 4432 4482 4828 5057 4882 4959 5258 5073 5032 5088 4818 4317 4404 4616 4453 3910 3700 3641 3423 3241 3025 2947 3000 2982
4736 4376 4365 4061 3966 4265 3793 3161 2960 3096 3167 3055 3368 3694 3744 3557 3346 3004 4105 4589 4720 5100 5004 4976 5158 5251 5274 5023 5016 4758 4504 4572 4464 4228 3949 3811 3700 3456 3334 3146 3168 3173
5153 4956 4774 4811 4246 4305 4840 4098 3297 3329 3147 3153 3422 3570 3948 4032 3909 3599 3441 4368 4714 4967 5117 5098 5118 5269 4960 4650 4699 4968 4755 4368 4440 4431 4326 4052 4053 3928 3632 3431 3203 3168
5292 5227 5122 5143 5001 4921 5126 4900 4278 3887 4147 4426 4197 3942 4302 4837 4275 3755 3505 3624 4474 4799 5085 5174 5084 5076 4724 4581 4525 4608 4688 4606 4558 4700 4568 4428 4203 4242 3995 3592 3470 3240
5233 5321 5296 5241 5228 5247 5325 5263 4748 4434 4521 4500 4208 4202 4766 4034 4197 4223 4388 3783 4054 4623 4875 5033 5190 4817 4511 4409 4346 4331 4384 4842 4486 4486 4553 4421 4322 4038 4011 3748 3470 3344
5221 5312 5384 5310 5241 5215 5296 5365 5142 4928 4539 4533 4424 4547 4444 4745 4874 4413 4471 4303 4044 4590 4675 4802 5027 4712 4427 4289 4117 4027 4022 4009 4383 4598 4516 4434 4338 4147 3911 3975 3740 3430
5346 5428 5479 5476 5434 5352 5249 5275 5316 5160 4629 4427 4562 4549 4642 4886 4565 4766 4839 4839 4494 4571 4787 4679 4916 4545 4356 4101 3948 3778 3694 3562 4076 4405 4529 4499 4416 4304 4065 3984 4049 3760
5454 5380 5426 5452 5490 5484 5272 5297 5349 5287 4983 4454 4414 4641 4758 4957 4845 4911 4908 4942 4714 4320 4244 4376 4573 4261 4285 4040 3726 3560 3430 3274 3837 3987 4319 4476 4482 4373 4346 4098 4107 4026
5362 5374 5363 5414 5484 5499 5355 5271 5309 5404 5340 4892 4518 4422 4614 4877 5016 4775 4748 4748 4914 4662 4134 4202 4156 3762 3983 4052 3792 3392 3225 3136 3523 3845 3843 4161 4410 4458 4411 4397 4280 4212
5226 5174 5216 5269 5374 5340 5240 5158 5150 5336 5314 5025 4612 4423 4463 4711 4885 4826 4924 4877 4866 4859 4653 4438 4321 4336 3685 3763 3845 3640 3217 3014 3382 3604 3710 3752 4008 4313 4269 4294 4265 4310
5152 5041 5026 5107 5326 5345 5207 5085 5063 5159 5188 5166 4792 4471 4140 4290 4663 4814 4925 4836 4678 4733 4661 4937 4635 4840 3761 3650 3612 3620 3413 3119 3392 3595 3619 3650 3692 3942 4136 3782 3536 3616
4950 4948 5061 5174 5277 5257 5027 5094 5039 5031 5074 5003 4879 4666 4370 4240 4082 4400 4794 4965 4818 4652 4426 4530 4720 4501 4148 3945 3669 3506 3395 3242 3465 3533 3568 3652 3617 3705 3901 3754 3740 3360
4795 5153 5153 4933 5048 5146 4992 5006 5060 5005 4989 4942 4915 4647 4585 4340 4034 4088 4387 4609 4790 4451 4730 4649 4538 5057 4198 4240 4000 3663 3394 3242 3655 3646 3586 3566 3644 3617 3647 3789 3740 3725

ECMWFNIL_con_mucape_060.txt.gz
CAPE
3426 3375 3479 3400 3191 3002 3088 3943 4013 3773 3626 3480 3781 3618 3481 3792 3588 3534 3406 3840 4238 4249 4138 4304 3986 4208 4181 4375 4346 4490 4331 3736 3487 3838 3513 3078 2490 2016 1786 1774 1656 1880
3442 3590 3466 3323 3207 3089 3124 3531 4240 4183 4215 3988 3750 3904 3864 3906 3676 3710 3716 3789 4104 4191 4254 4156 4303 4154 4220 4196 4575 4439 4664 4233 3936 3656 3485 3249 2828 2238 1934 1854 1709 1714
3476 3603 3647 3291 3081 3249 2570 3007 3644 4388 4479 4166 3912 3926 4046 3834 3799 3625 4014 3936 4054 3937 4432 4166 4283 4445 4436 4443 4713 4581 4570 4389 3925 3242 3530 3341 3005 2669 2165 1644 1802 1997
3413 3474 3270 2990 2933 3050 2731 2688 2985 3722 3808 4187 3818 3382 3463 3070 3450 3729 3621 4103 3987 4028 4386 4447 4102 4210 4595 4555 4770 4714 4573 4528 4050 3772 3637 3565 3343 2867 2340 2002 1774 1886
3459 3435 3124 2972 3019 3108 2858 2572 2385 3081 3183 3366 3892 3609 3184 3342 3731 3722 3666 3786 4071 4335 4620 4601 4470 4399 4646 4577 4531 4647 4438 4625 4323 4263 3913 3634 3512 3261 2661 2180 2122 1982
3427 3342 3396 3175 3092 3259 3112 2589 2514 2468 2705 2628 3541 3733 3599 3318 3971 3572 3845 3700 3773 3822 3952 4442 4578 4298 4527 4568 4354 4377 4160 4190 4247 4383 4115 3682 3356 3165 2803 2421 2356 2233
3550 3507 3401 3337 3374 3071 3051 2900 2631 2500 2712 2709 3272 3510 3659 3344 3294 3518 3957 4069 3533 3410 3586 4127 4465 4246 4186 4398 4298 4151 4216 4208 4118 4436 4219 3824 3536 3303 2948 2751 2510 2304
3362 3436 3371 3144 3142 2935 2826 2908 3007 2809 2802 3267 3340 3576 3775 3556 3328 3141 3852 4286 4185 4064 4002 4324 4614 4464 4108 4330 4372 4289 4218 4118 3950 4421 4331 4061 3750 3604 3290 2841 2627 2518
3602 3533 3337 2992 2718 2669 2318 2331 2994 3169 3001 3274 3227 3196 3589 3559 3696 3227 3413 4062 4189 4408 4499 4403 4685 4574 4193 4195 4414 4401 4318 3825 3526 3862 4231 4095 3926 3719 3541 3108 2727 2580
3721 3667 2889 2792 2776 2979 2593 2067 2229 2697 3096 3087 3119 2895 3340 3489 3688 3776 3979 4089 4350 4493 4759 4517 4594 4569 4337 4122 4342 4490 4445 4232 3727 3510 3900 4049 3972 3810 3583 3255 2826 2632
3469 3644 3795 3434 3177 2859 2606 2304 2168 2516 2880 2732 2615 2564 3130 3535 3588 3967 4423 4472 4241 4522 4961 4854 4574 4626 4387 4064 4200 4437 4513 4390 4042 3654 3604 3950 4016 3932 3663 3323 3012 2604
3544 3344 3348 3304 3312 2927 2522 2683 2192 2302 2823 3130 3164 2860 2698 3084 3832 3738 4191 4674 4386 4319 4714 4922 4775 4709 4616 4372 4084 4212 4453 4472 4314 3875 3480 3643 3970 3874 3625 3299 3051 2790
3857 3419 3186 3455 3496 3079 2687 2626 2532 2148 2204 2796 3232 3178 2568 2260 3324 3876 3829 4609 4742 4476 4484 4735 4862 4746 4742 4786 4486 4234 4444 4573 4394 4153 3691 3525 3618 3584 3365 3150 2966 2922
4007 3398 3343 3608 3398 3405 3195 3007 2629 2388 2440 2767 3473 3368 2716 2701 2719 3854 4248 4362 4830 4766 4646 4627 4882 4938 4900 4976 4918 4635 4513 4590 4476 4355 4090 3760 3552 3564 3381 3071 2937 2887
4041 3952 3733 3551 3572 3705 3423 3127 2977 2917 2773 2721 3266 3562 3340 3193 2733 2700 4064 4285 4628 5003 4882 4689 4718 4859 4812 4906 5010 4909 4546 4402 4542 4471 4347 4036 3797 3626 3630 3447 3193 2951
4413 4349 4205 3878 3879 3996 3742 3410 3203 3046 2829 2755 2844 3535 3753 3770 3299 2741 3094 4332 4490 5024 5218 4963 4742 4741 4490 4466 4532 4750 4637 4197 4289 4519 4429 4153 4036 3773 3557 3568 3278 2989
4794 4730 4646 4368 4209 4124 4079 3620 3264 3230 3049 3028 3060 3279 3641 4186 4054 3659 2783 3200 4434 4710 5152 5056 4848 4774 4534 4451 4321 4290 4450 4318 4163 4542 4591 4448 4194 3991 3725 3565 3359 3029
5155 5100 5004 4807 4430 4204 4267 4061 3491 3224 3276 3303 3323 3324 3650 4106 4326 4172 3773 3080 3988 4606 4774 4978 4908 4588 4617 4617 4505 4445 4267 4295 4269 4351 4611 4567 4292 4052 4004 3743 3546 3402
5466 5344 5188 5079 4802 4427 4374 4463 4044 3532 3444 3463 3426 3520 3571 3947 4452 4404 4310 3917 3589 4542 4830 5020 5146 4785 4752 4720 4510 4437 4319 4067 4337 4278 4240 4426 4318 4066 3907 3936 3759 3588
5722 5558 5392 5263 5253 4987 4687 4775 4609 4034 3473 3438 3599 3820 3891 4029 4154 4498 4471 4459 4123 4235 4685 4963 5190 4966 4752 4718 4584 4348 4188 3927 4159 4432 4395 4335 4410 4339 4074 4026 4134 3958
5934 5841 5752 5574 5585 5480 5110 5043 5133 4857 4267 3639 3572 3921 4034 4117 4206 4337 4630 4589 4494 4245 4409 4883 4833 4872 4874 4746 4654 4506 4223 3996 3698 4260 4386 4468 4563 4620 4523 4238 4234 4268
6052 6082 6071 5908 5780 5688 5516 5418 5567 5429 4935 4365 3823 3762 4090 4452 4724 4346 4402 4598 4724 4588 4158 4276 4322 4372 4769 4850 4730 4466 4332 4090 3760 4008 4204 4416 4702 4723 4733 4683 4486 4269
6064 6132 6158 6178 5979 5762 5622 5581 5738 5715 5467 4999 4450 4305 4446 4645 4682 4544 4528 4630 4752 4841 4621 4263 4147 3910 3993 4544 4736 4693 4430 4159 3982 3831 4096 4101 4196 4641 4875 4868 4752 4523
6148 6227 6105 5962 6107 5927 5703 5735 5752 5587 5496 5324 4846 4491 4313 4485 4581 4659 4855 4892 4697 4744 4791 4720 4734 4297 3775 3818 4281 4593 4587 4422 4104 3822 4083 4072 3971 4047 4467 4942 5006 4594
6167 6252 6198 5993 6110 5989 5837 5851 5715 5607 5589 5679 4988 4534 4140 4503 4670 4846 5032 5040 4720 4582 4658 4687 4743 4617 4263 3921 3757 4080 4403 4462 4307 4035 4000 4152 4077 4057 4088 4296 4738 4645
5889 6122 6078 5848 5869 6046 5964 5875 5694 5465 5640 5614 5309 4851 4430 4333 4484 4684 5202 5246 4845 4648 4520 4467 4790 4997 4570 4413 4108 3866 3885 4163 4212 4114 3933 4096 4147 4133 4120 4038 4037 4294

ECMWFNIL_con_mucape_063.txt.gz
CAPE
1736 1861 2057 2053 2000 2188 2656 2350 2279 2276 2305 2299 2627 2591 2584 2434 2382 2547 2569 2842 3014 2852 3071 3148 3158 3002 2770 2897 3224 2859 3017 2663 2313 2496 2311 1896 1550 1070 1180 995 1042 542
1836 1902 2152 2194 2213 2282 2582 2544 2364 2118 2426 2381 2603 2754 2766 2808 2745 2500 2608 2848 3109 3016 3056 3230 3032 2974 2916 2700 3277 3055 2998 2762 2664 2667 2661 2019 1763 1362 1046 1138 1142 861
1893 1951 2075 2218 2263 2342 2487 2686 2459 2155 2038 2572 2491 2665 3028 2996 2989 2681 2564 2885 3052 3098 3074 3254 3066 2867 3020 2904 3015 3406 3064 2830 2680 2853 2597 2625 2017 1701 1366 1242 1094 1038
1936 1968 2011 2150 2178 2286 2289 2786 2769 2462 2168 2264 2731 2721 2724 3101 3016 2852 2638 3086 3021 3098 3114 3121 3270 2990 2952 3063 3192 3154 3403 2958 2734 2924 2746 2594 2415 2014 1732 1434 1216 1174
2103 2025 2018 2048 2136 2170 2150 2302 3022 2921 2672 2465 2615 2915 2852 2733 2978 2892 2777 2736 2862 3038 3154 3154 3130 3212 3006 3049 3350 3310 3265 3432 2977 2945 2887 2701 2518 2242 1993 1527 1429 1261
2283 2181 2119 2050 2076 2113 2093 1955 2321 3182 3125 3021 2831 2907 3036 2816 2751 2820 2808 2918 2858 2953 3081 3245 3134 3156 3234 3110 3383 3489 3405 3352 3376 3076 2913 2780 2623 2416 2195 1873 1557 1360
2355 2323 2299 2203 2101 2038 2047 1927 1855 2363 3197 3283 3176 2982 2978 3040 2808 2766 2658 2821 3067 3027 3096 3284 3328 3216 3312 3346 3348 3539 3595 3526 3472 3300 3063 2898 2729 2608 2407 2186 1906 1563
2360 2354 2358 2328 2187 2044 2048 1978 1819 1810 2252 2961 3291 3177 2869 2874 2971 2794 2723 2530 2859 3155 3158 3348 3500 3400 3405 3512 3488 3461 3601 3603 3594 3538 3209 3117 2915 2712 2558 2394 2180 1892
2424 2338 2311 2329 2255 2128 2086 2047 1884 1748 1769 2084 2536 3089 3055 2717 2507 2852 2903 2693 2546 2812 3149 3380 3569 3566 3506 3577 3616 3537 3495 3521 3527 3555 3472 3292 3152 2924 2679 2511 2367 2174
2480 2361 2282 2261 2204 2132 2125 2133 1993 1751 1681 1836 1941 2264 2958 3018 2594 2402 2943 3033 2779 2620 2730 3088 3530 3644 3585 3540 3603 3587 3468 3387 3385 3408 3484 3421 3295 3125 2870 2631 2464 2300
2495 2398 2294 2209 2169 2073 2051 2099 2089 1876 1673 1727 1855 1916 2328 2882 2945 2526 2410 3081 3216 2952 2776 2739 3120 3592 3647 3540 3492 3511 3461 3308 3213 3207 3312 3446 3380 3220 3022 2783 2609 2444
2595 2450 2313 2236 2145 2081 2047 2029 1979 1967 1823 1720 1859 2017 2180 2528 2869 2861 2465 2436 3167 3390 3247 3006 2997 3386 3624 3602 3478 3424 3420 3323 3186 3078 3013 3178 3371 3276 3139 2934 2788 2641
2611 2498 2323 2214 2162 2049 1971 1983 1900 1814 1935 1894 1851 2023 2199 2459 2683 2893 2848 2476 2545 3128 3510 3487 3318 3355 3574 3642 3537 3410 3396 3372 3323 3207 3018 2882 3024 3234 3165 3065 2916 2790
2651 2498 2370 2221 2122 2011 1860 1804 1778 1639 1703 1992 1983 1940 2033 2249 2619 2714 2925 2952 2758 2751 3116 3525 3636 3528 3539 3631 3601 3457 3385 3441 3432 3399 3272 3013 2828 2962 3129 3113 3040 2899
2665 2512 2394 2340 2224 2006 1855 1822 1771 1621 1571 1776 2039 2004 1939 1972 2305 2676 2700 2958 3214 3106 3013 3227 3625 3729 3614 3597 3606 3508 3372 3417 3501 3481 3423 3297 3071 2856 2936 3120 3108 3009
2697 2517 2395 2405 2447 2267 2074 1988 1948 1806 1632 1731 2029 2003 1910 1852 1866 2352 2737 2771 3062 3380 3340 3250 3385 3704 3785 3712 3645 3597 3454 3365 3431 3495 3500 3447 3324 3103 2860 2873 3019 3016
2814 2657 2480 2422 2508 2508 2361 2200 2078 2003 1862 1734 2028 2307 2187 2081 1910 1796 2331 2838 2866 3236 3529 3476 3408 3476 3701 3855 3816 3726 3632 3497 3411 3479 3525 3529 3436 3284 3082 2875 2834 2896
3028 2843 2718 2519 2440 2536 2542 2392 2208 2102 2010 1904 1919 2392 2566 2502 2345 2034 1999 2684 2998 3079 3438 3616 3583 3501 3564 3772 3866 3830 3723 3624 3561 3498 3547 3541 3492 3412 3271 3084 2921 2873
3504 3140 2997 2786 2544 2516 2590 2547 2345 2200 2159 2067 2021 2200 2700 2793 2706 2552 2298 2442 3158 3240 3322 3600 3697 3652 3617 3652 3799 3841 3823 3661 3538 3511 3451 3525 3534 3477 3387 3282 3122 2976
3794 3506 3209 3156 2903 2662 2642 2692 2532 2312 2235 2257 2213 2158 2426 2949 3046 2929 2772 2496 2776 3402 3460 3545 3738 3795 3816 3752 3714 3761 3797 3763 3492 3446 3401 3337 3416 3482 3441 3364 3278 3116
3985 3732 3461 3406 3314 3067 2862 2859 2823 2584 2343 2286 2318 2296 2262 2506 3055 3195 3132 2985 2659 2880 3534 3634 3737 3856 3994 3970 3869 3776 3738 3740 3532 3377 3338 3300 3257 3357 3488 3447 3345 3239
4181 3998 3808 3708 3649 3484 3247 3102 3068 2942 2654 2406 2323 2340 2340 2333 2515 3010 3303 3289 3148 2833 2912 3621 3888 3904 4028 4126 4107 4000 3885 3753 3600 3431 3346 3297 3272 3261 3379 3514 3488 3370
4382 4278 4125 4042 3980 3882 3640 3381 3269 3236 3024 2690 2437 2349 2416 2495 2526 2614 2999 3358 3429 3309 3027 2965 3550 4050 4170 4175 4207 4180 4101 3950 3791 3622 3471 3377 3344 3345 3391 3464 3540 3538
4606 4527 4429 4330 4274 4199 4042 3759 3527 3466 3417 3095 2719 2473 2440 2566 2664 2719 2758 3035 3399 3539 3466 3250 3100 3358 4124 4445 4392 4369 4303 4197 4099 3999 3870 3731 3593 3450 3422 3531 3686 3764
4869 4799 4698 4599 4537 4460 4376 4218 3931 3794 3766 3681 3247 2813 2582 2641 2825 2889 2952 3026 3180 3405 3593 3576 3460 3350 3338 3802 4441 4550 4550 4474 4370 4270 4174 4106 4024 3953 3825 3667 3608 3824
5126 5061 4967 4858 4802 4742 4676 4562 4393 4232 4249 4189 3960 3482 3092 2918 3062 3189 3253 3287 3323 3360 3440 3599 3663 3673 3648 3550 3492 3951 4499 4654 4587 4520 4456 4389 4332 4249 4177 4079 3954 3793

ECMWFNIL_con_mucape_066.txt.gz
CAPE
1095 1140 1194 1020 1459 1344 868 923 1344 1278 1211 1550 1760 1868 1984 2023 2042 2236 2289 2314 2633 2832 3070 3212 3232 3173 3076 3069 3153 3137 2993 2475 1993 1883 1735 1497 1358 746 255 206 96 658
1134 1101 1197 1107 1009 1563 1489 1042 1278 1506 1299 1514 1774 1891 1964 2048 2056 2156 2248 2272 2480 2706 2860 3045 3184 3278 3275 3101 3047 3062 3000 2505 2293 2276 2181 1886 1521 1335 753 271 354 292
1173 1116 1162 1255 1078 1090 1662 1549 1301 1590 1583 1516 1791 1937 2024 2069 2076 2055 2176 2184 2335 2518 2660 2856 2952 3104 3227 3192 3032 2980 2914 2635 2396 2354 2351 2233 1969 1667 1498 962 441 297
1203 1182 1177 1271 1248 1092 1262 1821 1627 1520 1748 1721 1808 1992 2037 2124 2070 2003 2098 2481 2308 2468 2518 2693 2819 2864 2941 3033 3046 2895 2824 2701 2520 2404 2432 2360 2323 2135 1807 1594 1153 766
1225 1262 1234 1290 1362 1287 1247 1660 1920 1723 1657 1860 1850 2045 2159 2220 2203 2076 2052 2251 2320 2462 2544 2614 2760 2796 2825 2886 2933 2828 2784 2779 2716 2635 2506 2420 2398 2324 2160 1885 1567 1123
1226 1281 1301 1320 1443 1486 1460 1585 1937 1976 1774 1725 1989 2087 2268 2335 2343 2284 2153 2168 2378 2447 2560 2618 2707 2783 2778 2814 2819 2727 2558 2813 2834 2805 2681 2527 2428 2364 2275 2141 1864 1573
1322 1318 1348 1370 1463 1583 1625 1634 1887 2100 2002 1772 1829 2161 2301 2471 2480 2436 2369 2228 2326 2488 2563 2629 2676 2777 2800 2778 2771 2684 2464 2680 2864 2823 2782 2660 2532 2431 2344 2269 2120 1853
1433 1435 1424 1425 1452 1580 1703 1730 1809 2143 2215 2017 1768 1935 2291 2446 2595 2579 2527 2442 2369 2437 2561 2646 2697 2717 2805 2811 2762 2662 2594 2558 2754 2838 2761 2717 2639 2514 2456 2401 2311 2120
1544 1570 1539 1509 1490 1517 1640 1751 1786 1979 2345 2264 1987 1794 2035 2296 2374 2586 2668 2631 2553 2484 2506 2610 2715 2739 2742 2802 2784 2690 2673 2710 2711 2803 2797 2718 2672 2620 2566 2524 2450 2323
1702 1718 1720 1646 1588 1540 1556 1622 1706 1763 2074 2493 2357 2070 1994 2170 2286 2262 2335 2521 2603 2586 2556 2566 2654 2754 2764 2752 2797 2756 2694 2733 2828 2824 2838 2810 2736 2669 2625 2576 2520 2429
1860 1826 1846 1824 1745 1651 1580 1569 1602 1608 1621 2104 2580 2539 2343 2246 2303 2362 2304 2282 2318 2434 2578 2615 2630 2723 2802 2793 2787 2802 2761 2728 2817 2926 2947 2920 2843 2755 2684 2599 2546 2474
1957 1911 1907 1915 1895 1825 1737 1636 1599 1595 1543 1543 2010 2610 2687 2540 2406 2408 2457 2436 2357 2315 2380 2570 2674 2736 2839 2866 2861 2871 2872 2831 2815 2898 2992 3040 3018 2922 2808 2699 2570 2489
2022 1987 1952 1939 1954 1944 1887 1785 1666 1617 1568 1512 1504 1836 2404 2714 2674 2491 2463 2576 2621 2533 2437 2405 2554 2742 2878 2953 2967 2985 3022 3019 2961 2925 2958 3009 3075 3096 3017 2880 2719 2541
2103 2074 2038 1983 1948 1962 1944 1895 1806 1693 1615 1535 1454 1466 1629 2062 2599 2720 2571 2456 2579 2692 2653 2512 2406 2498 2757 2983 3063 3076 3098 3119 3118 3064 2995 2969 2987 3054 3082 3040 2924 2768
2184 2175 2134 2076 2019 1958 1935 1905 1847 1781 1713 1617 1501 1426 1448 1508 1744 2296 2658 2606 2391 2369 2586 2643 2515 2402 2434 2695 3009 3123 3121 3131 3163 3150 3099 3022 2958 2916 2947 3032 3028 2949
2232 2231 2203 2156 2089 2023 1959 1906 1840 1784 1747 1704 1618 1502 1426 1446 1491 1656 2107 2464 2508 2369 2308 2534 2742 2693 2538 2489 2653 2959 3107 3126 3122 3134 3137 3097 3013 2917 2832 2813 2926 2982
2336 2314 2281 2227 2169 2099 2023 1942 1845 1750 1699 1683 1678 1633 1524 1449 1492 1571 1755 2052 2350 2442 2354 2259 2475 2829 2908 2805 2682 2740 2933 3068 3096 3109 3130 3135 3090 3015 2895 2765 2685 2737
2588 2456 2413 2347 2258 2178 2085 1996 1900 1777 1678 1617 1590 1630 1659 1576 1512 1554 1712 1930 2124 2302 2388 2351 2286 2382 2744 3033 3044 2935 2896 2977 3068 3099 3128 3158 3153 3118 3043 2930 2800 2692
2959 2836 2709 2559 2383 2295 2198 2072 1966 1862 1726 1607 1572 1550 1603 1662 1609 1566 1610 1827 2079 2230 2372 2502 2502 2428 2448 2700 3039 3186 3159 3074 3024 3089 3098 3133 3177 3186 3164 3109 3028 2924
3341 3248 3151 3042 2901 2698 2422 2216 2085 1949 1809 1661 1548 1490 1482 1619 1706 1673 1606 1619 1846 2145 2309 2419 2598 2676 2671 2624 2720 2992 3220 3287 3184 3095 3091 3092 3110 3165 3196 3188 3158 3111
3584 3519 3456 3380 3278 3148 2958 2696 2346 2095 1947 1775 1604 1504 1437 1519 1663 1703 1680 1610 1601 1800 2128 2327 2430 2583 2770 2857 2846 2848 3005 3221 3212 3137 3135 3156 3148 3158 3174 3197 3212 3210
3774 3726 3670 3606 3531 3425 3301 3146 2901 2580 2169 1938 1748 1634 1547 1507 1683 1767 1769 1718 1647 1596 1693 2061 2348 2438 2594 2814 2979 3019 3021 3061 3144 3137 3152 3212 3251 3248 3227 3242 3261 3278
3913 3869 3806 3765 3699 3619 3520 3399 3218 2988 2713 2307 1985 1842 1765 1685 1698 1911 2039 2008 1904 1746 1650 1787 2149 2378 2534 2675 2879 3057 3093 3105 3075 3070 3088 3152 3235 3250 3242 3235 3234 3252
3997 3969 3942 3898 3831 3757 3665 3562 3422 3247 3045 2820 2568 2158 1966 1886 1829 1892 2146 2318 2307 2213 2043 1951 2052 2427 2668 2772 2841 3000 3096 3091 3095 3064 3063 3083 3143 3199 3232 3237 3237 3222
4072 4068 4033 3979 3925 3854 3793 3710 3568 3438 3301 3125 2952 2750 2467 2019 1991 1966 2028 2253 2508 2583 2531 2368 2267 2344 2708 3041 3124 3150 3238 3266 3181 3110 3098 3132 3162 3193 3216 3250 3292 3322
4127 4117 4073 4025 3972 3922 3869 3787 3688 3574 3462 3348 3198 3025 2830 2628 2396 2010 2086 2103 2240 2573 2794 2828 2742 2636 2584 2856 3248 3430 3504 3493 3462 3393 3356 3355 3368 3389 3424 3462 3584 3703

ECMWFNIL_con_mucape_069.txt.gz
CAPE
1180 1162 1168 1136 1126 1084 1042 1048 1048 937 922 1153 1459 1685 1815 1858 1879 1970 2002 1984 2083 2364 2531 2571 2597 2646 2718 2762 2726 2708 2718 2706 2584 2402 2302 2094 1828 1280 1090 837 33 7
1186 1164 1157 1134 1106 1099 1057 1016 960 916 842 917 1258 1477 1689 1762 1788 1892 1960 1974 2021 2241 2460 2612 2658 2675 2728 2798 2851 2859 2840 2829 2707 2619 2550 2252 1882 1550 1233 1155 667 1
1208 1175 1150 1140 1106 1104 1099 1038 1004 963 879 787 1059 1295 1499 1633 1688 1776 1914 1950 1984 2107 2305 2534 2682 2734 2762 2818 2905 2943 2929 2891 2842 2828 2761 2408 1952 1770 1616 1410 1281 757
1210 1192 1171 1143 1084 1057 1142 1110 1068 1074 1011 908 950 1211 1376 1595 1659 1709 1827 2130 1956 2035 2190 2351 2534 2676 2760 2824 2854 2884 2908 2898 2877 2871 2828 2625 2207 2213 2150 1918 1621 1428
1224 1225 1178 1113 1083 1019 1083 1220 1166 1134 1074 1086 982 1202 1438 1583 1693 1700 1764 1887 1952 1990 2112 2252 2372 2501 2636 2740 2787 2818 2857 2918 2933 2891 2833 2697 2438 2330 2342 2301 2144 1847
1213 1207 1173 1097 1063 1050 1013 1214 1329 1157 1084 1175 1181 1252 1488 1607 1708 1719 1734 1804 1926 1980 2040 2154 2270 2388 2495 2586 2672 2700 2741 2806 2894 2925 2857 2745 2633 2500 2420 2398 2388 2302
1171 1175 1166 1105 1053 1064 1052 1027 1269 1404 1200 1179 1302 1335 1507 1652 1738 1763 1754 1770 1883 1964 2005 2067 2147 2260 2379 2476 2519 2558 2584 2642 2734 2841 2875 2777 2665 2610 2555 2543 2500 2458
1119 1121 1133 1128 1078 1087 1127 1072 1035 1292 1500 1411 1372 1480 1571 1695 1754 1813 1808 1795 1824 1916 1962 2019 2085 2142 2255 2374 2435 2455 2479 2479 2532 2668 2756 2744 2614 2551 2595 2644 2627 2541
1105 1086 1100 1128 1121 1114 1151 1169 1122 1096 1338 1560 1552 1507 1646 1770 1819 1849 1887 1858 1817 1836 1925 1994 2077 2136 2211 2314 2366 2398 2432 2440 2449 2529 2624 2630 2529 2481 2495 2580 2647 2629
1144 1124 1107 1133 1154 1154 1172 1222 1235 1205 1295 1506 1608 1576 1592 1792 1901 1948 1964 1971 1905 1854 1886 1984 2072 2152 2221 2301 2365 2381 2391 2423 2460 2505 2550 2558 2490 2409 2393 2452 2539 2600
1194 1181 1167 1158 1179 1191 1211 1246 1309 1330 1364 1530 1641 1662 1613 1640 1881 2020 2077 2078 2053 1978 1936 1970 2066 2165 2240 2301 2364 2406 2408 2412 2448 2491 2520 2525 2504 2436 2374 2376 2416 2436
1252 1239 1219 1206 1210 1226 1240 1258 1314 1378 1413 1540 1696 1778 1757 1666 1670 1936 2109 2189 2184 2144 2068 2031 2063 2152 2255 2313 2360 2406 2450 2465 2457 2457 2468 2482 2482 2464 2438 2405 2369 2366
1357 1326 1290 1271 1278 1270 1265 1269 1285 1353 1421 1469 1634 1824 1898 1853 1756 1739 1933 2104 2219 2260 2238 2190 2168 2189 2246 2319 2369 2398 2439 2488 2492 2478 2457 2458 2474 2492 2494 2487 2466 2435
1537 1460 1422 1387 1348 1362 1344 1323 1314 1314 1378 1424 1469 1677 1912 2019 1980 1856 1803 1900 2025 2112 2227 2283 2293 2296 2302 2316 2357 2413 2447 2468 2486 2486 2476 2459 2464 2507 2554 2584 2580 2562
1696 1649 1603 1566 1508 1468 1462 1423 1392 1363 1362 1381 1401 1436 1616 1944 2150 2124 2001 1915 1921 1954 1977 2008 2070 2152 2258 2324 2366 2422 2470 2499 2514 2524 2512 2492 2485 2499 2545 2618 2678 2701
1794 1796 1767 1737 1716 1644 1602 1572 1521 1477 1442 1409 1407 1396 1394 1500 1802 2148 2253 2194 2097 2048 2041 2054 2046 2013 2035 2155 2308 2408 2492 2538 2563 2579 2591 2584 2564 2552 2568 2602 2679 2743
1946 1929 1909 1904 1884 1831 1707 1721 1695 1641 1580 1512 1458 1441 1421 1386 1390 1562 1950 2262 2322 2252 2172 2134 2188 2214 2171 2125 2191 2351 2472 2577 2622 2642 2666 2703 2708 2692 2666 2660 2667 2710
2137 2106 2077 2060 2034 1999 1901 1813 1804 1786 1745 1687 1616 1549 1496 1452 1412 1385 1416 1636 1996 2259 2316 2242 2183 2225 2348 2387 2359 2340 2394 2500 2626 2680 2712 2760 2804 2827 2817 2795 2770 2758
2301 2267 2242 2218 2197 2140 2085 2012 1892 1859 1832 1795 1757 1699 1630 1583 1512 1437 1392 1372 1402 1606 1950 2225 2282 2231 2226 2333 2468 2508 2492 2459 2456 2616 2708 2751 2795 2828 2864 2878 2875 2855
2419 2394 2378 2362 2325 2336 2336 2288 2190 2031 1887 1850 1810 1763 1740 1702 1642 1581 1504 1425 1360 1336 1390 1572 1852 2079 2202 2232 2254 2350 2476 2510 2464 2408 2500 2622 2690 2755 2808 2865 2895 2906
2560 2529 2507 2483 2532 2572 2562 2514 2440 2352 2250 2116 1924 1841 1798 1752 1720 1688 1641 1554 1463 1391 1366 1380 1464 1639 1893 2071 2157 2194 2257 2410 2507 2476 2414 2446 2581 2680 2749 2808 2861 2904
2719 2680 2646 2706 2744 2748 2729 2696 2652 2690 2718 2700 2588 2368 2144 1909 1734 1681 1662 1635 1598 1533 1455 1417 1456 1554 1695 1848 2003 2115 2169 2212 2325 2437 2468 2478 2547 2667 2748 2812 2858 2917
2907 2866 2885 2915 2922 2914 2898 2882 2915 3019 3103 3137 3093 2979 2802 2605 2306 2018 1734 1626 1612 1590 1539 1503 1490 1530 1672 1812 1933 2052 2137 2209 2235 2249 2295 2386 2510 2639 2750 2834 2898 2943
3178 3111 3098 3109 3105 3090 3075 3067 3163 3270 3364 3390 3376 3312 3193 3009 2834 2624 2352 2033 1700 1581 1565 1560 1536 1507 1533 1683 1880 2029 2136 2223 2285 2320 2324 2343 2413 2504 2633 2758 2880 2979
3488 3434 3375 3341 3321 3265 3248 3292 3382 3470 3534 3560 3568 3519 3448 3323 3176 2988 2765 2503 2222 1902 1576 1587 1567 1540 1533 1542 1613 1841 2033 2200 2270 2317 2340 2380 2420 2466 2514 2630 2789 2931
3715 3697 3658 3603 3544 3452 3463 3502 3556 3630 3689 3712 3714 3685 3633 3545 3402 3253 3099 2926 2715 2469 2192 1814 1596 1599 1588 1595 1596 1599 1778 1970 2141 2216 2280 2329 2393 2436 2474 2546 2651 2789

ECMWFNIL_con_mucape_072.txt.gz
CAPE
907 834 850 861 912 954 1003 1042 1106 1149 1184 1198 1400 1578 1682 1782 1807 1859 1936 1947 1996 2176 2258 2243 2371 2397 2526 2572 2655 2684 2690 2658 2575 2421 2420 2390 2248 2124 1916 1646 1424 1073
1104 1001 964 904 917 970 1016 1055 1100 1125 1154 1146 1180 1387 1524 1617 1700 1801 1819 1854 1950 2104 2212 2291 2319 2395 2470 2551 2562 2644 2682 2675 2634 2520 2512 2499 2388 2277 2164 1935 1643 1291
1231 1170 1079 974 931 962 1016 1052 1072 1095 1098 1101 1080 1113 1329 1550 1602 1697 1757 1798 1830 1955 2105 2294 2378 2413 2433 2522 2523 2574 2617 2644 2640 2642 2717 2694 2593 2504 2480 2265 1940 1628
1245 1200 1119 1033 963 954 979 1012 1048 1044 1048 1048 1041 1020 1196 1472 1549 1603 1705 2100 1810 1824 1973 2192 2410 2468 2494 2510 2514 2542 2599 2630 2688 2750 2815 2826 2783 2736 2690 2577 2298 1976
1202 1174 1134 1079 1016 977 983 994 1014 1026 1023 995 969 944 1157 1371 1488 1513 1600 1754 1828 1819 1872 2078 2266 2451 2550 2562 2503 2560 2564 2630 2718 2781 2821 2845 2842 2827 2798 2719 2510 2244
1162 1158 1143 1098 1031 1006 1001 1009 1012 996 980 948 934 891 986 1189 1404 1465 1523 1583 1729 1796 1818 1948 2126 2300 2444 2579 2506 2548 2546 2549 2640 2698 2746 2770 2817 2870 2878 2836 2722 2475
1134 1133 1142 1107 1061 1046 1040 1032 1028 1014 982 954 906 887 953 1136 1298 1425 1470 1538 1618 1750 1794 1856 1986 2194 2317 2466 2514 2529 2502 2515 2542 2581 2637 2687 2713 2780 2862 2882 2807 2695
1121 1120 1126 1117 1092 1096 1091 1086 1074 1055 1032 979 919 909 981 1160 1261 1376 1454 1485 1558 1644 1757 1809 1894 2032 2168 2340 2435 2485 2492 2438 2454 2487 2572 2591 2599 2638 2715 2809 2860 2724
1124 1128 1128 1122 1119 1112 1122 1121 1106 1087 1054 1012 968 937 1078 1162 1263 1374 1479 1504 1530 1602 1678 1765 1858 1938 2068 2243 2345 2415 2458 2408 2386 2450 2466 2499 2507 2546 2567 2602 2694 2692
1126 1144 1108 1118 1125 1136 1126 1137 1117 1104 1069 1136 1058 1013 1171 1269 1298 1384 1491 1546 1554 1608 1642 1735 1822 1877 1997 2092 2230 2328 2364 2417 2427 2407 2448 2486 2508 2475 2454 2474 2509 2543
1118 1116 1112 1108 1117 1123 1141 1128 1118 1100 1054 1179 1247 1194 1210 1292 1430 1448 1516 1580 1600 1631 1660 1699 1782 1872 1948 2058 2161 2238 2306 2338 2375 2390 2405 2453 2504 2515 2505 2425 2458 2476
1104 1114 1106 1102 1110 1129 1146 1144 1125 1090 1052 1015 1226 1351 1328 1321 1435 1580 1610 1633 1673 1704 1701 1702 1741 1818 1928 2016 2131 2228 2319 2347 2391 2401 2392 2432 2458 2492 2508 2532 2449 2470
1089 1101 1096 1082 1091 1121 1129 1149 1135 1102 1059 1035 1174 1244 1350 1374 1360 1554 1718 1752 1770 1787 1790 1779 1755 1783 1898 1996 2077 2218 2313 2410 2454 2452 2464 2458 2463 2473 2477 2449 2450 2476
1075 1082 1084 1087 1081 1094 1109 1118 1103 1080 1065 1058 1204 1260 1302 1380 1426 1438 1602 1795 1846 1861 1908 1906 1869 1852 1894 1978 2073 2167 2271 2371 2459 2499 2519 2504 2509 2534 2522 2507 2559 2528
1072 1078 1087 1091 1086 1090 1096 1088 1079 1078 1083 1145 1247 1306 1368 1424 1465 1481 1468 1576 1769 1892 1966 2003 2004 1995 1983 1999 2056 2166 2303 2359 2433 2491 2535 2560 2561 2529 2533 2584 2620 2621
1110 1102 1100 1106 1126 1126 1118 1106 1100 1106 1115 1128 1158 1286 1363 1482 1554 1616 1610 1566 1595 1735 1872 1979 2067 2122 2047 1979 1970 2164 2241 2346 2400 2454 2489 2536 2581 2569 2533 2550 2601 2656
1293 1230 1158 1160 1179 1168 1172 1171 1170 1178 1194 1184 1172 1228 1327 1408 1549 1638 1762 1762 1715 1704 1743 1840 1954 2026 2011 2068 2116 2114 2152 2340 2406 2466 2498 2586 2608 2568 2634 2618 2610 2659
1464 1456 1416 1299 1254 1268 1268 1268 1270 1318 1360 1364 1322 1270 1250 1297 1394 1486 1663 1817 1913 1908 1856 1814 1871 1794 1841 1924 2021 2119 2184 2285 2430 2463 2495 2574 2612 2674 2712 2718 2724 2684
1585 1615 1604 1573 1487 1403 1390 1397 1416 1470 1512 1526 1540 1503 1410 1283 1377 1292 1425 1546 1760 1970 2046 2036 1997 1836 1846 1872 1891 1920 1989 2074 2141 2362 2486 2541 2640 2716 2776 2808 2787 2787
1718 1722 1740 1734 1705 1608 1562 1560 1579 1634 1655 1689 1704 1702 1679 1557 1359 1342 1334 1338 1409 1562 1750 1930 2083 2036 2004 1990 1995 2015 2033 2043 2024 2073 2330 2488 2597 2758 2790 2867 2852 2855
1882 1862 1848 1856 1852 1751 1745 1746 1760 1774 1809 1857 1881 1904 1892 1799 1652 1472 1416 1396 1375 1348 1349 1463 1580 1698 1926 2057 2108 2133 2156 2150 2174 2174 2145 2336 2505 2666 2736 2798 2848 2936
2050 2022 2003 2000 1979 1913 1898 1909 1924 1919 1988 2062 2131 2145 2143 2084 1986 1838 1664 1532 1482 1451 1423 1392 1344 1321 1404 1642 1911 2079 2150 2189 2209 2228 2234 2217 2268 2436 2568 2695 2776 2865
2198 2176 2158 2144 2041 2047 2065 2066 2091 2183 2254 2318 2378 2395 2397 2356 2300 2225 2127 2007 1876 1726 1577 1494 1426 1396 1378 1352 1372 1594 1808 1959 2052 2092 2102 2118 2105 2248 2388 2501 2613 2740
2330 2325 2286 2216 2218 2224 2219 2264 2340 2410 2456 2499 2532 2552 2566 2569 2564 2580 2558 2493 2368 2272 2138 1952 1792 1625 1502 1475 1434 1400 1393 1536 1622 1696 1766 1808 1876 2108 2291 2440 2582 2433
2488 2397 2345 2311 2386 2425 2462 2536 2600 2624 2674 2744 2782 2849 2901 2971 3033 3062 3024 2971 2899 2810 2696 2552 2430 2295 2136 1963 1726 1580 1518 1490 1474 1515 1561 1630 1814 1984 2131 2323 2487 2469
2687 2720 2790 2805 2837 2889 2942 2970 2982 3011 3031 3084 3136 3176 3183 3244 3308 3352 3359 3350 3320 3236 3097 2990 2837 2692 2567 2408 2212 2015 1798 1609 1559 1552 1584 1618 1831 2028 2097 2239 2346 2520

ECMWFNIL_con_mucape_075.txt.gz
CAPE
1964 1963 1881 1918 1966 1902 2096 2226 2228 2309 2635 2478 2709 2860 3021 3331 3474 3488 3569 3619 3623 3595 3669 3736 3724 3712 3692 3765 3732 3614 3542 3847 3631 3545 3628 3496 3530 3451 3331 3065 2722 2571
1940 1888 1834 1846 1957 2111 2255 2200 2273 2306 2657 2823 2742 2921 3230 3426 3390 3343 3510 3544 3578 3508 3656 3654 3681 3712 3763 3618 3588 3400 3332 3386 3499 3527 3453 3487 3561 3593 3359 3336 2995 2772
1970 1887 1818 1745 1746 1872 1608 1919 2161 2256 2350 2418 2690 2995 3103 3098 3185 3261 3371 3483 3487 3374 3646 3660 3653 3721 3720 3782 3820 3486 3353 3541 3657 3345 3383 3559 3564 3673 3638 3114 3134 3054
2038 1939 1750 1610 1607 1698 1710 1985 2150 2159 2051 2350 2430 2439 2683 2652 2914 3144 3264 3294 3397 3489 3472 3518 3520 3564 3707 3800 3890 3527 3384 3419 3738 3935 3663 3540 3528 3618 3718 3573 3236 3033
2162 2050 1844 1754 1712 1823 1965 1982 1767 1908 1916 2035 2080 2344 2690 2800 2932 2790 3041 3216 3317 3393 3475 3498 3572 3563 3782 3800 3743 3320 3127 3141 3424 3632 3522 3551 3611 3508 3688 3648 3506 3288
2294 2231 2110 1988 1913 2002 1950 1847 1799 1827 1883 1882 2114 2108 2239 2628 2642 2615 2813 2828 2957 2941 2958 3183 3400 3424 3548 3605 3481 3181 3098 3026 3358 3438 3502 3690 3636 3743 3850 3725 3716 3512
2348 2327 2207 2074 2042 2047 1947 1885 1918 1912 1834 1871 2076 2001 2044 2205 2481 2609 2753 2783 2664 2834 2765 3047 3418 3418 3530 3585 3418 3134 3064 3157 3221 3080 3106 3512 3708 3889 3973 3881 3887 3786
2258 2216 2223 2145 2039 2007 1989 1958 1985 2001 1937 1976 2052 2080 2030 2028 2282 2394 2592 2673 2609 2801 3011 3096 3452 3612 3441 3537 3545 3355 3214 2981 2933 3001 3045 3048 3314 3584 3860 3743 3905 3970
2212 2238 2185 2143 2046 2001 1921 1865 1951 1986 1950 1966 1814 1817 2043 1984 2147 2148 2536 2691 2598 2705 3100 3174 3367 3390 3321 3396 3478 3560 3580 3353 3210 3208 3059 3017 3234 3508 3733 3803 3572 3498
2264 2195 2028 2019 1927 1939 1893 1851 1820 1939 1970 1861 1772 1766 1927 2052 2068 2154 2520 2816 2668 2766 3029 3061 3168 3193 3214 3280 3473 3573 3637 3732 3624 3462 3372 3415 3535 3747 3833 3916 3800 3748
2119 2034 2000 1978 1882 1881 1896 1832 1786 1807 1932 1820 1760 1725 1859 2038 2161 2258 2496 2699 2491 2641 2837 2904 2996 3134 3198 3056 3146 3327 3474 3478 3623 3725 3694 3758 3732 3866 3827 3869 3873 3809
2091 1979 1931 1929 1902 1871 1875 1848 1805 1784 1870 1881 1833 1818 1872 1943 2181 2217 2293 2582 2546 2565 2774 2972 3024 3086 3237 3202 3004 3146 3333 3362 3469 3670 3610 3705 3729 3682 3805 3824 3712 3778
2025 1964 1955 1926 1977 1895 1884 1873 1822 1786 1782 1879 1896 1904 1903 1939 1983 2188 2303 2418 2671 2673 2707 2977 3113 3123 3240 3294 3234 3203 3319 3442 3288 3469 3528 3558 3598 3526 3454 3558 3617 3614
2050 1986 2022 2048 2032 2118 2041 1925 1890 1853 1873 1854 1969 1982 1952 1966 1980 2068 2308 2369 2491 2678 2785 2895 3122 3122 3210 3305 3324 3251 3282 3403 3409 3384 3426 3487 3508 3530 3408 3337 3439 3488
2209 2108 2138 2167 2116 2246 2155 2050 1996 1987 1982 1958 2002 2026 1990 2045 2059 2049 2241 2388 2405 2598 2714 2798 2882 2949 2993 3150 3251 3292 3238 3129 3314 3412 3414 3430 3529 3460 3447 3496 3411 3354
2435 2273 2256 2297 2226 2306 2336 2180 2055 2074 1999 2053 2081 2048 2070 2079 2129 2180 2205 2345 2483 2682 2805 2847 2856 2880 2792 2452 2601 3064 3243 3087 3180 3382 3465 3375 3518 3590 3465 3457 3506 3449
2536 2435 2378 2322 2274 2255 2334 2270 2204 2140 2124 2242 2195 2161 2118 2221 2220 2218 2168 2211 2316 2476 2682 2714 2805 2795 2460 2211 2068 2068 2609 3143 3252 3389 3507 3500 3449 3607 3666 3474 3496 3567
2327 2347 2323 2389 2402 2324 2369 2320 2216 2224 2258 2333 2311 2274 2338 2281 2336 2219 2319 2196 2143 2254 2363 2516 2676 2450 2267 2084 1963 1895 1900 2579 2967 3162 3204 3337 3419 3314 3445 3488 3455 3412
2400 2447 2444 2392 2366 2330 2383 2407 2401 2365 2350 2324 2197 2241 2277 2403 2356 2278 2341 2343 2291 2395 2309 2307 2459 2279 2055 1934 1895 1852 1873 1947 2556 2869 3032 3182 3241 3426 3431 3510 3658 3642
2569 2486 2456 2466 2450 2422 2438 2390 2340 2364 2211 2108 2102 2231 2339 2384 2256 2358 2454 2584 2531 2525 2584 2452 2418 2256 1999 1836 1754 1771 1826 1846 2405 2639 2952 3127 3257 3317 3408 3503 3655 3796
2580 2527 2548 2526 2547 2510 2454 2422 2381 2369 2266 2130 2120 2252 2433 2463 2392 2373 2423 2507 2530 2503 2619 2615 2396 2180 2102 1875 1715 1668 1693 1756 2227 2582 2775 3035 3160 3305 3431 3483 3552 3693
2638 2663 2638 2663 2603 2512 2490 2477 2495 2560 2540 2365 2248 2245 2345 2374 2445 2320 2410 2493 2474 2450 2373 2432 2408 2046 2070 1985 1848 1737 1699 1702 1916 2580 2732 2811 2995 3174 3351 3486 3609 3622
2678 2673 2730 2688 2680 2638 2589 2565 2614 2699 2667 2601 2482 2400 2386 2391 2466 2402 2440 2474 2441 2425 2425 2389 2432 2141 1828 1838 1850 1829 1812 1803 1877 2309 2662 2835 2975 3095 3292 3414 3528 3657
2776 2762 2811 2800 2848 2788 2782 2656 2672 2690 2682 2664 2632 2505 2405 2513 2569 2548 2539 2549 2429 2433 2398 2496 2434 2317 1872 1638 1552 1625 1715 1798 2220 2458 2713 2876 3002 3143 3254 3432 3507 3122
2828 2898 2897 2860 2965 2889 2802 2832 2813 2858 2766 2785 2728 2655 2638 2763 2648 2682 2730 2738 2592 2392 2259 2247 2396 2334 2093 2006 1887 1795 1682 1871 2452 2576 2684 2835 2849 3000 3186 3342 3425 3185
2849 3007 2963 2872 2995 3034 2949 3021 3072 2968 3003 2985 2928 2840 2870 2884 2854 2848 2917 2933 2816 2458 2464 2475 2455 2453 2417 2418 2366 2280 2159 2070 2354 2510 2534 2668 2870 2718 2995 3161 3240 3389

ECMWFNIL_con_mucape_078.txt.gz
CAPE
2760 2742 2729 2776 2716 2399 2312 2491 2426 2297 2281 1898 2123 2422 2382 2885 2962 2796 2959 3182 3304 3224 3313 3386 3463 3470 3164 3121 3256 3110 3084 3113 2782 2767 3102 3167 3094 2996 2768 2915 3026 2937
2565 2434 2557 2699 2785 2650 2524 2644 2773 2489 2659 2517 1990 2175 2764 2871 3318 3103 3190 3278 3377 3518 3197 3346 3478 3443 3300 2844 3241 3198 3323 3380 3339 2900 3201 3437 3460 3235 3074 3161 2915 3100
2378 2471 2314 2376 2644 2833 2474 2702 2889 2787 2670 2724 2398 2406 2732 3121 3434 3689 3465 3301 2917 2607 2921 3233 3205 3369 3245 3140 3299 3189 3096 3586 3497 2714 3226 3480 3196 3244 3264 2820 2837 3091
2521 2465 2143 2374 2458 2867 2747 2678 2949 2977 2520 2628 2752 2556 2522 2547 3102 3531 3709 3615 3217 3093 2726 2942 2971 2802 3046 3167 3358 3239 3065 3418 3408 3401 3271 3369 3499 3330 3295 3139 2930 2828
2628 2533 2568 2583 2752 2957 2948 2708 2794 2870 2551 2322 2633 2690 2898 3006 3278 3267 3547 3870 3690 3344 3166 3140 3246 2990 3002 3188 3264 3236 3032 2996 3237 3602 3553 3564 3607 3530 3411 3196 3457 3211
2836 2821 2858 2834 3000 2974 2917 2842 2728 2594 2707 2277 2627 2544 2822 3211 3163 3082 3251 3384 3468 3091 2474 2513 2854 2898 2862 3156 3168 3122 2849 2663 2627 3403 3530 3601 3397 3028 3158 3270 3607 3686
2891 2931 2743 2943 3129 3025 2934 2888 2806 2704 2796 2565 2637 2652 2711 3110 3387 3155 3040 3261 3027 3009 2565 2574 2898 2843 2844 3038 3302 3278 3265 3235 2962 3147 3258 3243 3500 3334 3002 3280 3722 3896
3281 3192 3129 3104 3217 3029 3035 2938 2990 2997 2883 2788 2630 2906 2774 2985 3302 3188 3003 3076 3122 3065 3104 2936 3200 3641 3107 2912 3070 3295 3461 3180 3134 3239 3336 3156 3370 3772 3721 3399 3668 4217
3380 3278 3162 3352 3176 2990 2880 2901 3135 3137 2886 2922 2611 2786 3008 3002 3061 3009 3128 3246 3257 3160 3442 3368 3427 3688 3434 3077 3151 3367 3607 3042 2831 3148 3273 3224 3400 3598 3828 3877 3884 4105
3592 3523 3411 3279 2988 2930 2889 2799 2838 3000 2972 2921 2828 2599 2897 3058 2832 2819 3083 3452 3617 3327 3517 3652 3566 3533 3611 3340 3427 3641 3682 3709 3234 3239 3404 3537 3471 3529 3707 3766 3651 3880
3460 3345 3332 3274 3041 2862 2887 2835 2655 2773 2999 2993 2882 2529 2627 2917 2962 2883 3039 3444 3500 3591 3617 3787 3795 3818 3783 3213 3218 3563 3704 3448 3455 3582 3631 3644 3527 3582 3650 3778 3798 3892
3482 3266 3212 3266 3102 2905 2825 2779 2633 2706 2909 3003 2888 2698 2524 2549 3028 2944 2893 3303 3740 3552 3600 3729 3811 3796 3832 3558 2898 3167 3460 3417 3345 3637 3708 3892 3812 3559 3766 3937 3843 3893
3328 3213 3204 3139 3278 2968 2838 2812 2679 2589 2708 2916 2921 2764 2501 2450 2752 3092 3010 3225 3732 3672 3442 3716 3884 3804 3902 3851 3398 3029 3158 3578 3172 3279 3570 3748 3909 3639 3419 3556 3772 3934
3249 3188 3256 3197 3262 3329 3081 2902 2784 2631 2727 2870 3032 2808 2518 2424 2501 2877 3134 3178 3530 3626 3524 3547 3882 3920 3912 3982 3849 3350 3074 3439 3739 3365 3182 3509 3636 3735 3463 3002 3195 3472
3576 3374 3319 3369 3384 3462 3238 3036 2968 2902 2902 3008 3140 2954 2594 2453 2474 2586 3054 3227 3310 3543 3536 3407 3589 3918 3835 3950 4006 3931 3518 3160 3466 3625 3432 3246 3472 3523 3508 3540 3092 2771
3668 3504 3469 3484 3392 3448 3491 3288 3126 3121 2971 3018 3142 3149 2955 2771 2693 2660 2778 3145 3322 3490 3578 3535 3497 3707 3635 3163 3443 3798 3760 3170 3270 3611 3736 3472 3474 3467 3111 3113 3291 3112
3765 3654 3658 3689 3620 3614 3641 3481 3336 3231 3170 3315 3343 3294 3247 3246 3073 2920 2720 2846 3167 3396 3550 3502 3534 3607 3123 2983 2912 3046 3552 3802 3558 3674 3988 3979 3787 3799 3704 3055 2729 2959
3799 3819 3752 3809 3791 3753 3806 3660 3434 3432 3436 3499 3444 3412 3496 3345 3242 3174 3139 2890 2955 3275 3387 3478 3589 3258 2987 2790 2596 2596 2794 3237 3528 3607 3538 3794 3937 3636 3610 3482 3125 2632
3854 3874 3829 3918 3949 3906 3925 3852 3671 3653 3553 3549 3439 3458 3486 3541 3570 3366 3335 3254 3050 3222 3190 3346 3593 3156 2925 2657 2454 2270 2167 2261 2592 3031 3292 3440 3581 3872 3873 3826 3694 3551
3948 3930 3925 3936 4060 3955 4005 3986 3819 3783 3532 3425 3405 3556 3644 3630 3407 3493 3491 3585 3376 3300 3302 3304 3400 3007 2896 2638 2399 2192 2044 1939 2574 2517 2790 3039 3456 3732 3849 3980 4201 4138
4081 3962 3999 4082 4054 3999 4018 3982 3869 3835 3649 3391 3313 3427 3622 3717 3661 3597 3595 3694 3610 3385 3265 3249 3086 2666 2708 2620 2387 2171 1981 1830 2548 2608 2714 2978 3040 3463 3822 4054 4206 4363
4084 3999 3952 4021 4022 3966 3938 3890 3907 3901 3838 3498 3252 3304 3483 3578 3638 3502 3615 3632 3598 3522 3156 3196 3092 2548 2515 2462 2362 2172 1973 1792 2385 2751 2828 2975 3286 3240 3715 4089 4231 4365
3945 3891 3919 3896 3877 3846 3813 3792 3823 3886 3804 3635 3436 3273 3278 3391 3497 3441 3482 3517 3494 3560 3530 3358 3436 3031 2508 2363 2262 2157 1989 2047 2429 2625 2880 3062 3279 3390 3624 4009 4234 4480
3922 3840 3902 3922 3854 3790 3766 3646 3679 3743 3759 3674 3450 3237 2988 3182 3419 3604 3573 3507 3378 3492 3454 3625 3477 3217 2776 2500 2304 2117 2007 2382 2702 2788 2990 3212 3386 3582 3677 3871 4107 3682
3770 3834 3804 3782 3806 3786 3695 3696 3708 3739 3700 3613 3445 3266 2997 3218 3292 3477 3600 3615 3419 3339 3176 3237 3497 3271 2867 2668 2389 2185 2025 2541 2816 2966 3051 3293 3408 3698 3753 3794 3942 3786
3670 3837 3839 3754 3795 3887 3691 3746 3662 3546 3639 3650 3547 3393 3283 3171 3217 3336 3549 3618 3512 3362 3306 3181 3197 3697 3034 2704 2484 2287 2099 2391 2970 3114 3179 3309 3555 3405 3601 3785 3713 3924

ECMWFNIL_con_mucape_081.txt.gz
CAPE
2747 2870 2725 2704 2529 1904 1894 2322 2170 2084 1795 1304 1527 1831 1422 1902 2149 1712 2229 2540 3063 3225 3234 3372 3385 3442 3082 3077 3232 3178 2978 2841 2888 2742 3097 3077 3023 2906 2688 2608 2695 2658
3057 3295 3227 2910 2917 2732 2334 2365 2440 2150 2137 1819 1395 1661 1842 1854 2278 2063 2233 2507 2996 3214 3136 3330 3493 3544 3279 2718 3087 3282 3373 3166 3047 2818 2984 3258 3350 2970 2941 2944 2743 2990
2931 3134 3061 2982 3004 2984 2385 2488 2545 2376 2124 1961 1424 1480 1899 2043 2391 2572 2521 2455 2795 2715 3107 3250 3240 3434 3335 3064 2912 3109 3185 3441 3261 2801 2836 3206 3093 3011 3211 2628 2578 2806
2896 2986 2895 2787 2628 2777 2853 2558 2585 2710 2292 2258 1755 1268 1449 1777 2184 2756 2882 2803 2843 2742 2626 3075 3089 2950 3232 3249 3272 3177 3015 3267 3265 3005 2842 3124 3344 3300 2733 3031 2821 2481
2962 3012 2898 2697 2646 2938 3139 2741 2540 2748 2606 2167 2131 1658 1692 1985 2227 2515 2882 2988 2865 2866 2688 2732 2945 2773 2910 3070 3321 3395 2824 2995 3048 3299 3235 3265 3466 3469 3094 2992 3110 3080
3247 3231 3046 2858 2911 3146 3282 3072 2886 2888 2791 2023 2275 1981 1862 2108 2224 2508 2798 2946 2966 2548 1932 2512 2836 2755 2864 3098 3334 3372 2907 2509 2221 3097 3514 3610 3271 2976 2867 2598 2984 3163
3182 3214 3072 3012 3023 3043 3254 3271 3232 2926 2847 2161 2342 2145 2017 2300 2460 2658 2767 2752 2597 2564 1784 2153 2877 2913 2672 2841 3373 3458 3294 2990 2468 2615 3262 3486 3610 3194 2636 2705 3087 3308
3229 3238 3053 3038 2949 3000 3192 3476 3283 3207 3048 2584 2065 2301 2172 2325 2791 2710 2573 2589 2576 2167 2135 1796 2565 2709 2551 2613 3033 3248 3375 2998 3084 2902 3092 3571 3464 3538 3452 3060 2950 3492
3188 3226 3108 3194 3117 3097 3292 3364 3376 3278 2983 2840 2155 2299 2376 2459 2838 2846 2750 2873 2752 2539 2622 2249 2649 2651 2694 2604 2809 3257 3343 2929 2596 2948 3260 3512 3514 3500 3545 3749 3363 3286
3261 3242 2984 3158 3091 3014 3089 3165 3068 3094 2832 2982 2682 2128 2588 2733 2704 3034 3062 3195 3061 2813 2979 2922 2849 2902 3079 2533 2577 2832 3168 3326 3028 2810 3023 3283 3172 3192 3332 3312 3081 3246
3160 3005 2994 3077 2949 2952 3208 2960 2592 2697 2830 2851 2772 2199 2291 2811 2903 3267 3393 3418 3222 3164 3452 3402 3204 3265 3377 2956 2540 2560 3039 3218 3274 3104 3002 3323 3439 3495 3518 3375 3327 3320
3068 2898 3011 3090 3078 2936 2905 2773 2296 2208 2802 2898 2804 2480 2197 2740 3216 3075 3137 3671 3604 3455 3522 3834 3836 3761 3740 3357 2630 2584 2734 3005 3185 3326 3222 3294 3469 3524 3679 3598 3430 3457
3053 2986 3090 3166 3161 2933 2657 2596 2218 1757 2018 2650 2678 2509 2167 2238 2981 3171 3150 3484 3863 3766 3710 3845 4181 4057 4066 3960 3120 2714 2886 3238 3051 3048 3236 3331 3451 3335 3254 3111 3118 3150
3447 3114 2935 3272 3287 3348 2787 2440 2185 1647 1884 2245 2765 2664 2285 2218 2238 3023 2920 3078 3635 3858 3826 4023 4282 4308 4274 4384 3916 3007 2692 3237 3390 2905 2835 3286 3292 3533 3179 2318 2207 2560
4022 3444 3238 3260 3347 3268 2861 2573 2371 2026 2019 2368 2897 2802 2230 2112 2110 2204 2907 2942 3295 3874 3988 3820 3977 4241 4337 4486 4308 3725 2778 2802 3376 3326 3085 3046 3197 2987 3112 2933 2043 1648
4262 3960 3455 3520 3359 3384 3424 2927 2621 2454 1984 2279 2857 3047 2698 2372 2285 2067 2532 3044 3133 3624 3819 3743 3594 4060 4110 3596 3854 3919 3283 2438 2788 3397 3346 2960 2940 3099 2710 2662 2594 2030
4534 3986 3881 3992 3882 3750 3669 3428 3303 2810 2700 3158 3269 3334 3305 3248 2542 2106 2193 2672 3094 3323 3694 3688 3610 3514 3624 3429 3476 3464 3559 3162 2630 3061 3471 3445 3007 3252 3181 2534 2113 2209
4570 4460 4262 4274 4242 4213 4202 3907 3310 3395 3539 3396 3154 3441 3763 2983 2584 2544 2759 2490 2851 3264 3429 3467 3446 3180 3296 3368 3314 3360 3402 3624 2824 2538 3039 3496 3571 2960 3161 3027 2387 1801
4650 4502 4519 4415 4443 4526 4545 4318 4004 3619 3272 3177 3247 3630 3666 3681 3524 2864 2891 2748 2610 3275 3246 3374 3298 2961 3065 3281 3245 3209 3157 3211 2754 2618 2299 2898 3304 3442 2972 3061 3088 2614
4789 4840 4654 4675 4815 4770 4744 4495 4043 3938 3566 3464 3530 3770 3974 3974 3470 3382 3294 3571 3063 3209 3474 3382 3496 2912 2983 3088 3152 3092 3012 3096 2742 2131 2510 2482 2732 3052 3220 3196 3355 3296
4992 4836 4908 5052 4993 4830 4955 4598 4281 4258 3955 3508 3444 3719 4106 4275 3986 3707 3693 3768 3306 2985 3229 3318 3314 3005 3021 3037 3016 2965 2882 2655 2868 2236 2057 2450 2712 2961 3392 3668 3857 3936
5006 5056 5030 5088 5041 5030 5002 4747 4578 4557 4403 3862 3521 3421 3908 4256 4365 3959 3966 3972 3789 3444 2839 3150 2897 2875 3116 3141 3065 2861 2774 2560 2894 2772 2742 2644 2728 2923 3285 3868 4073 4207
4989 4993 5016 5020 5055 5010 4941 4746 4817 4814 4461 4293 3887 3538 3671 4051 4308 4047 4130 4158 4112 4047 3561 3197 3151 2878 2755 3080 3128 3041 2808 2648 2898 2929 3103 3314 3372 3294 3509 3684 3950 4432
4984 4989 4975 4952 5037 4983 4900 4857 4820 4780 4544 4318 4089 3653 3247 3645 4085 4161 4094 4182 4056 4136 3861 3797 3400 4683 2704 2685 2954 2931 2837 2944 3196 3166 3176 3328 3529 3519 3800 3958 4061 4186
4975 4902 4964 4866 4961 4944 4724 4788 4815 4879 4696 4388 4063 3814 3408 3306 3553 4004 4252 4203 4085 3990 4057 3807 3619 4425 3031 2738 2610 2679 2684 3290 3461 3427 3367 3441 3563 3676 3904 4008 4240 4201
4815 5003 4996 4831 5048 4890 4758 4941 4782 4730 4610 4499 4363 3946 3529 3219 3063 3391 3824 4122 4061 3917 3881 3866 3733 3593 3121 2939 2837 2680 2560 3185 3686 3560 3517 3502 3650 3692 4070 4288 4070 4271

ECMWFNIL_con_mucape_084.txt.gz
CAPE
2143 1964 1910 1800 1578 1116 1272 2473 2481 2324 2342 1970 2501 2354 2227 2650 2656 3234 3001 3500 3876 3691 3754 4275 3893 4007 3715 3711 3588 3570 4077 4300 3550 4375 3777 3926 3937 3344 2792 2924 2522 3037
2348 2151 2164 1861 1937 1932 1828 2202 2616 2512 2708 2413 2116 2671 2568 2745 2529 3043 3170 3377 3796 3640 3967 3907 4231 4150 4036 3748 4171 4086 3848 4090 3698 3050 4021 3830 3852 3798 2842 3105 2775 3630
2424 2560 2423 2006 1835 2087 1043 1695 2488 2775 2738 2291 2148 2931 2735 2350 2637 2636 3694 3207 3331 3285 4139 4012 4148 4307 4107 4118 4323 4183 4181 4152 3894 3278 3784 3901 4033 3806 4013 2360 2852 2829
2560 2435 2072 1650 1619 1863 1549 1629 2279 2786 2161 2431 1883 1682 2165 1613 2141 2763 3243 3489 3570 3773 3716 3643 3765 3782 4033 4000 4127 4044 4115 4353 4098 4104 3927 4021 4133 3846 3557 3784 3616 3165
2504 2520 2126 1799 1946 2211 2084 1859 1567 2358 2152 2155 1996 1610 2002 2766 2554 2815 2945 3212 3679 3700 3823 3790 3920 3820 4096 4086 3986 3993 3823 4026 4060 4290 4106 4078 4370 4190 3650 3656 3892 3691
2624 2411 2728 2714 2486 2687 2673 2230 2115 2020 2103 1723 2193 1852 1749 2878 2750 2595 2785 2829 3005 2905 2883 3066 3507 3424 3796 4003 4090 4008 3564 3151 3501 4161 3936 4045 3709 3723 3431 3714 3688 3859
2682 2850 2653 2722 2435 2815 2862 2672 2373 2386 2230 1972 2224 2072 1644 1822 2685 2604 3013 3011 2656 2859 2822 2787 3378 3432 3309 3630 3835 4193 4257 3779 3603 3840 3907 4066 4282 4120 3342 3472 4012 3768
2654 2584 2662 2693 2437 2466 2616 2901 2684 2687 2760 2598 2279 2610 2078 1523 2283 2497 2984 3093 3012 3027 2982 3019 3445 3662 3304 3520 3807 4078 3990 3466 3536 4240 3932 4022 4172 4231 4064 3630 3848 4020
2806 2606 2662 2637 2365 2259 2200 2340 2692 2624 2807 2953 2260 2113 2364 1766 2132 2091 2708 3239 3151 3286 3269 3124 3458 3556 3227 3243 3567 3888 3897 3371 3020 3345 3777 3751 3984 4148 3958 3739 3719 3912
2894 2816 2356 2446 2199 1995 2134 2220 2567 2474 2876 2979 2366 1948 2134 2285 2264 2209 3057 3456 3325 3452 3412 2905 3510 3278 3160 3150 3413 3716 3743 3714 3328 3380 3253 3410 3662 3805 3764 3866 3728 3712
2540 2634 2585 2400 2072 2094 2311 2252 2610 2540 2534 2671 2483 1759 2000 2063 2581 2662 3108 3521 3209 3368 3477 2899 3148 3108 3036 2765 3119 3296 3596 3543 3357 3530 3477 3452 3536 3791 3995 3685 3718 3649
2961 2708 2540 2364 2429 2225 2160 2251 2295 2558 2555 2746 2398 1976 2021 1975 2466 2737 2981 3363 3035 3081 3402 3204 2999 3061 3116 2943 2741 2896 3368 3435 3528 3476 3207 3436 3544 3612 3622 3607 3582 3525
2987 2479 2890 2704 2563 2124 2216 2252 2242 2438 2488 2428 2560 2228 1805 1747 1898 2551 2891 3312 3223 3130 3122 3450 3356 3244 3412 3424 3048 2697 2942 3256 3149 3385 3240 3206 3216 3226 3205 3353 3387 3483
2964 2844 2750 2785 2616 2648 2656 2494 2287 2310 2700 2686 2532 2386 1646 1817 1962 2319 2926 3112 3351 3241 3194 3551 3817 3626 3757 3839 3642 3174 2910 3120 3031 3116 3145 3229 2979 3151 3144 3031 3369 3368
3262 2930 2982 3016 2925 2941 2782 2614 2565 2609 2673 2854 2866 2529 1999 1658 2038 2250 2734 3055 3437 3392 3311 3474 3844 3834 3804 3998 3911 3644 3021 2896 3059 3013 3128 3154 3227 3018 3145 3232 3121 3036
3418 3176 3106 3102 3084 3173 3029 2993 2976 2773 2305 2730 2960 2729 2562 2171 1894 2633 2667 2820 3368 3823 3732 3529 3635 3775 3672 3549 3634 3677 3281 2575 3048 3247 3113 2978 3331 3237 3068 3216 2973 2692
3729 3374 3273 3305 3275 3321 3349 3211 3086 2802 2572 2546 2927 2912 2713 2744 2350 2476 2711 2720 2934 3392 3655 3495 3555 3593 3617 3558 3582 3440 3272 2972 2979 3537 3564 3406 3218 3449 3309 3001 2872 2874
3887 3705 3545 3616 3681 3660 3520 3337 3144 3099 2821 2721 2912 2952 3059 2959 2718 2505 2469 2818 2815 2958 3172 3487 3624 3574 3727 3684 3668 3644 3336 3237 2912 3217 3539 3583 3468 3128 3363 3184 2911 2556
4164 3982 3832 3772 3850 3836 3782 3483 3302 3308 3001 2762 2800 3076 3390 3254 2876 2667 2627 2642 2904 3060 3152 3543 3786 3373 3397 3533 3613 3646 3486 3218 2917 2617 2620 3130 3258 3265 3075 3146 3086 2992
4485 4243 4091 3957 3993 3995 3976 3660 3337 3392 3013 2714 2575 2981 3422 3519 3319 2864 2766 2824 2883 3353 3224 3291 3505 3240 3102 3318 3500 3559 3474 3253 3402 2920 2594 2542 3118 3475 3264 3272 3532 3459
4703 4511 4304 4164 4152 4105 4114 3886 3524 3455 3247 2554 2253 2749 3526 3724 3386 3009 2966 3017 2896 3409 3613 3104 3118 3184 3120 3084 3309 3395 3368 3227 3354 3266 2797 2553 2738 3316 3697 3584 3592 3744
4813 4720 4512 4293 4288 4204 4248 4139 3793 3620 3489 2989 2447 2294 3018 3881 3916 3233 3148 3156 2987 2852 2822 3247 2722 2712 2913 2903 3000 3134 3141 3110 3095 3382 3026 2780 2842 2992 3510 4048 4037 3922
4975 4932 4776 4464 4357 4250 4284 4221 3946 3786 3669 3403 3034 2654 2946 3521 3683 3347 3324 3165 2930 2942 2815 2972 3109 2638 2716 2758 2795 2875 2956 2929 3076 3186 3071 2822 2910 3656 3913 4137 4203 4211
5226 5088 4929 4697 4548 4296 4318 4205 4106 3799 3570 3554 3353 3007 2675 2969 3495 3726 3612 3260 2839 2867 2938 3048 3171 3575 2661 2726 2796 2809 2766 2828 3009 3267 3148 2892 2925 3124 3613 4308 4264 4291
5336 5125 4915 4787 4905 4647 4209 4782 4375 3853 3518 3612 3228 2968 2832 3338 3690 3825 3758 3623 3160 3075 2889 3119 2890 4487 2516 2572 2704 2794 2843 2934 3273 3391 3376 3216 3152 3098 3309 3587 3876 4201
5082 5191 5061 4732 5101 5183 5003 4889 4631 3937 3700 3683 3302 3007 2782 2955 3440 3804 4075 3878 3182 3407 3660 3519 3186 4050 3023 2536 2562 2718 2842 3030 3540 3562 3355 3401 3399 3458 3556 3531 3408 3597

ECMWFNIL_con_mucape_087.txt.gz
CAPE
258 461 318 304 291 842 339 479 416 688 1101 767 1739 2027 2107 2496 2147 2274 2914 2888 2641 2809 3206 2280 3020 2732 2929 2986 2846 3609 3632 2800 2953 3043 2821 3093 2982 3047 3077 2572 1786 1904
331 473 651 332 349 741 841 653 627 432 1166 1148 1387 1448 1818 2163 2346 2206 2805 2890 2917 2729 2842 3237 2909 2789 3041 2925 2862 2516 3125 3369 3104 3026 2711 3398 3106 2983 2954 2721 1964 2175
487 516 576 419 381 409 1199 1064 993 617 909 1340 1486 1569 1518 1948 2016 2400 2480 2705 2899 2763 2722 3220 2942 2954 2900 2989 3098 3006 2796 3206 2579 3021 2712 2894 2822 2996 3164 3269 2666 3002
593 540 568 490 403 376 694 1461 1406 1134 1104 1315 1535 1697 1551 1555 1736 1897 2420 3384 2727 2719 2903 2895 3254 3128 3085 3119 3068 3194 3101 3093 2946 2816 3319 2997 3162 2879 2815 2694 3024 2795
692 584 530 534 414 487 323 1065 1627 1448 1414 1376 1456 1702 1709 1418 1640 1458 2634 2840 2626 2709 2946 2942 3172 3154 3162 3229 3214 2919 3230 3070 3301 3136 3315 3130 2900 3121 3101 3090 3096 3089
758 686 587 504 439 525 436 430 1143 1656 1543 1533 1367 1484 1833 1443 1500 1481 2012 2484 2593 2697 2906 3031 3098 3182 3290 3103 3369 2922 3031 3156 3150 3270 3226 3212 3273 3074 3016 2832 2751 3031
861 820 739 600 501 543 565 437 592 1315 1606 1562 1482 1131 1548 1631 1340 1584 1494 2314 2604 2690 2879 2942 3034 3135 3264 3070 3142 3045 2894 3171 3012 3163 3082 3108 3191 3121 3022 2907 2787 2650
855 910 940 732 608 620 736 584 614 883 1389 1416 1550 1291 972 1356 1543 1652 1568 2003 2357 2580 2790 2850 2867 2994 3192 3050 3090 2921 2869 3016 2809 2989 2897 2722 2948 2934 3228 3051 3102 2655
836 966 984 928 728 718 880 856 763 828 1208 1308 1380 1465 1149 921 1689 1678 1796 1818 1955 2314 2495 2703 2760 2753 3002 2954 2958 3022 2805 3012 2846 3059 2871 2794 2948 2946 2944 3017 3183 3129
986 948 1031 1029 902 847 1002 1132 1075 1008 1255 1386 1273 1405 1376 1023 1294 1731 1966 1880 1860 1965 2212 2356 2504 2624 2668 2807 2828 2897 2876 2914 2832 2934 2930 2753 2948 3088 3139 3120 2925 2877
1251 1058 1018 1101 1106 1019 1125 1320 1432 1347 1381 1561 1448 1380 1469 1277 1072 1598 1982 2074 2008 2063 2103 2252 2328 2470 2563 2580 2705 2735 2842 2861 2811 2619 2782 2792 2761 2967 3566 3208 3130 2824
1479 1244 1108 1075 1162 1172 1232 1378 1538 1618 1561 1698 1717 1522 1553 1475 1149 1278 1768 2164 2184 2237 2252 2205 2328 2395 2476 2466 2533 2684 2735 2810 2824 2698 2447 2638 2791 2792 3091 3164 3168 3135
1626 1395 1209 1151 1177 1169 1229 1357 1444 1683 1721 1726 1867 1725 1593 1616 1384 1235 1510 1958 2205 2277 2413 2300 2270 2385 2386 2376 2359 2500 2674 2758 2770 2717 2649 2420 2374 2581 2857 3105 3109 3110
1730 1573 1384 1232 1223 1253 1267 1368 1455 1703 1829 1779 1854 1878 1660 1614 1573 1341 1417 1812 2132 2222 2370 2438 2259 2316 2327 2251 2224 2283 2494 2644 2670 2645 2580 2635 2533 2460 2600 2820 2982 3024
1782 1692 1576 1444 1436 1419 1393 1440 1488 1717 2040 1994 1941 1922 1774 1615 1576 1544 1542 1751 2130 2220 2268 2429 2352 2171 2243 2227 2117 2124 2253 2436 2531 2591 2556 2497 2542 2596 2638 2700 2762 2783
1882 1791 1723 1693 1602 1504 1465 1552 1654 1777 2069 2155 2094 2036 1907 1670 1576 1584 1702 1798 2055 2212 2209 2308 2409 2189 2148 2208 2138 2085 2119 2226 2394 2456 2538 2536 2453 2397 2453 2575 2638 2692
2075 1960 1840 1826 1800 1649 1565 1629 1731 1810 2014 2221 2182 2123 2012 1754 1569 1512 1713 1891 2052 2190 2153 2161 2365 2464 2218 2163 2193 2120 2105 2098 2169 2269 2299 2383 2451 2422 2356 2382 2490 2574
2379 2223 2012 1942 1946 1856 1702 1708 1838 1856 1936 2207 2279 2200 2087 1834 1534 1492 1636 1847 2076 2269 2224 2151 2220 2442 2506 2312 2269 2230 2182 2240 2130 2123 2128 2139 2241 2402 2443 2391 2422 2520
2701 2395 2246 2070 2054 2011 1860 1774 1861 1919 1925 2080 2277 2271 2118 1919 1607 1526 1791 1855 2057 2347 2396 2296 2250 2367 2585 2574 2470 2429 2371 2283 2206 2156 2207 2155 2127 2198 2376 2496 2453 2455
2794 2420 2415 2250 2172 2124 2027 1902 1876 1986 1988 1984 2198 2264 2167 1967 1746 1576 1879 2038 2124 2351 2589 2560 2454 2434 2602 2712 2674 2632 2602 2480 2265 2163 2161 2333 2345 2302 2314 2443 2563 2510
2834 2539 2540 2400 2323 2268 2209 2086 1953 2027 2094 2006 2036 2250 2215 2054 1930 1749 1751 2111 2191 2280 2579 2765 2719 2658 2660 2739 2782 2758 2748 2702 2440 2220 2030 2083 2448 2574 2505 2444 2506 2597
2899 2683 2634 2517 2464 2432 2386 2298 2139 2093 2210 2171 1977 2115 2245 2157 2069 1927 1778 1908 2241 2291 2354 2632 2796 2816 2772 2766 2800 2785 2777 2776 2666 2450 2191 1985 1986 2332 2653 2605 2490 2473
3156 2958 2764 2628 2579 2595 2565 2499 2348 2201 2223 2285 2114 1949 2207 2208 2135 2026 1898 1801 1924 2359 2376 2406 2646 2886 2896 2863 2880 2920 2889 2823 2760 2636 2464 2316 2229 2075 2242 2590 2640 2515
3304 3148 2959 2807 2696 2690 2711 2684 2557 2340 2249 2324 2259 2012 2001 2304 2256 2141 2025 1916 1806 1896 2459 2450 2454 2697 2988 2998 2996 3054 3086 3046 2971 2785 2675 2493 2351 2357 2402 2827 3037 3552
3437 3339 3162 2999 2862 2786 2784 2809 2766 2570 2312 2290 2289 2103 1885 2258 2492 2351 2232 2149 1988 1858 1882 2390 2525 2507 2684 2939 2968 2957 2940 2894 2816 2720 2650 2586 2437 2248 2156 2164 2382 3559
3576 3511 3357 3190 3063 2939 2882 2883 2878 2768 2501 2322 2292 2184 1927 1894 2553 2532 2450 2366 2291 2179 2035 1928 2068 3067 2546 2435 2734 2824 2857 2821 2738 2626 2576 2571 2515 2366 2117 1913 1844 1917

ECMWFNIL_con_mucape_090.txt.gz
CAPE
17 2 156 10 0 0 16 30 72 448 960 1137 1439 1457 1462 2048 2029 2382 2386 2363 2501 2572 2615 2525 2478 2529 2328 2261 2191 2634 3137 3218 2956 2907 2965 2985 2671 2448 2660 2684 2071 1401
23 13 238 110 0 20 0 5 12 220 830 1143 1254 1326 1297 1680 1976 2136 2433 2399 2405 2458 2511 2434 2282 2239 1841 2396 2320 2580 3037 3073 3038 3061 3083 2959 2648 2540 2654 2674 2654 2537
2 35 32 128 49 12 5 0 0 92 507 997 1233 1272 1264 1540 1741 2030 2237 2440 2402 2372 2518 2523 2216 2139 2060 2287 2484 2613 2762 2759 2705 2857 2894 2800 2655 2591 2556 2598 2801 2674
0 22 13 48 107 58 24 0 0 0 178 743 1183 1347 1359 1638 1672 1826 2087 2791 2396 2343 2344 2544 2229 2150 2236 2217 2344 2520 2596 2611 2491 2593 2670 2465 2530 2602 2646 2704 2788 2743
23 0 28 5 12 78 135 38 0 1 20 255 664 1300 1393 1590 1809 1773 1855 2303 2381 2332 2229 2371 2458 2278 2296 2356 2299 2204 2340 2526 2512 2520 2523 2348 2403 2504 2511 2536 2578 2712
107 10 23 24 0 0 128 195 76 51 10 69 359 712 1301 1514 1729 1869 1847 2022 2338 2341 2247 2192 2494 2420 2326 2352 2411 2348 2394 2303 2470 2471 2540 2531 2346 2512 2542 2578 2694 2771
192 79 11 22 13 0 14 198 229 246 94 48 232 643 790 829 1078 1425 1800 1967 2210 2295 2287 2209 2301 2495 2441 2373 2452 2390 2434 2500 2408 2543 2489 2665 2765 2608 2638 2617 2619 2633
253 172 76 39 42 10 9 32 296 445 324 222 220 437 859 833 714 822 1078 1724 2140 2206 2231 2283 2229 2432 2556 2428 2518 2490 2424 2593 2542 2534 2543 2502 2722 2780 2631 2555 2564 2518
320 281 191 97 62 32 25 3 53 437 642 520 431 423 748 966 874 774 838 1106 1856 2139 2192 2261 2308 2380 2551 2564 2539 2623 2569 2552 2611 2582 2608 2535 2603 2753 2736 2638 2587 2550
410 360 305 225 136 73 40 26 2 74 641 798 710 607 635 898 1026 913 890 909 1309 1902 2123 2229 2342 2416 2539 2643 2599 2626 2680 2646 2612 2610 2636 2614 2558 2620 2673 2739 2708 2696
553 429 386 328 242 134 72 53 32 9 151 689 827 802 758 718 936 1096 1044 1020 1085 1495 1936 2165 2294 2400 2513 2659 2693 2676 2683 2678 2645 2627 2661 2692 2628 2548 2798 2556 2659 2751
926 656 452 404 338 235 123 76 72 42 28 262 621 785 858 814 717 925 1170 1191 1136 1245 1649 2000 2208 2335 2431 2574 2681 2713 2701 2641 2569 2558 2612 2679 2671 2605 2500 2539 2454 2544
1186 1019 782 458 446 370 230 137 118 104 72 106 405 580 729 888 868 748 943 1240 1283 1238 1377 1731 2017 2217 2344 2419 2548 2661 2704 2685 2584 2499 2481 2526 2637 2647 2598 2603 2632 2538
1349 1237 1116 905 562 463 382 254 203 213 196 157 314 519 584 717 906 886 822 1071 1320 1361 1357 1491 1763 1996 2197 2324 2381 2489 2606 2649 2642 2582 2525 2445 2446 2582 2672 2629 2652 2732
1484 1386 1326 1222 1026 691 497 412 334 339 387 386 430 562 692 694 804 906 886 947 1248 1441 1471 1513 1603 1774 1958 2134 2265 2325 2391 2513 2575 2571 2517 2468 2387 2334 2406 2556 2589 2656
1670 1570 1500 1454 1342 1128 817 546 490 498 572 667 654 676 762 841 855 943 930 918 1093 1426 1588 1657 1724 1742 1904 1983 2091 2180 2246 2324 2438 2490 2496 2440 2391 2326 2272 2275 2369 2484
1893 1802 1735 1750 1674 1511 1287 946 653 659 704 816 915 926 963 1028 1042 1043 1063 992 988 1235 1578 1747 1870 1910 1892 1960 2064 2124 2131 2188 2276 2400 2435 2420 2355 2299 2280 2287 2270 2239
2158 2112 2119 2149 2091 1929 1664 1325 944 753 803 888 1046 1146 1161 1199 1224 1171 1182 1160 1086 1102 1364 1658 1843 1984 2026 2009 2052 2115 2125 2101 2131 2208 2312 2355 2342 2275 2194 2166 2236 2312
2569 2502 2483 2484 2469 2309 2032 1686 1297 864 859 933 1107 1290 1344 1344 1356 1304 1262 1272 1252 1198 1247 1498 1704 1858 2047 2091 2068 2093 2133 2114 2034 2040 2100 2205 2269 2274 2206 2103 2054 2116
2802 2749 2733 2745 2734 2620 2403 2071 1658 1232 960 1006 1153 1428 1533 1506 1468 1426 1347 1308 1339 1341 1337 1452 1633 1759 1944 2080 2120 2111 2121 2136 2044 1931 1903 1990 2097 2168 2202 2203 2169 2084
2945 2914 2912 2929 2924 2898 2776 2456 2021 1531 1107 1174 1265 1440 1651 1709 1658 1568 1461 1382 1379 1426 1446 1511 1634 1760 1873 2027 2136 2160 2138 2110 2053 1935 1845 1852 1922 2002 2071 2122 2179 2195
3023 3017 3033 3072 3070 3030 2978 2824 2439 1882 1351 1243 1400 1526 1724 1822 1819 1729 1624 1506 1432 1448 1523 1624 1730 1801 1876 1958 2079 2171 2185 2130 2030 1930 1832 1799 1834 1891 1958 2001 2019 2044
3168 3171 3164 3164 3142 3108 3089 3004 2801 2367 1736 1352 1479 1555 1716 1884 1924 1889 1798 1668 1547 1492 1540 1655 1798 1894 1952 1958 1998 2091 2168 2180 2106 2003 1877 1793 1824 1863 1964 2070 2104 2073
3316 3329 3315 3276 3215 3168 3162 3125 2996 2747 2316 1617 1543 1616 1701 1872 1974 1990 1946 1846 1725 1597 1574 1679 1804 2003 2071 2083 2059 2059 2079 2120 2144 2097 2022 1961 1959 1981 1971 1992 2131 2850
3432 3418 3388 3336 3276 3241 3233 3171 3079 2937 2670 2144 1628 1668 1725 1815 1994 2049 2052 2008 1932 1804 1708 1818 1852 2072 2202 2248 2205 2150 2125 2098 2075 2082 2088 2128 2164 2189 2179 2139 2084 2534
3433 3424 3396 3350 3308 3291 3258 3197 3127 3001 2814 2537 1988 1729 1773 1804 1926 2043 2074 2084 2059 2001 1884 1871 1961 2052 2238 2423 2430 2333 2247 2191 2123 2099 2116 2196 2266 2317 2320 2304 2279 2213

ECMWFNIL_con_mucape_093.txt.gz
CAPE
26 0 0 0 0 0 88 715 930 1009 1069 1297 1528 1716 1812 1854 2045 2304 2485 2519 2445 2310 2359 2411 2397 2347 2404 2457 2387 2270 2285 2383 2550 2657 2775 2637 2464 2399 2404 2474 2405 1860
16 8 41 0 0 0 1 35 647 837 894 1020 1232 1469 1566 1584 1844 2258 2378 2483 2458 2400 2375 2454 2502 2520 2504 2434 2377 2299 2234 2488 2628 2834 2931 2753 2585 2447 2430 2419 2538 2620
13 2 2 0 0 0 0 0 1 79 711 809 954 1159 1352 1374 1652 2063 2266 2374 2443 2477 2481 2500 2526 2537 2517 2461 2396 2391 2286 2343 2589 2886 3034 2927 2818 2673 2434 2341 2381 2500
1 0 0 11 0 0 0 0 0 0 71 334 811 978 1203 1292 1467 1863 2132 2550 2350 2411 2463 2477 2481 2496 2470 2376 2263 2170 2163 2280 2486 2766 3010 2984 2988 2901 2637 2366 2398 2587
0 0 0 2 3 0 0 0 0 0 11 139 387 835 1076 1202 1296 1600 1923 2135 2268 2287 2306 2332 2368 2414 2399 2300 2148 2061 2219 2326 2480 2687 2765 2770 2814 2789 2649 2465 2487 2571
0 0 0 0 1 0 0 0 0 0 0 55 210 696 992 1106 1190 1369 1692 1946 2152 2220 2226 2239 2299 2365 2384 2330 2177 2034 2169 2340 2511 2593 2561 2510 2526 2474 2443 2476 2467 2441
10 0 0 0 0 0 0 0 0 0 0 5 116 367 880 1041 1127 1239 1391 1664 1919 2128 2176 2204 2238 2298 2335 2327 2224 2037 2084 2232 2367 2450 2437 2392 2389 2364 2320 2358 2433 2408
57 0 0 0 0 0 0 0 0 0 0 0 11 151 512 952 1074 1185 1273 1359 1590 1904 2091 2148 2179 2208 2240 2256 2148 2068 2114 2157 2213 2323 2419 2418 2430 2436 2384 2338 2392 2477
30 17 0 0 0 0 0 0 0 0 0 0 0 4 215 786 973 1098 1241 1349 1436 1637 1893 2040 2100 2129 2144 2209 2198 2116 2120 2150 2198 2222 2277 2376 2421 2454 2449 2478 2527 2536
19 7 1 0 0 0 0 0 0 0 7 0 0 0 5 232 670 924 1095 1266 1425 1573 1729 1891 2004 2072 2089 2129 2194 2173 2124 2105 2157 2248 2272 2257 2295 2309 2304 2407 2538 2601
74 24 11 1 0 0 0 0 0 0 7 41 18 0 0 18 227 230 435 927 1156 1375 1618 1776 1889 1990 2055 2091 2154 2178 2144 2126 2127 2183 2270 2316 2303 2250 2427 2215 2367 2523
228 127 58 19 2 0 0 0 0 0 0 9 97 65 27 12 69 249 330 226 272 596 1041 1464 1708 1861 1984 2056 2117 2186 2207 2210 2232 2247 2285 2342 2372 2372 2315 2245 2260 2399
664 650 599 102 41 4 0 0 0 0 0 0 32 142 137 111 93 151 405 382 312 321 481 952 1379 1676 1866 1993 2080 2159 2234 2266 2301 2338 2376 2392 2411 2456 2476 2435 2378 2358
767 783 774 729 674 366 21 0 0 0 0 0 0 28 163 194 190 167 221 459 466 432 441 631 1026 1407 1692 1876 2000 2116 2221 2294 2331 2358 2386 2404 2440 2474 2517 2548 2560 2545
830 874 898 910 912 900 773 157 8 0 0 0 0 0 27 141 212 234 219 282 481 659 646 680 842 1155 1480 1717 1888 2015 2143 2256 2329 2377 2376 2379 2392 2407 2433 2476 2528 2563
872 932 983 1016 1041 1074 1078 1008 825 231 0 0 0 0 0 17 93 186 266 261 306 531 743 814 853 993 1355 1568 1758 1883 2006 2137 2246 2309 2359 2369 2368 2358 2360 2348 2328 2353
931 995 1059 1089 1111 1157 1208 1220 1171 1039 816 300 0 0 0 6 58 86 184 287 304 334 532 794 931 991 1123 1354 1622 1804 1873 1980 2088 2184 2270 2341 2352 2358 2346 2310 2270 2247
1154 1070 1118 1172 1203 1236 1292 1329 1322 1279 1188 1032 779 121 4 3 34 78 114 195 290 333 399 602 837 989 1082 1186 1371 1620 1795 1850 1923 2001 2104 2202 2268 2303 2306 2279 2232 2174
1320 1285 1264 1265 1295 1320 1370 1413 1422 1396 1367 1309 1155 947 578 74 87 103 152 187 265 319 372 504 742 926 1078 1160 1231 1360 1594 1758 1781 1860 1928 2008 2102 2165 2196 2199 2186 2142
1561 1502 1468 1430 1429 1414 1467 1523 1530 1516 1513 1568 1528 1385 1111 767 396 228 234 265 323 362 422 463 548 826 1038 1171 1243 1297 1385 1551 1644 1723 1776 1842 1920 2004 2063 2098 2118 2104
1819 1735 1684 1648 1635 1586 1615 1635 1629 1661 1693 1930 1932 1804 1570 1269 839 453 419 479 487 522 522 544 587 755 921 1118 1257 1347 1396 1450 1504 1589 1664 1719 1779 1852 1935 2002 2037 2040
2051 1972 1906 1891 1849 1786 1794 1810 1825 1838 1910 2248 2472 2266 2033 1730 1295 932 664 679 679 668 718 758 771 792 864 991 1172 1327 1439 1510 1560 1574 1625 1687 1721 1762 1823 1895 1953 1994
2244 2147 2105 2076 2051 2023 1993 2035 2043 2074 2144 2368 2745 2737 2464 2055 1653 1214 862 844 869 870 869 883 906 929 950 977 1054 1202 1353 1483 1577 1628 1664 1691 1717 1734 1765 1813 1856 1890
2199 2309 2288 2294 2254 2242 2264 2289 2299 2312 2316 2529 2842 2897 2709 2396 1972 1546 1146 945 1008 1017 1002 988 988 1010 1047 1077 1103 1138 1209 1290 1409 1496 1573 1637 1692 1738 1751 1791 1817 2248
2093 2188 2533 2723 2712 2621 2580 2541 2526 2478 2624 2773 2929 2983 2944 2808 2397 1872 1364 1119 1154 1134 1118 1097 1069 1065 1098 1147 1197 1236 1256 1284 1299 1328 1380 1485 1573 1654 1728 1779 1816 2158
1838 2566 2804 2898 2885 2838 2776 2714 2644 2504 2794 2887 2986 3058 3014 2958 2826 2550 1984 1339 1276 1325 1292 1236 1203 1176 1171 1192 1244 1302 1348 1361 1370 1351 1339 1379 1461 1551 1632 1699 1756 1798

ECMWFNIL_con_mucape_096.txt.gz
CAPE
138 76 20 10 4 106 737 857 1186 1333 1383 1418 1574 1744 1831 1960 2124 2337 2558 2669 2677 2639 2569 2457 2360 2354 2542 2495 2536 2328 2512 2312 2475 2327 2298 2384 2529 2524 2287 2196 2171 2191
141 92 156 16 1 81 574 735 796 1010 1101 1139 1273 1471 1661 1767 1893 2071 2274 2404 2492 2504 2485 2432 2331 2354 2418 2390 2375 2345 2281 2403 2530 2699 2566 2445 2572 2640 2396 2320 2457 2291
154 90 89 17 0 0 4 660 643 726 834 912 1019 1210 1425 1592 1715 1820 1961 2158 2298 2395 2441 2407 2322 2310 2392 2450 2468 2425 2358 2341 2373 2621 2886 2734 2627 2739 2682 2288 2262 2313
187 120 66 35 2 0 0 8 105 207 367 709 822 966 1134 1324 1467 1582 1756 2624 2176 2293 2376 2393 2341 2324 2372 2440 2466 2418 2362 2313 2345 2384 2684 2792 2728 2825 2866 2700 2482 2497
211 132 75 55 12 0 0 0 5 50 155 370 487 764 1058 1177 1247 1380 1598 1896 2132 2189 2276 2332 2352 2365 2364 2383 2400 2360 2280 2225 2237 2324 2486 2619 2641 2727 2806 2780 2753 2506
219 162 127 54 26 1 0 0 0 0 39 118 299 617 778 916 1071 1236 1440 1633 1935 2074 2179 2226 2288 2347 2362 2346 2325 2321 2253 2219 2302 2265 2347 2485 2526 2481 2549 2545 2541 2423
201 120 75 38 6 0 0 0 0 6 0 46 143 344 630 769 908 1073 1241 1467 1708 2049 2064 2129 2180 2234 2285 2287 2278 2290 2241 2172 2204 2241 2373 2417 2394 2405 2373 2316 2317 2285
183 87 66 30 2 0 0 0 0 0 0 1 32 135 419 671 798 939 1098 1253 1497 1759 1993 2009 2056 2112 2140 2185 2234 2254 2253 2205 2151 2178 2272 2352 2280 2326 2293 2228 2260 2290
178 85 30 8 0 0 0 0 0 0 0 0 0 33 243 491 659 798 963 1100 1279 1540 1759 1917 1930 1984 2026 2107 2161 2210 2221 2198 2151 2087 2219 2297 2237 2327 2320 2254 2236 2282
198 79 7 0 0 0 0 0 0 0 0 0 0 0 79 370 558 690 856 976 1087 1305 1518 1744 1858 1870 1918 1994 2128 2149 2156 2132 2126 2105 2122 2198 2270 2292 2274 2289 2309 2329
223 106 14 0 0 0 0 0 0 0 0 0 0 0 0 107 453 595 725 865 1011 1138 1266 1484 1693 1806 1843 1895 2014 2093 2104 2094 2080 2109 2158 2193 2201 2186 2395 2265 2277 2353
209 140 57 1 0 0 0 0 0 0 0 0 0 0 0 0 90 362 594 674 859 1024 1148 1300 1476 1658 1756 1864 1924 2009 2057 2079 2094 2080 2091 2172 2196 2170 2206 2300 2264 2292
162 128 95 20 0 0 0 0 0 0 0 0 8 0 0 0 0 58 346 438 545 733 928 1170 1332 1504 1639 1736 1814 1907 2029 2088 2070 2080 2120 2103 2147 2183 2193 2166 2195 2191
217 124 73 35 4 0 0 0 0 0 0 0 0 14 11 1 0 0 37 246 272 322 479 729 1012 1271 1461 1609 1705 1821 1947 2059 2120 2167 2159 2165 2176 2222 2217 2236 2246 2232
348 237 113 55 46 2 0 0 0 0 0 0 0 0 1 15 14 0 3 65 176 220 230 290 414 681 1010 1307 1507 1712 1861 1945 2078 2159 2199 2239 2230 2198 2218 2252 2270 2267
492 413 303 177 76 234 217 1 0 0 0 0 0 0 0 0 0 20 23 28 76 179 248 266 306 373 564 524 935 1382 1635 1792 1942 2073 2134 2216 2283 2225 2170 2133 2182 2231
557 534 484 361 572 630 655 665 700 724 705 646 0 0 0 0 0 0 14 28 38 78 204 304 350 355 181 1 1 810 1260 1570 1751 1922 2106 2220 2226 2250 2229 2187 2117 2124
652 598 558 553 567 631 700 745 764 795 837 860 869 818 738 261 0 0 0 13 50 87 126 226 333 289 1 0 0 0 789 1327 1649 1806 1963 2089 2198 2215 2229 2217 2185 2055
750 692 640 633 650 664 698 738 786 822 885 917 950 1002 1006 944 826 646 42 0 19 73 109 149 234 128 0 0 0 0 0 854 1407 1632 1771 1907 2045 2148 2194 2225 2219 2214
842 774 749 757 783 778 767 783 817 881 925 954 996 1059 1093 1126 1128 1063 942 773 406 18 73 117 165 81 0 0 0 0 0 141 1012 1458 1645 1760 1815 1991 2045 2158 2162 2161
914 900 936 932 880 882 876 882 910 976 1001 1021 1083 1155 1208 1247 1267 1243 1236 1151 1019 836 505 68 98 10 0 0 0 0 0 23 651 1197 1440 1593 1711 1785 1869 2022 2065 2080
965 985 993 1012 1032 1016 987 1020 1055 1096 1131 1148 1282 1339 1387 1376 1410 1398 1412 1397 1347 1242 1072 833 169 0 0 0 0 0 0 0 474 830 1218 1444 1570 1626 1714 1811 1924 1980
1154 1147 1135 1080 1106 1146 1206 1256 1284 1270 1263 1260 1419 1553 1605 1604 1593 1542 1703 1784 1755 1603 1461 1277 977 715 0 0 0 0 0 0 161 581 974 1259 1421 1528 1604 1660 1799 1783
1667 1612 1545 1539 1497 1317 1326 1387 1399 1403 1453 1439 1528 1636 1706 1751 1787 1704 2022 2275 2387 2301 2093 1760 1421 1109 661 0 0 0 0 9 173 448 804 1030 1268 1428 1528 1588 1623 2038
1956 1864 1754 1675 1504 1472 1520 1588 1523 1444 1430 1480 1568 1614 1584 1753 1926 1897 2133 2447 2622 2593 2434 2195 1854 1496 1107 783 32 0 0 57 268 479 721 931 1152 1318 1450 1540 1540 1843
2085 1978 1840 1789 1786 1769 1781 1830 1747 1536 1432 1495 1576 1563 1431 1508 1718 1729 1918 2312 2651 2809 2758 2528 2180 1820 1455 1109 770 200 0 51 358 550 779 927 1104 1242 1388 1473 1528 1527

ECMWFNIL_con_mucape_099.txt.gz
CAPE
1789 1776 1653 1604 1655 1676 2051 2414 2430 2698 3101 2926 3145 3323 3409 3714 3806 3812 3545 3352 3324 3544 3876 4049 4098 3943 3770 3889 4035 3867 3774 3622 3214 3482 3472 3342 3297 3186 2917 2995 2819 2824
1697 1698 1745 1541 1754 1878 2104 2198 2634 2800 3113 3167 3079 3307 3506 3523 3575 3551 3629 3398 3354 3371 3588 3783 3958 3940 3868 3675 4098 3956 4046 3966 3865 3470 3668 3626 3195 3111 2887 3058 2711 3183
1577 1598 1546 1419 1299 1325 1139 1643 2350 2624 2733 2745 2888 3224 3283 3210 3224 3345 3518 3677 3555 3470 3617 3688 3773 3888 3760 3719 3950 4001 3868 4178 3902 3459 3946 3846 3420 3234 3214 2675 2666 2855
1636 1522 1315 1235 1200 1225 1185 1536 1894 2290 2294 2574 2591 2544 2696 2580 2894 3128 3347 3434 3627 3726 3784 3734 3674 3552 3830 3771 3902 3661 3977 4190 3769 4135 4191 4233 4212 3557 3334 3396 3216 3146
1536 1521 1356 1319 1243 1285 1297 1226 1195 1570 1767 2021 2178 2365 2678 2820 2934 2776 3048 3246 3470 3628 3771 3807 3868 3724 3912 3838 3917 3716 3565 3688 3981 4215 4117 4224 4368 4205 3664 3589 3674 3392
1563 1589 1539 1398 1393 1378 1121 1038 1125 1258 1449 1532 1942 1967 2144 2617 2570 2629 2796 2829 3090 3065 3088 3377 3656 3599 3670 3811 3929 3789 3468 3114 3132 4108 3987 3852 3428 3465 3409 3782 3768 3592
1441 1514 1359 1269 1243 1188 1082 1007 1059 1141 1107 1199 1664 1781 1912 2047 2391 2541 2693 2699 2642 2931 2971 3291 3799 3686 3697 3816 3929 3987 3977 3870 3740 4044 3888 3595 3851 3883 3588 3924 4011 3819
1288 1262 1300 1241 1111 1090 1015 967 982 1034 1079 1190 1237 1481 1701 1686 2047 2194 2488 2581 2518 2815 3142 3310 3802 3890 3614 3599 3838 3826 3879 3572 3671 3964 4027 3798 3977 3913 4201 3935 4087 4104
1272 1284 1242 1198 1055 1001 880 813 864 913 986 1004 804 926 1400 1453 1691 1756 2369 2597 2487 2754 3239 3295 3694 3660 3457 3551 3625 3745 3696 3296 3219 3542 3626 3532 3686 3851 3600 3871 3891 3884
1375 1242 1054 1026 934 910 851 788 693 707 846 757 708 676 924 1331 1422 1608 2192 2524 2440 2655 2930 2997 3289 3348 3356 3473 3687 3672 3592 3689 3669 3624 3444 3406 3370 3348 3315 3529 3322 3431
1270 1158 1047 964 880 820 819 746 662 573 602 582 566 526 610 877 1339 1550 1862 2274 1914 2205 2519 2716 2918 3095 3267 3086 3176 3287 3476 3297 3360 3617 3605 3564 3483 3509 3364 3443 3399 3212
1288 1136 1014 942 869 811 761 723 668 584 512 526 480 506 566 595 949 1167 1375 1838 1925 1908 2170 2572 2794 2974 3204 3146 2891 3039 3253 3212 3213 3450 3239 3425 3458 3336 3497 3510 3344 3368
1268 1173 1081 920 912 804 745 707 629 580 510 465 458 442 477 447 558 922 1260 1488 1902 1956 1892 2389 2702 2689 3021 3165 2992 2997 3112 3268 2870 3094 3176 3246 3216 3078 3031 3167 3289 3256
1263 1209 1147 1063 952 966 872 718 620 552 585 510 503 448 362 356 389 564 1041 1133 1460 1714 1936 2176 2578 2585 2840 3022 3011 2887 2901 3011 2966 2876 2781 2924 2900 2973 2843 2617 2831 3064
1445 1274 1253 1198 1060 1075 930 747 624 582 574 596 646 527 345 295 301 299 574 859 1048 1477 1646 1809 1940 2176 2319 2603 2866 2957 2755 2559 2787 2851 2810 2787 2950 2711 2720 2931 2686 2573
1647 1435 1303 1323 1201 1108 1080 842 648 576 471 539 542 539 499 503 436 399 354 572 826 1262 1466 1520 1612 1808 1970 1508 1847 2482 2699 2212 2386 2824 2759 2598 2856 2892 2586 2676 2742 2575
1771 1602 1452 1398 1400 1292 1224 1014 764 568 473 526 499 514 541 753 734 537 372 312 417 611 898 974 1079 1109 644 103 749 1019 1687 2349 2332 2661 2906 2836 2599 2925 2875 2422 2558 2859
1497 1551 1549 1533 1493 1346 1337 1227 931 743 615 647 522 416 705 492 442 490 600 443 377 431 458 597 784 567 2 0 0 0 416 1406 1754 1882 1892 2194 2350 2151 2430 2520 2418 2484
1664 1694 1751 1644 1547 1452 1421 1319 1141 990 850 547 564 575 571 538 536 364 520 537 390 533 427 385 570 391 0 0 0 0 0 253 790 1162 1254 1432 1728 2177 2076 2416 2794 2911
1800 1699 1664 1672 1739 1678 1511 1290 1151 1106 705 634 674 704 738 766 759 750 763 731 705 580 542 398 305 193 0 0 0 0 0 54 570 673 1103 1317 1506 1786 1983 2300 2868 3039
1784 1821 1796 1843 1872 1780 1661 1481 1350 1227 796 662 728 783 817 858 892 910 925 961 978 972 974 943 894 757 146 0 0 0 0 0 381 651 797 1168 1497 1778 2160 2311 2572 2955
1716 1831 1835 1892 1863 1800 1772 1664 1598 1592 1426 854 753 797 852 886 939 964 1005 1034 1069 1144 1181 1207 1235 1216 1158 1062 686 551 0 0 253 864 969 1048 1384 1774 2102 2508 2629 2682
1744 1657 1753 1758 1800 1805 1856 1750 1740 1772 1656 1429 1112 879 924 959 1002 1034 1074 1128 1191 1230 1256 1300 1344 1366 1352 1333 1280 1158 908 271 400 772 1124 1178 1332 1774 2138 2410 2534 2606
2078 2032 1885 1825 1937 1962 1934 1757 1720 1706 1601 1546 1388 1084 991 1010 1030 1080 1151 1250 1308 1367 1355 1416 1488 1522 1532 1540 1525 1461 1305 1087 808 854 1074 1358 1535 1686 1965 2346 2519 2303
2360 2237 2141 1910 1873 1956 1786 1834 1839 1861 1714 1682 1539 1116 1161 1168 1205 1170 1258 1350 1410 1449 1499 1522 1560 1615 1718 1853 1876 1850 1762 1586 1282 945 1058 1358 1488 1684 1965 2077 2316 2249
2758 2799 2529 2052 1911 2025 1929 2018 2152 2144 2156 2112 1756 1335 1254 1257 1232 1180 1262 1364 1464 1508 1555 1578 1621 1721 1877 2059 2088 2107 2026 1913 1727 1344 1022 1187 1385 1428 1700 1957 2063 2320

ECMWFNIL_con_mucape_105.txt.gz
CAPE
2060 2188 2352 2175 1919 1316 1211 1360 1439 2066 2563 2688 2828 2979 2941 2682 3153 2999 3271 3435 3122 3817 4173 4647 3701 4413 3973 4160 3690 3369 3910 3199 3455 3263 3138 2943 2582 2439 2681 2393 2943 2316
2172 2127 2264 2021 2055 1724 1515 1376 1409 1386 2153 2704 2626 2778 2479 2549 2504 2684 2909 3142 3216 3305 4191 3905 3958 4421 4563 3851 3939 3920 3996 3843 3848 3552 3043 2889 3154 2982 2603 3067 2340 2472
2251 2107 2091 1963 1561 1864 1150 1397 1444 1543 1532 2003 2548 2712 2814 2431 2475 2535 2546 2842 2979 2992 3265 4392 4405 4226 3990 4439 4871 4220 4416 4733 3466 3242 3126 3455 2722 2672 3018 2402 2034 2184
2530 2137 1941 1743 1104 1246 1312 1131 1361 1647 1287 1491 1677 2236 2482 2035 2048 2498 2730 2576 2566 2583 2895 3082 3612 3590 3737 4183 5042 4095 4194 5079 3626 4126 3728 3855 3179 3280 2815 2643 2419 2482
2605 2127 1769 1680 1143 1016 1235 1040 988 1364 1203 1016 1424 1650 1873 1899 2007 2074 2394 2583 2503 2292 2510 2688 2938 3442 3959 3751 4019 3826 4166 4475 3783 4339 4502 3896 4370 3447 3135 2914 2873 2463
3011 2563 1960 1518 1393 1313 1114 1168 1156 882 1085 799 1098 1024 1494 2014 1949 1726 1956 2118 2209 1824 1581 1958 2536 2744 3027 3305 3618 3510 3403 3021 3337 3793 3746 3929 3363 2860 2469 3030 2957 2574
3176 3078 2125 1376 1278 1181 1320 1219 1412 1177 812 660 889 895 924 1546 2039 1724 1833 1840 1646 1606 1131 1404 2073 2149 2023 2537 3090 3323 3177 3157 2928 3944 3578 3364 3014 2909 3359 3799 3390 3093
2863 3164 2607 1741 1026 1098 1272 1254 1440 1626 1256 764 567 1008 849 828 1625 1787 1839 1762 1683 1618 1494 1333 1903 2157 1928 1945 2414 2894 2870 2441 2646 3784 4745 3720 3600 3284 3160 3572 3700 3184
2883 2903 2873 2136 1133 652 743 758 1358 1700 1618 1123 651 596 1074 945 942 1286 1558 1844 1714 1656 1728 1654 1921 2234 2198 1865 1982 2362 2576 2190 1818 2264 2872 2967 2998 3068 3025 2989 3374 3372
3114 2344 2104 1998 1184 538 365 449 591 1041 1560 1457 1155 472 558 1156 915 893 1292 1892 1966 1638 1714 1880 1931 2084 2218 1996 1983 2079 2310 2573 2231 2068 2251 2376 2307 2324 2200 2217 2654 2789
2725 2223 1756 1764 1306 552 262 248 231 262 647 1166 1124 552 186 681 1169 1156 1296 1699 1951 2025 1834 2009 2061 2076 2254 1944 1702 1689 1984 1942 1868 2034 1942 1986 1913 2037 2025 2140 2236 2170
2742 2187 1621 1580 1358 755 299 164 148 125 93 618 973 838 320 126 923 1204 1099 1582 2073 2087 1987 2137 2358 2180 2324 2227 1560 1354 1440 1546 1328 1296 1340 1485 1526 1555 1801 1981 1966 2035
2736 2477 1839 1356 1428 1159 646 297 92 28 27 89 518 740 582 133 117 1034 1158 1212 1965 2109 1912 2021 2284 2168 2403 2475 2198 1430 946 1336 991 937 1076 1190 1297 1126 1058 1156 1299 1402
2652 2563 2366 1857 1471 1843 1346 685 204 75 59 38 116 440 551 286 44 145 1068 1202 1524 1970 1796 1772 2300 2434 2402 2431 2390 1928 1073 935 1099 906 718 890 777 681 663 616 663 756
2976 2734 2629 2510 2068 1861 2004 1285 723 433 391 262 130 181 335 357 125 2 100 763 1225 1747 1771 1322 1494 2273 2375 2266 2338 2314 1600 927 1041 1184 966 716 849 667 612 600 393 321
3007 2982 2816 2798 2598 2358 2642 2444 1552 755 392 395 380 308 374 389 367 163 9 209 839 1400 1702 1331 869 1244 2106 1674 1909 2251 1929 768 647 900 1148 757 738 615 397 372 382 274
2583 2928 2965 3178 3264 2799 2895 3048 2664 1786 1180 1647 1185 888 1161 1498 806 360 76 11 278 792 1308 1175 734 391 1137 1472 1408 1527 1622 1418 712 699 1070 1136 918 1308 1044 437 109 104
2375 2328 3016 3239 3307 3443 3306 3232 3021 2780 2366 2011 1236 1072 2014 1183 1007 847 643 127 44 187 589 932 804 342 104 1216 1330 1353 1555 1539 732 384 251 551 1082 936 798 805 431 99
2212 2147 2546 3007 3233 3442 3460 3357 3306 3106 2708 2112 1588 1500 1348 2262 2275 1552 1277 775 232 221 80 273 616 392 0 699 1206 1285 1291 1241 196 124 140 172 309 1019 1084 917 996 795
1855 2135 2081 2719 3165 3347 3254 3258 3279 3218 2766 2149 1919 1888 1976 2029 2072 2067 1968 2146 1425 1084 718 165 268 282 0 0 943 1148 1168 1177 930 60 10 37 313 355 639 1181 1912 1641
2224 2111 2217 2563 2613 2887 2844 2905 3321 3122 2978 2365 1867 1886 2099 2392 2317 2351 2337 2378 2071 1732 1312 782 406 80 0 0 327 929 1000 900 1370 500 56 0 0 82 640 969 1649 1673
2162 2482 2147 2161 2416 2875 2639 2394 2668 2903 2958 2727 2274 1493 1470 1940 2499 2318 2339 2352 2258 2111 1866 1588 1004 173 0 0 0 125 762 672 1487 1520 730 346 132 197 392 909 1114 955
712 1148 1874 2700 2554 2214 2377 2462 2394 2528 2657 2770 2590 2012 1540 1156 1928 2215 2425 2312 2304 2365 2260 2001 1680 1293 655 0 0 0 0 847 1396 1327 1226 1008 959 922 1054 889 535 1115
675 696 1372 1683 2246 2180 2028 2151 2441 1744 1738 2332 2718 2487 1997 1178 1096 1782 2176 2349 2230 2254 2232 2345 2054 1792 1202 880 574 0 4 1062 1486 1365 1298 1436 1491 1536 1437 1333 1420 1229
816 803 1145 1319 1514 1725 1700 1350 1283 1253 1661 2556 1932 1794 2263 2216 1828 1399 1592 1920 2060 1938 2060 2026 2057 1853 1418 1224 971 778 597 1116 1513 1386 1296 1442 1521 1759 1847 1734 1659 1699
666 768 873 980 1357 1420 1568 1238 1366 1203 1142 1301 1258 1430 1634 1598 1842 2182 1823 1659 1233 1483 1615 1892 1766 2076 1732 1401 1195 1003 758 1036 1658 1546 1406 1455 1652 1730 2027 2092 2042 1940

ECMWFNIL_con_mucape_108.txt.gz
CAPE
2908 2939 2861 2712 2636 2402 2519 2524 2312 2410 3185 2982 3004 2974 3316 4133 3229 3127 3174 3601 3559 3988 3960 4301 3884 3829 3987 3929 3669 4374 4728 3688 5706 3970 3901 3606 3236 2522 2319 2378 2487 3390
2880 2836 2996 2651 3216 3104 2898 2327 2560 2697 3127 3664 2925 3201 3449 3778 3509 3686 3522 3248 3488 3472 4170 3790 4011 3931 3872 3946 3825 3668 4221 3904 4196 3298 3513 3663 3781 2737 2208 2600 2219 2842
2567 2769 2527 2390 2088 1996 1091 1531 2284 2281 2430 2198 2582 3359 3316 2731 3164 3394 3840 3503 3007 3427 4338 4064 4016 4182 3912 4412 4314 3940 4144 4281 4010 3785 3421 3628 3308 3313 3412 1982 2482 2343
2565 2276 1991 1725 1778 1626 1382 1725 2273 2118 1957 2485 2393 2135 2070 2024 2781 2809 3516 3270 3451 3442 3397 3696 3813 3479 3682 4405 4916 4195 4460 4974 4434 3410 3899 3934 3807 3253 2906 3131 2532 2259
2218 2249 2027 1813 1608 1842 1594 1440 1236 1526 1364 1814 1817 2514 3224 3312 2714 2553 3060 3168 3640 3167 3580 3637 3762 3629 3988 4242 4102 4120 4183 4842 4097 4386 4534 4237 4244 3950 3489 3098 3269 2810
2847 2591 2346 2105 1838 2036 1488 1160 1240 1279 1338 1143 1631 1719 2117 2542 2325 2455 2580 2308 2448 2075 2450 2714 3125 3164 3431 4137 4194 4243 3848 3688 3570 4182 4418 4237 3788 3607 2804 3134 3273 3202
2488 2624 1902 1966 1524 1443 1480 1326 1231 1403 994 710 1396 1410 1820 1870 2262 2432 2538 2600 2093 2280 1881 2404 3175 3127 3310 3772 4149 4248 4180 3807 3548 4043 4104 3972 4295 3838 2880 3762 4362 3680
2373 1999 2047 1835 1478 1124 1139 1268 1120 1298 1390 1145 999 1520 1476 1571 2057 1808 2184 2178 1935 2068 2085 2342 2974 3451 2432 2869 3581 3883 3679 2970 3756 3877 4237 3930 3873 3735 3351 3397 3730 4009
2551 2623 2250 1678 1181 982 690 633 964 1015 1285 1106 607 712 1200 1572 1962 1658 2090 2274 1970 2229 2539 2324 3075 2549 2380 2491 2948 3558 3373 2867 2453 3350 4082 3960 3782 3901 3505 3637 3710 4009
2859 2855 2111 1577 941 706 731 743 601 753 1139 964 548 517 665 1208 1733 1694 2288 2470 2375 2821 2495 2091 2881 2376 2331 2352 3121 3110 3137 3236 3305 3258 3298 3422 3438 3350 3161 3211 3079 3542
1723 2101 2260 1948 1043 424 442 443 474 672 894 820 596 328 621 718 1218 1800 2197 2358 1796 2361 2459 2331 2428 2388 2678 2219 2164 2209 2638 2607 2592 2919 3047 3122 3015 3150 3042 3178 2992 2897
1348 1203 1367 1722 1364 528 132 166 204 378 850 905 741 453 526 679 915 978 1758 2248 1935 1984 2121 2341 2367 2420 2720 2668 2074 1949 2270 2378 2703 2810 2450 2699 2611 2612 2731 2654 2468 2718
1154 1116 1085 1099 1403 864 179 82 52 90 382 799 880 725 422 333 627 792 1027 1993 2076 2172 1968 2287 2484 2474 2805 2917 2589 2220 2148 2114 1964 2248 2106 2184 2102 1861 1690 1870 1999 2174
1737 1237 1145 982 1351 1416 894 104 9 16 150 482 778 794 453 203 272 532 961 1115 1850 1930 2222 2372 2618 2557 2860 3058 2811 2483 2098 2251 1912 1835 1496 1489 1275 1434 1247 1024 1363 1568
1879 1630 1409 983 1399 2101 1692 1050 197 118 187 252 726 490 323 263 131 264 731 832 1239 1726 2039 2092 2320 2540 2534 2860 2939 2844 2500 1706 1800 1613 1560 1449 1376 1010 1099 1129 818 668
1892 1862 2301 2163 1096 986 2122 2057 1525 627 94 209 282 585 494 531 352 278 546 935 1103 1683 2004 1951 1964 2010 2172 1974 2229 2635 2536 1680 1384 1503 1310 1173 1633 1325 932 860 417 294
1595 1765 1326 1507 2129 1396 1359 2052 2232 1800 966 791 587 523 553 1205 721 460 159 416 909 1033 1603 1473 1411 1193 1654 1746 1736 1936 2253 2298 1746 1837 1813 1862 1640 1863 1507 921 592 616
2323 1907 1842 1561 1581 1874 1637 1321 1857 2980 3628 3572 1194 723 1126 1334 1085 756 560 214 356 721 905 1153 1365 1059 1125 1669 1727 1688 1904 2310 1966 1570 1416 1589 1564 1171 1294 1071 712 408
1724 1947 1744 1639 1879 1823 2295 2454 2014 1800 2621 3486 2716 1266 1014 1017 1158 1034 943 777 334 466 446 864 1298 1156 792 1212 1640 1668 1663 1797 1868 1452 752 657 794 1060 925 1058 1178 1007
1515 1648 1775 1734 1850 2230 2957 3027 2714 2840 2460 2340 2687 2354 2047 1697 1179 1323 1366 1290 959 721 911 654 909 986 859 235 1176 1498 1513 1474 1774 1263 990 515 364 565 778 993 1240 1392
1009 951 1405 1453 1566 1674 1852 2536 2492 2361 2285 1806 1544 1466 1780 3044 1931 1370 1836 2096 1474 1096 873 573 109 138 513 0 0 1074 1273 1294 1422 1305 612 440 414 408 595 724 1298 1544
803 867 901 1150 1725 1345 1691 1806 1757 1692 1824 1662 1521 1349 1048 838 1557 1881 1988 2257 2180 1671 738 844 312 5 0 0 0 0 886 1005 1093 1488 1039 438 151 150 326 777 1230 1769
539 589 737 932 1196 1534 1139 1414 1547 1458 1549 1966 2120 2143 1843 1140 1001 1296 1944 2031 1969 2079 2060 1790 1364 575 0 0 0 0 0 284 1034 1363 1395 1034 565 375 407 582 606 606
402 430 462 487 750 1151 1297 1121 1163 1446 1864 1858 2105 2170 2291 1567 1231 1072 1210 1624 1676 2082 1808 2348 2267 2052 1238 567 0 0 0 624 988 1397 1507 1469 1250 941 694 680 734 877
238 233 369 421 419 554 1048 814 830 1132 1551 1599 1644 1679 2017 1778 1737 1537 1525 1355 1425 1656 1493 2017 2029 1960 1899 1551 1116 362 0 427 1145 1451 1566 1623 1546 1495 1412 1263 1208 1313
0 12 236 271 373 386 1360 1127 1026 1284 1696 1830 1835 1816 1734 1876 1441 1288 1431 1687 1632 1479 1555 1973 2155 2173 2556 1956 1890 1554 1135 812 1419 1657 1561 1545 1624 1571 1652 1764 1663 1667

ECMWFNIL_con_mucape_111.txt.gz
CAPE
2408 2184 2398 2079 2470 2018 2590 2534 3060 3030 3174 2887 3150 2730 2390 2612 2521 2640 2587 3157 3563 3147 3352 4018 3494 3442 3606 3575 4281 3572 2823 2788 2772 3062 2966 3028 2894 2634 2537 2502 2223 2995
2300 2660 2487 2351 2431 2442 2417 2499 2824 2862 3080 2935 3178 3127 2305 3121 2635 2626 2679 3132 3618 3478 3590 3760 3814 3849 3935 3545 3642 4003 3919 3734 3576 3168 2788 3375 2729 2308 2154 2401 1914 2770
2254 2652 2509 2364 2316 2443 2212 2310 2249 2687 2895 3003 2932 3084 3366 3504 2730 2846 2923 2945 3450 3538 3625 3559 3512 3421 3676 3599 3295 3474 3577 3746 3150 3321 2766 2943 2987 2819 2850 2645 2181 2244
2308 2313 2457 2180 2364 2247 2186 1979 2101 2270 2399 2836 2722 2821 3356 2909 2888 3470 3000 3610 3114 3522 3586 3557 3469 3634 3768 3840 3612 3251 3660 3549 3796 3592 3363 3407 3182 2770 2574 2390 2746 2065
2282 2248 2204 2180 2084 2065 1781 1705 2111 1882 1918 1890 2371 2738 2800 2409 2730 3194 3099 3377 2914 3583 3736 3505 3539 3392 3751 4127 3952 3416 3884 3767 4122 3495 2878 3597 3317 3211 3016 3171 2744 2544
2223 2232 2107 2029 1936 1768 1592 1322 1734 1567 1685 1946 1986 2483 2297 2711 2562 2715 3070 3147 2986 3470 3474 3430 3627 3251 3550 4316 3831 3353 3718 3806 3963 3480 3207 3665 3742 3318 3274 2885 2644 2657
1969 2109 2030 1874 1690 1563 1471 1268 1253 1347 1340 1837 1844 1974 2136 2998 2262 2360 2841 2853 2907 3083 3032 3256 3328 3394 3439 3977 3893 3116 3546 3868 3481 3710 3451 3532 3750 3564 3266 3535 3625 3530
1895 1919 1964 1884 1675 1763 1371 1153 1153 1256 1152 1149 1659 1652 1778 1819 2339 2318 2358 2453 2416 2326 2610 2704 3002 2954 3386 3471 3704 3382 3849 3490 3417 3195 3502 3636 3698 3343 3322 3150 3026 3086
2122 2022 1936 1937 1661 1531 1481 1061 1052 1093 1128 1097 1232 1476 1583 1766 1820 2167 2292 2355 2217 2219 2216 2317 2686 2775 3062 3326 3475 3527 3532 3327 3482 3020 3244 3414 3515 3469 3232 2904 2969 3102
2216 2143 2080 1862 1692 1540 1305 1160 1019 898 1218 1082 966 1056 1304 1612 1754 1789 2117 2261 2210 2158 1975 2022 2400 2634 2760 3045 3240 3334 3259 3130 3026 2922 2858 3073 3345 3460 3411 3222 3098 3006
1996 2125 2087 1883 1651 1454 1296 952 814 820 883 1089 923 865 1017 1379 1669 1693 1715 2045 2045 1956 1973 1767 2302 2245 2400 2404 2748 2957 3003 2895 2808 2830 2544 2934 3183 3232 3659 3025 2942 2899
1741 2062 2052 1985 1716 1414 1168 961 771 639 729 888 945 735 295 892 1409 1669 1632 1867 1872 1736 2099 1618 2084 2176 1954 1897 2069 2608 2784 2760 2570 2502 2762 2824 2983 3074 2994 2974 2772 2626
1538 1515 1761 1909 1984 1670 1085 768 647 553 626 752 797 808 309 350 623 1480 1644 1704 1750 1652 1852 2008 1674 2063 2083 1960 1824 1925 2301 2596 2507 2374 2247 2380 2741 2775 2660 2539 2410 2395
1695 1326 1216 1328 1329 1523 1332 581 170 366 37 771 835 758 691 297 423 651 1397 1673 1699 1583 1568 1860 1860 1825 1994 2178 2154 1990 1842 1882 2080 2196 2228 2099 1949 1957 1955 1928 1884 1710
1360 2352 2082 2152 2008 1328 962 892 628 636 394 718 686 871 823 646 252 429 540 1381 1707 1626 1547 1651 1872 1859 1912 2175 2219 2154 2074 1863 1736 1788 1951 1952 1823 1694 1658 1633 1552 1503
1630 1971 2127 2189 2068 1563 1202 1042 844 726 732 760 1123 823 824 807 442 142 426 584 1377 1664 1599 1690 1808 1905 2065 2059 2297 2204 2049 2026 1926 1643 1560 1625 1641 1496 1309 1238 1150 953
1911 1743 1332 1433 1860 1795 1767 1432 1218 1158 1088 1313 1495 1147 978 506 640 290 190 449 640 1395 1611 1673 1848 1972 1991 1923 2094 2319 2171 1962 1890 1797 1515 1313 1300 1270 1075 832 840 811
1498 1750 1800 1624 1347 1412 1681 1815 1616 1707 1577 1093 751 1198 1336 459 626 424 166 268 526 788 1342 1544 1630 1820 2023 1990 1950 2129 2262 2155 1926 1779 1624 1360 1051 964 972 844 572 362
929 1003 1236 1562 1666 1798 1812 1915 2237 2103 1515 1419 1326 1003 1186 1110 392 732 380 151 357 619 922 1298 1478 1578 1744 1951 1974 1946 2085 2173 2013 1883 1697 1432 1120 814 781 884 874 557
792 949 946 942 1343 1464 1646 1942 1698 1653 1875 1769 1574 1413 1082 1016 1008 644 699 829 241 262 782 1016 1271 1395 1548 1618 1713 1808 1835 1904 1894 1835 1690 1471 1264 1081 890 689 606 617
629 672 760 750 938 1410 1366 1316 1362 1587 1727 1858 1731 1531 1417 1346 1266 962 884 887 1122 894 186 612 984 1164 1301 1387 1369 1363 1529 1632 1630 1616 1576 1492 1314 1092 944 820 745 418
528 529 591 832 872 1013 1352 1311 1186 1380 1659 1704 1659 1544 1404 1444 1231 992 836 867 967 1191 1445 547 205 298 924 1212 1242 1174 1146 1300 1388 1427 1456 1397 1295 1192 1002 601 205 277
352 408 391 463 573 775 769 1291 1166 1207 1369 1713 1712 1790 1653 1490 1709 1534 1298 1078 933 1027 1360 1689 1083 359 88 0 616 1126 1148 1074 1088 1207 1308 1324 1183 987 917 790 74 185
402 384 393 433 511 608 692 859 1101 1102 1205 1446 1544 1555 1776 1907 1733 1537 1675 1686 1487 1074 986 1379 1674 1765 1425 1053 890 693 0 597 982 950 1040 1131 1123 964 496 33 45 644
283 345 394 480 464 520 606 777 856 982 1179 1198 1382 1434 1412 1446 1505 1521 1465 1536 1564 1394 1366 1429 1384 1690 1786 1684 1580 1476 1386 1174 863 500 660 820 877 880 805 472 150 404
142 203 267 334 417 463 489 927 1266 1191 1089 1155 1397 1480 1489 1448 1337 1476 1459 1402 1410 1366 1212 1199 1222 1470 1598 1569 1615 1562 1665 1784 1706 1535 1284 931 633 703 700 694 534 370

ECMWFNIL_con_mucape_114.txt.gz
CAPE
1811 1588 1533 1816 1686 1909 2049 2209 2327 2218 2358 2344 2201 2274 2473 2566 2426 2368 2520 2632 2669 2710 2699 2790 2738 2676 2852 2835 3371 2779 2680 2518 2326 2668 2694 2604 2720 2754 2618 2514 2579 2492
1823 1544 1723 1848 1804 2287 2314 2295 2277 2192 2390 2565 2278 2353 2348 2474 2387 2290 2270 2328 2736 3110 2666 2650 2849 2746 2772 3001 3572 3212 2623 2521 2334 3076 2776 2614 2614 2673 2646 2426 2454 2290
1746 1825 1995 1811 1860 2209 2416 2414 2449 2178 2393 2733 2466 2590 2287 2390 2422 2350 2321 2298 2652 3266 2925 3242 3125 3096 3298 3233 3319 3385 2767 2778 2688 2965 2975 2681 2749 2836 2733 2584 2665 2659
1655 2054 2020 1838 1865 1990 2422 2514 2586 2488 2428 2675 2552 2752 2468 2283 2590 2472 2378 3098 2646 3126 3093 3357 3269 3283 3535 3397 3144 3112 3305 3249 3157 3146 3133 2696 2737 2782 2734 2642 2789 2843
1688 2058 1966 1971 2006 1880 1990 2184 2292 2667 2565 2731 2635 2654 2719 2614 2598 2536 2436 2610 2638 2959 3114 3264 3152 3113 3167 3422 3157 2825 2877 3160 3308 3598 3353 3084 2909 2934 2857 2746 2755 2743
1803 1956 2137 1947 1969 2028 1905 2015 2061 2214 2545 2613 2755 2627 2771 2828 2645 2656 2603 2515 2549 2885 3151 3187 3088 2964 3064 3369 3304 3110 2850 3206 3296 3535 3476 3316 2958 3190 3199 3000 2877 2833
1861 1934 2061 2040 1942 1949 1951 1904 1900 1899 1961 2304 2625 2724 2667 2748 2781 2673 2744 2619 2517 2820 3165 3191 3113 2993 2987 3303 3488 3210 3089 3248 3412 3569 3621 3416 2939 3154 3241 3144 3024 3040
1848 1925 1992 2016 1990 1912 1882 1867 1818 1753 1700 1731 1921 2088 2490 2537 2620 2529 2714 2680 2523 2582 2959 3157 3180 3138 3030 3067 3465 3347 3101 3141 3414 3481 3503 3337 2958 2900 3071 3174 3269 3235
1767 1826 1968 2007 1945 1900 1884 1854 1750 1596 1598 1578 1569 1490 2076 2320 2368 2266 2493 2579 2545 2516 2650 2862 3059 3118 3101 3003 3179 3273 3247 3101 3333 3420 3310 3170 3051 3066 3110 3117 3052 2955
2068 1772 1775 1954 1976 1858 1791 1821 1831 1664 1388 1442 1406 1465 1532 1978 2310 2263 2087 2366 2423 2481 2587 2686 2765 2901 2954 3024 3079 3131 3091 2992 3116 3232 3151 2942 2910 2966 3104 3168 3104 2927
2092 1948 1812 1723 1803 1886 1811 1722 1736 1696 1359 1218 1213 1371 1514 1590 1726 2162 2179 2266 2315 2343 2436 2462 2472 2594 2692 2754 2950 3042 3043 2987 2995 3064 3006 2826 2688 2616 3224 2964 3063 3016
2037 1918 1866 1861 1698 1618 1719 1698 1665 1688 1568 982 1116 1075 1221 1439 1525 1750 2081 2109 2109 2101 2082 2049 2043 2070 2247 2456 2588 2834 2947 2966 2912 2829 2772 2776 2780 2687 2572 2948 3000 3026
2007 1759 1709 1767 1595 1527 1554 1601 1605 1535 1515 1356 905 1030 976 1124 1369 1442 1641 1932 2018 1977 1939 1890 1851 1784 1847 2112 2299 2404 2662 2807 2809 2693 2508 2482 2542 2558 2482 2584 2781 2859
1799 1584 1470 1636 1653 1586 1488 1566 1520 1558 1412 1283 1030 883 766 904 965 1145 1321 1430 1590 1783 1880 1891 1841 1784 1731 1815 1972 2092 2246 2492 2529 2419 2324 2220 2179 2300 2410 2471 2542 2669
1046 1161 1116 1226 1361 1505 1563 1579 1588 1381 1399 1260 1019 871 890 800 738 837 1086 1272 1336 1411 1532 1637 1676 1611 1573 1679 1743 1772 1787 1819 1985 2148 2188 2146 2058 1938 2000 2234 2384 2455
1135 1360 1018 1227 1232 1066 1090 1312 1396 1386 1209 1150 1063 813 753 786 784 713 727 1058 1253 1314 1338 1374 1427 1421 1473 1482 1604 1621 1560 1488 1450 1540 1730 1904 1994 1948 1816 1766 1847 1896
1603 1345 1266 1091 848 797 979 990 969 1146 1268 1043 1154 1060 1072 926 754 731 677 609 973 1217 1276 1263 1265 1316 1398 1382 1397 1516 1546 1532 1521 1520 1513 1530 1549 1533 1560 1586 1633 1665
1337 1476 1556 1444 1318 1319 1579 1447 1413 1176 1285 1135 1085 886 928 1082 998 785 604 636 558 733 1127 1200 1191 1205 1272 1346 1342 1322 1407 1516 1451 1468 1487 1525 1564 1572 1556 1461 1413 1393
1030 1110 1186 1270 1488 1558 1912 1997 1932 1900 1628 1442 1327 1200 976 1033 1033 970 818 721 648 561 525 997 1188 1174 1218 1252 1282 1286 1283 1340 1363 1339 1338 1348 1382 1443 1510 1555 1526 1383
794 897 1022 1121 1203 1264 1335 1820 2142 1915 1730 1634 1678 1687 1499 1285 1115 1016 855 724 669 630 519 448 829 1151 1213 1238 1246 1240 1237 1225 1267 1397 1418 1391 1344 1295 1256 1258 1290 1345
717 762 854 967 1018 1096 1232 1280 1303 1270 1371 1486 1602 1658 1668 1584 1424 1291 1096 916 706 739 825 648 388 646 1016 1223 1262 1257 1237 1219 1184 1264 1399 1428 1419 1371 1284 1150 1066 1056
794 772 755 808 871 887 996 1089 1088 1124 1154 1240 1580 1541 1555 1476 1449 1386 1398 1387 1210 918 788 983 1129 898 470 895 1177 1282 1330 1311 1281 1292 1321 1394 1433 1440 1416 1358 1223 1045
638 626 656 662 787 682 643 871 875 903 942 1202 1183 1222 1404 1472 1418 1532 1516 1446 1378 1393 1372 1133 1086 1117 1078 772 686 1083 1226 1264 1289 1297 1314 1330 1388 1431 1425 1409 1360 1270
493 521 515 509 506 630 724 763 744 731 725 1035 998 1091 1156 1249 1292 1341 1346 1284 1307 1344 1372 1340 1352 1163 981 1160 918 493 744 1098 1196 1166 1114 1088 1124 1213 1277 1289 1284 1249
324 401 461 480 473 474 489 550 573 628 656 672 818 926 1009 1077 1129 1186 1314 1289 1294 1358 1376 1594 1270 1186 1109 1072 1172 1267 1041 405 184 531 934 941 879 869 913 1028 1112 1127
164 182 217 271 347 419 429 412 412 402 468 564 666 760 929 1023 1239 1384 1446 1443 1423 1401 1374 1375 1330 1243 1161 1200 1242 1160 1194 1394 1466 1434 1345 1205 1149 1130 1108 1039 873 923

ECMWFNIL_con_mucape_117.txt.gz
CAPE
1150 1229 1268 1389 1340 1402 1425 1439 1800 1932 1967 2106 2228 2327 2352 2418 2352 2588 2689 2754 2711 2569 2569 2595 2699 2730 2682 2691 2756 2710 2679 2710 2637 2369 2373 2495 2432 2383 2513 2620 2564 2457
1438 1356 1531 1451 1525 1649 1516 1501 1757 1895 1926 2004 2053 2084 2174 2294 2337 2404 2552 2664 2709 2647 2581 2588 2655 2750 2750 2525 2713 2845 2627 2612 2638 2734 2419 2417 2416 2414 2485 2567 2595 2613
1350 1454 1371 1410 1533 1601 1614 1612 1757 1856 1880 1962 2033 2024 2039 2158 2300 2359 2354 2356 2440 2523 2590 2556 2554 2575 2613 2537 2670 2965 2710 2486 2466 2431 2740 2471 2430 2472 2511 2596 2682 2685
1144 1366 1472 1424 1466 1560 1756 1748 1834 1861 1877 2032 2140 2111 2040 2053 2197 2333 2342 2681 2111 2224 2526 2615 2643 2649 2645 2714 2792 3042 3143 2894 2605 2442 2550 2704 2693 2652 2608 2558 2614 2620
1117 1272 1487 1531 1476 1542 1798 1825 1869 1920 1918 1978 2171 2241 2274 2105 2112 2219 2289 2234 2219 2200 2466 2763 2843 2858 2870 3064 3121 3038 3194 3188 2945 3000 3015 3036 3044 2929 2678 2567 2587 2628
1248 1239 1486 1615 1577 1539 1705 1917 1886 2005 1990 1997 2099 2240 2364 2334 2148 2167 2240 2267 2240 2274 2433 2717 2901 3002 3027 3196 3327 3253 3028 2918 3022 3228 3262 3239 3209 3083 3020 2946 2847 2746
1488 1419 1496 1674 1702 1626 1579 1803 2011 2064 2174 2158 2170 2221 2293 2376 2370 2251 2223 2254 2263 2282 2354 2605 2793 2878 2965 3008 3086 3152 3156 3065 2894 2920 3088 3116 3109 3182 3067 2962 2959 2837
1620 1637 1575 1678 1804 1772 1684 1593 1740 1983 2065 2144 2263 2329 2363 2409 2434 2459 2368 2247 2231 2229 2295 2527 2678 2746 2767 2807 2856 2917 3026 3084 3057 2918 3008 3043 3176 3252 3217 2879 2876 2968
1687 1708 1700 1692 1796 1862 1832 1756 1639 1608 1681 1750 1893 2075 2228 2388 2485 2522 2555 2530 2380 2240 2246 2427 2658 2724 2746 2754 2794 2881 2936 3030 3093 3067 3001 3071 3199 3312 3282 3034 2720 2752
1771 1763 1774 1729 1744 1836 1890 1839 1788 1731 1678 1660 1683 1692 1720 1888 2236 2463 2515 2532 2539 2501 2392 2287 2512 2719 2802 2834 2857 2880 2948 3000 3079 3111 3111 3081 3128 3204 3163 2976 2835 2788
1720 1793 1809 1813 1742 1736 1793 1850 1828 1782 1735 1694 1660 1611 1505 1486 1611 2031 2230 2329 2438 2474 2412 2306 2291 2477 2673 2792 2865 2901 2904 2919 2925 2954 3018 3030 3026 3065 3205 2955 2826 2792
1959 1866 1818 1801 1763 1724 1720 1731 1739 1739 1728 1694 1654 1635 1538 1336 1340 1561 1962 2157 2277 2298 2318 2303 2261 2246 2381 2545 2679 2793 2853 2886 2885 2868 2844 2886 2942 2983 2986 2899 2749 2654
1839 2031 2102 2069 1903 1697 1738 1758 1761 1732 1684 1638 1604 1615 1579 1434 1221 1220 1509 1845 2029 2132 2173 2193 2214 2227 2279 2405 2530 2590 2665 2762 2838 2857 2855 2838 2824 2818 2798 2748 2722 2707
1878 1953 2015 1971 2046 1978 1752 1671 1686 1708 1702 1649 1598 1575 1534 1514 1337 1097 1196 1444 1702 1873 2002 2058 2088 2108 2145 2228 2273 2331 2398 2482 2614 2708 2754 2764 2752 2720 2627 2558 2521 2528
1374 1713 1980 1876 1781 1918 1903 1790 1649 1570 1537 1521 1484 1452 1423 1384 1329 1144 969 1128 1354 1588 1762 1871 1956 2003 1996 1958 1902 1849 1879 2008 2186 2385 2504 2540 2555 2570 2517 2403 2312 2300
1169 1337 1589 1650 1732 1883 1911 1791 1748 1634 1448 1333 1258 1190 1208 1240 1210 1119 993 853 998 1237 1446 1641 1760 1799 1815 1813 1794 1776 1686 1632 1708 1898 2110 2242 2287 2279 2224 2112 2056 2058
1212 1347 1483 1505 1569 1714 1848 1776 1572 1575 1502 1372 1224 1079 981 986 1049 1055 937 804 807 860 1045 1188 1338 1459 1556 1633 1685 1716 1677 1613 1562 1577 1683 1878 1985 2004 1902 1769 1764 1814
1204 1127 1245 1327 1308 1272 1287 1369 1339 1237 1389 1476 1392 1170 953 804 803 840 815 738 719 772 775 912 1042 1134 1204 1288 1400 1497 1569 1573 1512 1436 1419 1456 1540 1588 1571 1510 1490 1515
1241 1252 1201 1264 1274 1280 1396 1624 1461 1479 1136 1093 1332 1308 1039 805 724 688 810 818 788 756 751 741 849 1018 1108 1151 1176 1228 1301 1368 1388 1377 1337 1308 1280 1258 1253 1259 1270 1279
1080 1099 1130 1128 1098 1142 1240 1502 1655 1636 1560 1461 1324 1281 1213 1160 1113 946 907 869 823 814 817 780 735 705 859 1011 1090 1114 1126 1154 1203 1228 1251 1252 1237 1227 1219 1222 1225 1210
897 952 916 1052 1062 965 1079 1141 1202 1281 1279 1268 1251 1294 1398 1435 1374 1299 1277 1236 1071 887 747 739 724 707 679 653 812 962 1044 1074 1101 1098 1084 1088 1119 1146 1144 1131 1108 1083
842 806 814 841 930 866 954 883 1011 1073 1210 1295 1235 1234 1267 1336 1415 1384 1346 1369 1381 1352 1289 1132 865 751 779 668 555 592 835 899 935 1026 1057 1035 1011 1042 1108 1129 1137 1119
541 629 655 624 607 660 754 824 926 976 1077 1124 1201 1176 1141 1211 1257 1396 1397 1392 1378 1309 1258 1260 1248 1217 1098 931 910 728 516 537 692 842 911 930 961 939 984 1087 1148 1189
271 309 330 284 318 393 404 515 637 855 929 955 1013 1046 1015 993 1010 1079 1210 1306 1292 1268 1276 1246 1226 1220 1186 1146 1070 949 925 824 550 3 667 810 895 922 946 981 1091 1414
241 248 291 305 354 432 374 334 402 605 759 772 794 811 809 841 926 981 1036 1166 1257 1275 1411 1431 1393 1360 1254 1170 1126 1042 992 959 932 924 737 620 671 830 962 1032 1044 1139
100 170 196 200 248 316 331 404 425 458 525 567 572 610 639 602 745 798 833 927 998 1083 1153 1181 1220 1309 1317 1290 1275 1219 1208 1195 1153 1026 983 923 944 965 976 882 818 778

ECMWFNIL_con_mucape_120.txt.gz
CAPE
1110 1182 1258 1285 1318 1259 1096 1477 1791 1968 2078 2129 2197 2362 2447 2552 2602 2677 2759 2772 2783 2844 2918 2934 2880 2779 2837 2690 2929 2782 2945 2562 2645 2688 2645 2592 2516 2463 2577 2527 2441 2499
1107 1202 1486 1268 1311 1555 1262 1356 1547 1758 1899 2025 2127 2276 2426 2450 2522 2524 2589 2673 2826 2828 2692 2644 2564 2646 2620 2658 2671 2820 2727 2719 2644 2960 2679 2510 2498 2372 2531 2564 2481 2568
1103 1156 1367 1217 1269 1426 1372 1424 1511 1617 1717 1845 1978 2123 2275 2353 2377 2395 2443 2564 2647 2724 2644 2519 2462 2584 2630 2700 2701 2879 2858 2493 2536 2426 2848 2602 2369 2448 2575 2547 2594 2616
1199 1189 1244 1264 1312 1385 1464 1491 1563 1651 1659 1829 1868 1962 2029 2213 2168 2272 2331 2840 2507 2597 2638 2634 2586 2547 2631 2628 2626 2766 2848 2638 2464 2292 2439 2778 2806 2602 2593 2534 2840 2915
1189 1311 1349 1367 1366 1407 1498 1558 1660 1662 1714 1826 1924 2012 2221 2199 2118 2132 2231 2305 2338 2344 2340 2640 2608 2651 2730 2722 2688 2775 2859 2944 2672 2642 2653 2572 2674 2841 2786 2747 2680 2722
990 1140 1314 1388 1423 1402 1473 1625 1647 1756 1744 1748 1991 2210 2202 2042 2033 2142 2140 2201 2260 2271 2258 2516 2755 2815 2785 2862 2779 2769 2865 3055 2973 2955 2855 2852 2893 2787 2959 3063 2926 2856
945 996 1131 1316 1388 1425 1430 1533 1676 1878 1781 1847 1946 2117 2217 2184 2118 2073 2148 2139 2128 2299 2301 2493 2713 2860 2803 2912 2908 2932 2892 2961 2924 2902 3095 3064 2956 2988 2885 3035 3101 2906
945 959 1038 1228 1357 1424 1448 1477 1551 1751 1839 1898 1978 2018 2108 2232 2244 2193 2156 2136 2152 2197 2325 2399 2594 2720 2672 2781 2921 2908 3015 3040 3016 2957 2900 2894 2769 2929 2932 2776 2913 2914
1043 1078 1074 1193 1340 1382 1472 1498 1509 1570 1776 1944 2033 2106 2146 2207 2258 2276 2298 2224 2234 2243 2265 2312 2489 2595 2617 2712 2813 2847 2844 2820 2932 2898 2864 2876 2824 2888 2842 2774 2875 2907
1248 1227 1252 1273 1332 1375 1415 1502 1558 1581 1578 1728 1920 2016 2067 2148 2241 2311 2352 2385 2406 2409 2396 2364 2345 2513 2621 2604 2706 2747 2797 2822 2803 2849 2924 2894 2898 2944 2900 2846 2894 2968
1387 1410 1416 1446 1445 1442 1446 1480 1562 1633 1662 1645 1610 1633 1652 1690 1770 2010 2139 2247 2339 2410 2447 2436 2381 2406 2564 2629 2656 2706 2770 2844 2893 2842 2851 2920 2927 2933 3147 3060 2899 2887
1522 1529 1547 1556 1563 1559 1543 1534 1552 1602 1671 1710 1717 1685 1671 1675 1681 1671 1919 1994 2111 2288 2344 2331 2317 2326 2417 2582 2663 2699 2728 2789 2868 2870 2793 2792 2809 2791 2777 2912 2930 2936
1515 1542 1582 1599 1623 1641 1645 1647 1622 1588 1586 1608 1660 1683 1680 1649 1609 1577 1611 1785 1867 1978 2145 2236 2213 2252 2291 2352 2475 2596 2670 2768 2754 2752 2761 2681 2671 2656 2667 2676 2692 2708
1590 1544 1511 1545 1589 1641 1654 1693 1693 1662 1586 1554 1536 1534 1555 1560 1552 1521 1501 1484 1629 1753 1915 2051 2076 2096 2158 2167 2233 2362 2422 2533 2641 2745 2735 2722 2658 2655 2548 2536 2562 2582
1790 1784 1786 1789 1778 1771 1828 1861 1802 1755 1688 1577 1549 1556 1583 1619 1622 1563 1477 1459 1453 1532 1709 1828 1848 1883 1928 1957 1983 2049 2167 2288 2445 2525 2629 2688 2675 2596 2519 2439 2370 2374
1618 1648 1709 1743 1732 1756 1780 1808 1862 1869 1848 1768 1639 1507 1486 1473 1481 1491 1444 1402 1380 1316 1395 1559 1711 1756 1757 1746 1794 1897 1879 1943 2109 2258 2354 2445 2529 2498 2360 2254 2192 2148
1538 1590 1592 1548 1466 1386 1722 1757 1746 1769 1796 1800 1750 1697 1617 1474 1334 1253 1174 1159 1177 1176 1128 1132 1442 1548 1511 1561 1638 1684 1747 1754 1771 1874 1936 2052 2106 2202 2256 2162 2066 1914
1319 1341 1205 1141 1162 1259 1422 1593 1649 1678 1719 1736 1702 1660 1568 1462 1348 1218 1084 945 877 907 920 886 1086 1110 1196 1335 1444 1524 1576 1640 1655 1628 1585 1613 1733 1838 1929 1934 1899 1756
835 849 877 962 1141 1315 1433 1481 1488 1463 1454 1446 1479 1435 1354 1297 1310 1223 1111 923 708 730 689 662 660 690 788 888 1025 1167 1287 1369 1443 1586 1517 1495 1478 1519 1556 1655 1624 1695
842 920 974 975 1022 1125 1210 1262 1302 1297 1245 1185 1156 1151 1138 1096 1135 1201 1138 1067 1106 967 847 754 781 764 736 724 719 767 875 940 1032 1135 1376 1422 1420 1407 1300 1388 1331 1368
997 1007 935 931 968 931 933 918 928 1066 1042 1099 1082 1024 1064 1114 1142 1138 1092 1175 1239 1284 1297 1218 1039 774 729 729 745 727 667 661 681 873 939 1129 1280 1304 1290 1356 1306 1333
874 920 888 878 879 950 943 970 998 1014 1063 1095 1069 1052 992 980 1066 1092 1153 1204 1234 1271 1219 1224 1254 1223 1149 1057 944 877 872 741 171 30 315 749 831 1023 1126 1204 1220 1265
470 454 626 719 786 877 906 921 930 970 1012 985 984 1070 1076 1079 1062 1170 1147 1109 1110 1135 1071 1144 1200 1203 1206 1169 1137 1069 962 953 964 914 802 683 474 614 783 1038 1134 1164
414 394 450 548 634 680 752 765 715 685 718 814 896 953 974 963 989 987 949 948 954 1005 1036 1111 1097 1091 1169 1243 1201 1138 1091 1048 1027 1000 998 998 995 900 801 789 960 1180
322 318 349 368 407 434 433 410 418 440 459 461 513 625 720 765 791 789 770 774 835 879 909 1041 1051 1137 1178 1191 1230 1225 1175 1138 1120 1102 1062 1044 1019 1023 1008 987 935 1047
135 140 152 191 231 241 260 290 328 350 344 321 303 331 432 490 554 629 617 557 560 671 754 804 856 924 985 1069 1101 1171 1210 1221 1241 1227 1201 1164 1124 1075 1056 1039 1019 1000

ECMWFNIL_con_mucape_123.txt.gz
CAPE
2755 2621 2596 2586 2601 2561 2977 3110 2899 2896 3070 2858 2837 2865 3051 3181 3316 3402 3534 3660 3618 3583 3832 3857 3904 3842 3616 3604 3894 3966 4028 3808 3924 3869 3981 3689 3379 3180 2822 3099 3298 3437
2678 2659 2719 2547 2815 2898 3022 2990 3148 3093 3326 3395 3069 3259 3358 3402 3445 3373 3742 3834 3802 3654 3812 3658 3803 3846 3762 3373 3786 3775 4122 4127 3829 3536 3911 3880 3535 3285 2942 3120 3070 3590
2538 2647 2612 2514 2377 2453 2123 2472 2943 3038 2984 2988 3268 3584 3481 3417 3346 3675 3754 3710 3697 3539 3783 3797 3795 3896 3757 3769 4139 3899 3710 4199 3745 3463 4098 3874 3509 3376 3337 2813 2891 3252
2739 2468 2270 2192 2238 2480 2393 2523 2750 2913 2778 3161 3091 2852 3074 2932 3296 3511 3839 3919 3804 3609 3600 3641 3647 3430 3634 3742 4097 3921 3815 4199 3684 4122 4074 3962 3920 3365 3294 3357 3201 3158
2381 2493 2361 2302 2371 2606 2821 2548 2349 2603 2678 2814 2814 3192 3468 3678 3601 3248 3541 3674 3914 3633 3661 3671 3718 3544 3722 3768 3985 3817 3705 3592 3792 4380 4169 4076 4177 3981 3387 3433 3612 3472
2614 2742 2778 2590 2778 2846 2623 2678 2826 2771 2804 2832 3006 2912 3046 3420 3366 3197 3266 3068 3122 3072 2965 3055 3250 3256 3250 3570 3991 3861 3538 3210 3374 4187 4084 3983 3708 3779 3322 3431 3684 3673
2189 2563 2446 2472 2515 2690 2696 2864 2879 2921 2730 2684 3105 3071 3087 3123 3328 3370 3459 3318 2973 3084 2879 3108 3503 3342 3430 3786 4026 4117 4179 4058 3825 4224 3943 3714 4010 3982 3955 3941 4097 3944
1840 2099 2302 2455 2226 2537 2353 2662 2742 2920 3042 3175 2919 3087 3203 2964 3217 3173 3372 3404 3169 3297 3457 3296 3735 4039 3360 3362 3662 3826 3881 3559 3903 4258 4150 3973 3886 4045 3983 3817 3774 3822
1798 1931 2065 2105 1782 1928 1686 1720 2220 2495 3006 3012 2676 2728 3157 3106 3247 3081 3622 3692 3427 3525 3825 3712 4017 3819 3730 3796 3768 3953 3924 3512 3316 3774 3844 3794 3816 4037 3796 3764 3838 3861
1862 1758 1499 1544 1486 1635 1565 1528 1515 2026 2606 2630 2581 2584 2863 3325 3297 3250 3756 4078 3798 3890 4047 3923 4000 3936 3826 3846 4028 3959 3945 4091 3998 3976 3748 3759 3765 3732 3526 3672 3536 3600
1749 1697 1704 1680 1523 1537 1606 1537 1565 1547 2003 2087 2123 2216 2454 2754 3447 3539 3757 3987 3495 3693 3938 4092 3959 3999 4132 3864 3820 3850 3961 3782 3763 4003 3904 3987 3904 3963 3929 3923 3900 3717
2024 1915 1874 1914 1896 1834 1807 1766 1762 1694 1780 1962 1896 2054 2404 2282 2528 2834 2984 3488 3462 3412 3548 3908 4044 4069 4198 4113 3757 3798 3918 3864 3750 3922 3722 3780 3772 3632 3866 3925 3768 3836
2480 2249 2217 2119 2296 2153 2145 2129 2011 1862 1707 1651 1906 1941 2037 1976 1998 2303 2672 2708 3008 3068 3031 3481 4012 3847 4215 4251 4088 4025 3990 4160 3756 3800 3852 3683 3522 3335 3080 3264 3390 3497
2547 2497 2639 2574 2388 2384 2267 2200 2183 2139 2201 2096 2084 2061 1881 1839 1782 1787 2082 2255 2435 2562 2916 3136 3613 3713 4050 4161 4085 3838 3845 3935 3992 3789 3593 3548 3565 3606 3444 3025 3116 3190
2249 2061 1996 1864 2332 2346 2088 2082 2062 2141 2228 2303 2294 2174 1853 1816 1848 1682 1811 2029 2135 2451 2622 2701 2676 3002 3252 3536 3829 3952 3654 3412 3546 3694 3653 3580 3715 3335 3233 3635 3395 2938
1620 1513 1552 1687 1912 2021 2150 2082 1836 1980 1881 1857 1861 1922 1965 2070 2127 2119 2006 1949 2038 2246 2452 2388 2534 2646 2898 2529 2608 3013 3367 3064 3124 3593 3679 3530 3647 3730 3279 3157 3170 2920
1453 1514 1566 1590 1887 1878 1975 2012 1979 1791 1839 2013 1885 1776 1807 2125 1638 1630 1551 1599 1605 1626 1739 1784 1903 1978 2056 1812 1665 1604 2171 2741 3227 3424 3700 3836 3532 3622 3670 3111 2839 2966
1427 1466 1483 1499 1478 1482 1684 1804 1747 1864 1973 1978 1798 1826 1993 1750 1720 1669 1951 1520 1300 1187 1165 1295 1446 1444 1202 1151 1156 1241 1293 2018 2258 2582 2674 2884 3051 2925 2927 2876 2766 2614
1146 1246 1505 1314 1380 1411 1446 1386 1475 1607 1701 1813 1916 1934 1676 1731 2222 1871 2042 1860 1730 1830 1452 1286 1323 785 766 742 746 708 762 987 1634 1976 2159 2284 2327 2610 2745 2773 2980 3040
908 885 861 867 978 1064 1280 1568 1494 1326 1619 1610 1754 1579 1601 1977 1962 2300 2340 2482 2329 2373 2248 1884 2004 1130 878 755 751 760 764 742 1168 1558 1800 2015 2237 2362 2270 2391 2762 3060
702 721 737 731 734 758 824 881 945 1054 1169 1255 1317 1337 1269 1508 1385 1662 1669 1781 1901 1938 2221 1886 1539 1136 1131 1064 939 884 782 685 728 1142 1336 1643 1904 2156 2506 2587 2734 2717
793 802 770 750 753 816 868 891 876 860 857 905 976 994 1053 1082 1156 1362 1371 1247 1384 1358 1505 1800 1459 1124 1137 1184 1136 1108 983 859 1234 1526 1591 1650 1746 1970 2132 2433 2564 2445
612 554 749 605 724 801 808 816 842 833 810 814 835 921 961 1047 1057 1262 1252 1190 1245 1179 1216 1246 1184 1102 1092 1123 1164 1202 1166 1553 1496 1490 1670 1712 1817 1921 1988 1916 1959 2010
525 583 513 566 626 629 640 696 740 702 770 728 744 812 852 876 886 894 919 939 972 979 963 984 967 1000 992 964 1003 1134 1236 1319 1673 1672 1714 1777 1844 1844 1784 1847 1791 1450
277 284 280 283 247 230 228 267 370 485 589 626 555 484 534 676 773 830 803 814 826 843 812 808 826 872 941 971 999 1057 1127 1173 1222 1468 1530 1615 1545 1661 1609 1571 1537 1364
167 205 89 136 186 198 204 300 328 267 239 242 236 217 128 198 394 437 482 560 639 692 722 699 634 683 704 764 824 881 963 1032 1099 1114 1193 1180 1183 1203 1467 1539 1194 1186

ECMWFNIL_con_mucape_126.txt.gz
CAPE
3183 3240 3036 2988 3057 2842 2905 2819 2581 2685 2880 2728 2673 2607 2859 2993 3213 3198 3330 3625 3599 3627 3555 3722 3608 3525 3271 3274 3596 3464 4047 3916 4280 4113 3953 3908 3740 3448 3006 3229 3000 2922
2955 3161 3075 2907 3178 3254 3344 3149 2934 2773 2727 2845 2732 2904 2825 3082 3208 3326 3811 3990 3861 3651 4022 3594 3560 3569 3428 3239 3338 3289 4051 4080 3600 3491 3759 3970 3941 3347 2995 2775 2592 2810
2962 3116 2994 2912 2630 2669 2470 2755 3105 2941 2855 2706 2886 3207 3192 2687 3430 3223 3753 3874 3513 3349 3634 3638 3573 3616 3388 3455 3538 3263 3428 3754 3439 3422 4059 4171 3721 3426 3112 2743 2786 3050
2832 2822 2566 2396 2441 2432 2526 2777 3075 3160 3025 3080 3048 2923 2918 2755 3078 3402 3799 3416 3821 3624 3649 3583 3565 3420 3467 3535 3678 3516 3884 4083 3799 4581 4411 4123 3854 3412 3159 3223 2802 2719
2382 2532 2500 2428 2353 2528 2619 2680 2688 2841 3070 3069 2884 3120 2987 3394 3468 3664 3654 3550 3612 3715 3624 3758 3587 3526 3813 3724 3775 3760 3659 3751 3876 4207 4166 4045 4113 3593 3262 3208 3443 2817
2160 2359 2519 2558 2564 2738 2514 2598 2739 2735 2881 2757 2959 3017 2966 2986 3324 3382 3252 3232 2999 2774 2921 2969 3366 3178 3205 3821 3912 3793 3529 3228 3114 4295 4275 4287 3799 3624 3395 3645 3935 3811
1817 2210 2205 2390 2468 2552 2518 2547 2566 2748 2568 2645 2857 2952 2790 2814 3088 3259 3239 3068 2894 2861 2534 2917 3308 3197 3065 3805 4198 4438 3747 3537 3694 4235 3849 3392 3785 3957 3619 3738 4183 4012
1282 1326 1652 1840 2004 2281 2175 2290 2479 2649 2779 2787 2833 2980 3030 2809 3058 3138 3113 3174 2840 2928 3048 3139 3409 2993 3108 3061 3623 3913 3891 3458 3822 3637 3708 3551 3560 3998 4012 3480 3232 3517
1266 1219 1270 1457 1460 1597 1546 1798 2143 2381 2545 2689 2368 2524 2761 2894 2898 2825 3341 3443 3214 3344 3667 3633 3578 3150 2623 3253 3599 3874 4141 3674 3312 3623 4165 3942 3891 4137 3600 3508 3222 3018
1413 1208 934 1018 1080 1095 1158 1165 1305 1559 2014 2259 2090 2169 2417 2640 2860 2891 3478 3970 3830 3974 4345 3995 3981 3322 3366 3337 3706 3823 3945 4250 4059 3994 3859 3888 3888 3688 3420 3490 3230 3110
1298 1118 950 785 695 646 789 783 725 933 1432 1417 1580 1713 2127 2416 2671 3100 3487 3949 3307 3724 3976 4138 3965 3923 3813 3533 3529 3620 3666 3486 3590 3887 4036 4226 4010 3914 3736 3430 3211 3082
1619 1340 909 754 650 533 537 498 527 575 753 1146 1104 1332 1779 1987 2688 2389 2772 3165 3228 3350 3522 3903 3845 4100 4279 4280 3684 3637 3477 3481 3643 3627 3516 3768 3624 3675 3702 3721 3474 3475
1980 1814 1407 969 892 680 534 773 463 640 583 667 716 737 1120 1153 1351 1982 2371 2804 2917 2779 2900 3206 3718 3482 3767 4037 3736 3422 3567 3856 3524 3479 3612 3181 3227 2913 2815 2457 2303 2401
2725 2262 2260 1848 1754 1288 1085 1007 1052 964 854 664 648 814 827 803 736 859 1555 1919 2086 2274 2404 2535 2970 3240 3714 3872 3787 3398 3202 3407 3516 3102 2590 2787 2719 2636 2417 2159 1968 1860
3727 3284 2739 2533 2669 2589 2184 1583 1369 1486 1594 1611 1452 1436 959 580 529 513 716 1055 1256 1575 1824 1894 1935 2264 2516 3175 3404 3551 2978 2670 2672 2802 2754 2590 2298 2034 2076 2297 2149 1736
3266 2883 2725 2634 2646 2548 2787 2596 2059 1694 1504 1774 1759 1863 1345 1285 1151 877 780 976 1241 1586 1808 1532 1412 1567 2126 2869 2793 2701 3025 2760 2670 3027 3142 2996 2850 2663 2091 1861 1810 1696
2960 2709 2660 2668 2726 2726 2780 2617 2499 2318 1894 2078 2160 2129 1969 2040 2177 1721 1424 1011 1015 1191 1505 1269 765 866 3005 2201 2111 1754 2225 2198 2435 2773 3176 3272 3068 2947 2605 2167 1873 1621
2559 2640 2596 2679 2736 2769 2942 3097 3000 3088 3192 3209 2990 2502 2797 2328 2193 1946 1884 1592 1232 1253 1092 797 640 2801 1872 1823 1633 1474 1888 2151 2047 2025 2028 2143 2384 2163 2080 1986 1751 1526
2214 2457 2650 2552 2436 2429 2498 2700 2933 3026 2943 2823 2986 3046 3026 3100 2710 2245 2304 2225 1795 1548 1352 1061 368 1204 1224 1050 966 869 890 1305 1772 1747 1661 1703 1589 1808 2039 2219 2480 2430
1649 2009 2016 1933 2292 2386 2408 2345 2367 2483 2596 2567 2738 2883 2792 3010 3086 2997 2900 2798 2468 2201 2155 1766 2067 1170 1034 836 624 586 556 764 1755 1640 1628 1620 1750 1958 1740 2038 2568 3182
627 801 1121 1026 1022 1360 1340 1568 1570 1671 1707 1769 1964 2222 2315 2480 2668 2763 2834 3113 2916 2706 2695 1914 1477 1525 1361 1059 831 652 609 568 1440 1476 1180 1337 1533 1766 2312 2713 2979 3002
604 577 706 722 581 647 785 857 1025 1153 1392 1363 1502 1839 1842 1700 2047 2227 2351 2423 2370 1839 2111 1604 1533 1453 1371 1046 1108 995 954 760 1587 2149 1947 1728 1718 1882 2266 2739 2988 3030
529 326 523 462 464 440 462 577 640 809 948 1208 1148 1340 1071 1628 1573 1265 1317 1291 1392 1675 1320 1238 1296 1417 1429 1268 1061 1067 1069 1976 2438 2239 2195 2305 2239 2385 2605 2716 2817 3041
254 335 333 450 512 535 465 415 460 553 668 756 816 847 911 894 955 936 1027 1014 998 1176 1099 1073 1074 1077 1042 978 939 954 950 1548 2410 2612 2609 2597 2459 2585 2822 2843 2994 2279
301 321 408 422 357 283 252 318 411 445 443 642 585 637 784 686 601 679 700 750 674 746 802 794 747 757 826 830 827 839 877 1239 2190 2196 1643 2416 2555 2572 2474 2504 1777 1486
99 144 151 127 57 61 62 84 112 162 138 155 136 156 202 201 203 387 465 492 506 542 488 529 562 603 641 706 717 759 789 975 1567 1599 1694 1714 1833 2005 2144 1739 1584 1311

ECMWFNIL_con_mucape_129.txt.gz
CAPE
3468 2767 3188 3008 2665 2343 2476 2967 2682 3144 2686 2502 2741 2853 2644 2485 2734 2406 2741 2992 2962 3283 3586 3747 3614 3845 3428 3321 3296 3371 4189 3032 4612 4044 3777 3623 3847 3536 3124 3043 2632 2484
3195 2980 2984 2727 3160 3413 3292 2675 2677 2719 2842 3262 2516 2431 2952 3039 3449 3159 3248 3540 3399 3516 4118 3671 3742 3877 3344 3110 3275 3301 3438 3897 2924 3040 3776 3954 3094 3011 2724 2557 2113 1990
3092 3436 3152 2756 2209 2602 2502 2721 2761 2785 2380 2546 2713 2807 2861 3201 3173 3510 3988 4124 3540 3406 3970 3953 4026 3728 3120 3650 3370 3079 3546 3676 3373 3460 4467 3950 3576 3722 2921 2446 2640 3020
3261 3079 2672 2478 2353 1975 2568 2562 3351 2672 2487 2732 2740 2841 2595 2332 2902 2890 4136 3634 3854 3783 3566 3461 3700 3252 3229 3556 3516 3459 4049 4375 3790 4931 5041 4328 3683 3450 3443 3231 2726 2466
2668 3027 2872 2432 2270 2275 2356 2565 2699 2470 2784 2748 2803 2877 2946 3158 2600 2702 3604 2948 4104 3992 4114 4028 3662 3638 3368 3423 3593 3250 3790 3664 3481 3406 3208 3628 3852 3357 2726 2611 3262 3032
2331 2544 2903 2672 2498 2661 2390 2594 2710 2394 2803 2974 2719 2727 2483 3490 2608 3348 2939 2559 2048 3108 3082 2996 3138 2972 3184 3438 3306 3018 3224 2740 2881 4231 4755 4455 3546 3437 3193 3284 3961 3678
1965 2417 2354 2642 2679 2575 2490 2504 2550 2658 2278 2571 2506 2806 2578 2238 2743 3350 3230 3008 2326 2113 2618 2768 3340 2738 2890 3635 3294 3534 3579 3766 3976 4517 4815 3843 3630 3281 2623 2839 3831 3612
1494 1689 2037 2432 2512 2618 2626 2404 2463 2570 2577 2504 2456 2698 2760 2464 2252 2763 3078 2541 2814 2651 2471 2996 3154 3433 3072 3490 3422 3877 3094 2477 2574 3104 3329 3275 3450 3552 3808 3083 3198 3606
1095 1326 1566 1672 1951 2487 2246 2092 2241 2398 2573 2591 2570 2450 2742 2668 2536 2602 2745 2632 2472 2716 2673 3172 3183 2781 2739 2942 3293 3930 3337 2826 2756 2800 3118 3026 2895 2827 2718 2840 2865 2867
1097 1006 1019 1294 1330 1582 1862 1852 1751 2061 2438 2522 2366 2302 2198 2724 2820 2554 3132 3610 3093 3310 3063 3146 3393 2927 2398 2377 3373 3767 3686 3169 2995 3396 3747 3629 3268 3350 3650 3651 3055 3014
974 879 730 834 824 772 1125 1325 1426 1620 1974 2052 1935 1863 2232 2102 2681 2642 3478 3541 2857 3806 3792 3188 4117 3139 2774 2759 2900 3170 3250 3150 3218 3187 3006 3026 3197 3498 3534 3474 3566 3384
899 725 572 722 670 639 512 759 856 714 1351 1549 1626 1476 1862 2136 2292 2419 3012 3753 2896 3342 3502 3719 3710 3933 3882 3623 3242 3275 3255 3387 3550 3449 2870 3618 3445 3233 2893 2564 2271 2320
886 440 486 393 487 442 347 377 489 406 308 1050 1030 1124 1434 1762 2136 2205 2391 3161 3122 3144 3231 3684 3950 3679 4079 4155 3503 3285 3059 3255 3117 3263 3286 3116 3334 2892 2258 2028 2327 1911
1360 1057 911 817 486 483 350 204 224 272 329 269 622 686 450 604 1070 1910 2186 2507 2815 2722 2903 3316 3944 3866 3676 4325 3851 3212 2826 3168 3466 3172 3196 3195 2822 2506 2080 1690 1413 1108
1688 1748 2039 1863 1371 1038 548 327 239 172 259 260 304 210 247 268 292 166 1239 1787 2205 2524 2474 2607 2958 3375 3329 3272 3224 3284 2859 2902 2989 3069 2959 2730 2317 2053 1934 1702 1212 962
3241 3155 3322 3225 2906 2956 2148 1129 540 622 384 240 340 133 175 276 294 174 200 750 1336 1627 1641 1671 1566 1550 2124 2698 2647 3131 2279 1730 2311 2405 2413 2541 2390 2146 1837 1426 1207 1193
5214 4686 4234 3964 3815 3650 3569 3141 2532 2009 1327 1235 936 673 922 948 720 335 150 132 218 342 986 884 884 476 1982 1732 2023 2268 2351 2915 3150 3244 3538 3199 2828 2738 2335 1766 1332 1133
3769 4264 4171 4117 4245 4239 4216 3928 3319 2522 2604 2235 1669 1171 1434 1208 862 870 904 482 168 232 284 596 751 680 1670 1385 1712 1845 2076 2460 1526 1452 1626 1772 1601 1836 1884 1772 1472 1122
3098 3264 3708 3734 3730 3983 3972 4250 4339 3938 3765 3464 2922 2467 1692 1694 1384 1158 1015 903 508 320 261 330 1467 1060 1495 1635 1528 1488 1168 1152 1529 1252 929 941 1219 1471 1212 1364 1945 1813
2116 2276 2722 2596 2533 2510 2680 2775 3160 3412 3046 3102 3179 3888 2787 2997 2893 1847 1575 1711 1128 578 334 1654 715 1102 1273 1358 1327 1160 989 860 1209 1458 1284 934 952 1011 1080 1093 1686 1889
1032 1212 1510 1888 2071 2119 1997 2266 2178 2101 2258 2101 1888 2156 2437 2184 2104 1593 1391 1332 1487 1214 1030 1389 1426 1142 1089 1052 971 934 765 590 1078 1299 1355 992 698 640 1014 1364 1684 1465
558 651 803 1010 1118 1432 1139 1360 1410 1439 1454 1699 1620 1782 1818 1401 1190 1571 1365 1426 1725 1495 1276 1409 1642 1466 1336 1302 1255 1100 1167 1322 1619 1827 1627 1256 804 564 839 1472 1517 1843
269 258 307 537 560 652 733 785 923 1010 937 935 1148 1225 1328 1563 1498 1306 1304 1270 1271 1188 1219 1196 1405 1424 1421 1455 1376 1332 1199 2012 2209 2064 1935 2120 2326 2358 1561 1179 1584 2175
462 367 335 323 452 355 502 614 624 468 528 729 918 1002 906 1028 1193 1007 1054 1223 1309 1283 1221 1236 1208 1135 1191 1259 1270 1205 1121 1252 1983 2242 2336 2058 2142 1967 1028 1228 1860 1636
363 289 297 299 351 335 303 292 310 292 265 695 532 682 715 783 708 519 714 914 1066 982 922 991 1046 978 912 913 953 982 924 1132 2102 2152 2113 1986 1587 1418 1322 1328 1552 1382
240 175 178 187 182 189 193 308 248 249 272 320 319 389 661 567 306 348 402 547 582 756 772 616 800 806 715 749 721 717 729 771 1710 1411 1652 1647 1482 1393 1407 1272 1184 1384

ECMWFNIL_con_mucape_132.txt.gz
CAPE
3713 3483 3583 2875 2725 2416 2259 2112 1987 2274 2766 2319 2461 2702 2784 3083 2938 3036 2950 3399 3446 3656 4102 4008 4042 4023 3358 3527 4339 4805 4111 4384 4774 4269 4318 3770 4137 3141 2632 2811 1812 3216
3517 3089 3452 2874 3742 4179 3586 2673 2722 3056 3584 3760 3203 3186 2997 3042 2697 2791 3091 3202 3538 3440 4275 3968 4138 4204 4197 3904 4050 3802 5264 4830 4736 3744 4829 3457 3640 3161 2218 2652 1768 3264
2856 2529 2537 2330 2284 2764 2148 2688 3229 3356 2840 2950 2729 3301 3280 2413 2858 3397 3519 3438 3248 2868 4086 4179 4313 4279 3900 3932 4059 4008 4092 4604 4470 3685 4126 5150 3906 3823 3798 2013 2158 2346
3209 2912 1950 1798 2152 2716 2183 2549 3143 3225 2398 3088 2804 2283 2479 2341 2725 3129 3933 3781 3962 3687 3812 3898 3886 3566 3704 3995 4289 4143 4235 4626 4240 4966 5504 5736 4884 3768 3136 3476 3054 2909
2634 2880 2190 2119 2308 2393 2528 1961 2314 2175 2278 2245 2216 3029 3330 3323 3047 2838 4004 3719 4304 3678 4082 3891 4009 3678 3976 4181 4300 4532 4360 4645 4240 4892 4682 4450 5027 4251 3281 3114 3220 3028
2826 2992 3019 2497 1935 2647 2108 2156 2630 1623 2283 2186 1900 2687 2624 2706 2658 2710 3196 2931 3312 3139 3074 3096 3443 3410 3012 4047 4248 4170 3781 3372 3430 4308 4127 4221 3793 3619 2704 3706 3256 3456
2024 2520 2086 1861 2072 2397 2285 2269 2210 2232 2232 2949 2423 2560 2386 2980 2606 2588 2724 2668 2621 3018 2206 3049 4002 3478 3264 4010 4163 4300 4149 4510 4897 4362 4384 4605 4707 4079 3210 3212 4180 3803
1858 1913 2174 2066 1709 2471 2600 1587 1671 2492 2695 2367 2190 2750 2265 1869 2268 2302 2734 2770 1883 2214 2728 3004 3516 3778 2797 3188 3924 4044 3979 3294 3882 4767 4727 4565 4347 4425 4222 3540 3522 4534
1575 1903 2001 1906 1929 2180 1548 1650 2085 1856 2038 2372 1834 1925 2633 2227 1737 1736 3031 3004 2636 2991 3025 3113 3952 3145 3119 3365 3821 4164 3898 3111 1912 3590 4057 3533 3509 3833 3237 3590 3719 3737
1623 1579 1266 1210 1415 1614 1726 1748 1760 1569 2187 2015 1475 1719 1993 2363 1681 1569 3056 3344 2902 3618 3744 3498 3620 3260 2892 2928 3805 3809 3808 4013 3572 3094 3567 3503 3481 3207 3026 3341 3039 3401
914 912 960 1033 1058 1036 1842 1626 1515 1782 2006 1854 1496 1681 1636 1556 2686 2358 2967 3602 2262 2790 3342 3352 3592 3546 3379 2485 2329 2888 3440 3040 3424 3607 3622 4094 3927 3912 3595 4205 3750 3552
803 684 667 752 750 765 670 1044 1269 1214 1476 1456 1534 1285 1396 1490 1912 2312 2739 3665 3178 2799 3383 3732 3636 4088 3954 3421 2192 2180 3023 3068 3077 3587 3140 3300 3150 2881 3271 3284 2888 3030
1096 760 918 430 591 439 357 364 813 828 1435 1664 1243 1373 1186 1598 1770 2162 3131 3392 3678 2761 2878 4065 4037 3694 4408 4096 3596 3471 2846 3512 2687 3233 3485 3249 3220 2898 2795 2214 2353 2623
2690 2083 1477 1388 1102 1176 1081 419 268 378 627 1269 1294 1352 821 778 1551 1938 1410 2468 2851 2445 2706 3115 4064 3905 4069 4516 4289 3508 3284 3308 3406 3401 3245 2951 2478 3083 2543 1753 1968 1950
2762 2898 2339 2147 2389 2748 1199 835 600 542 818 834 1180 1077 546 481 1394 996 1332 2051 2010 2286 2811 2472 2917 3612 3426 3463 4027 4451 3919 3007 2733 2810 2801 2912 2756 2098 1834 2195 1758 1165
3277 2987 2565 2005 1708 2111 2421 2042 866 711 254 399 543 568 780 697 994 1068 768 1619 1563 2056 2234 2228 1680 2341 3015 2944 2976 3579 3537 3036 2665 2663 3082 2861 2942 3001 2177 1309 853 791
1483 2491 3022 3369 3373 2979 2900 2351 1592 736 1267 2246 1042 810 2123 2598 1482 608 172 238 657 1637 1576 1832 1145 894 902 1800 2099 2604 3299 3444 3097 3175 2871 2472 2866 3278 2968 2597 2006 1493
2122 2330 2045 2030 2771 2969 2592 2409 1974 2099 1848 1522 826 597 857 1306 1316 1444 1702 1479 807 906 174 997 929 877 925 1342 1489 1826 2475 3316 2603 2433 2192 2306 2504 2617 2599 1899 1701 1428
2230 2486 2198 1960 1969 2413 2882 2291 2584 2684 2180 1417 1313 1427 1634 1728 1870 1720 1735 1675 1719 1704 1112 740 934 508 878 937 1241 1546 1755 1876 1794 1384 823 645 1299 1816 2015 2127 2214 2831
1608 1563 1778 1944 1736 2018 2393 2391 2485 2243 2127 1594 1487 1365 1634 1474 1576 1668 1805 1633 1467 1695 1392 1016 829 907 855 1053 1133 1244 1455 1543 1456 1282 1419 1175 1334 1351 894 1519 2581 2336
1421 1238 1194 1333 1489 1611 1673 1645 1591 1644 1745 1857 1588 1408 1564 1614 1539 1610 1543 1566 1413 1352 903 936 1117 1045 942 940 1052 1155 1204 1196 1550 1543 1493 1340 1173 1647 1728 1993 2416 2603
1119 1199 1248 1083 1384 1380 1383 1449 1562 1555 1519 1559 1605 1495 1215 1233 1452 1297 1245 1248 1484 1533 1032 876 858 1120 1071 973 943 970 977 1607 2090 2338 1937 1742 1036 2464 2377 2424 2543 2496
1009 1036 1052 1053 770 801 973 1024 1014 1298 1297 1328 976 1018 996 1109 1294 1277 1147 1090 1172 1208 1144 1105 1045 1123 1282 1304 1184 1153 1175 1368 2050 2315 2488 2128 2838 2176 2081 2066 1543 1377
447 515 578 657 660 712 718 794 996 926 645 755 790 822 872 896 933 901 974 1002 1043 1131 1034 979 1072 1065 1177 1348 1445 1402 1327 1249 1958 1976 2222 2506 2162 1770 1899 1591 1039 949
372 387 388 330 357 337 386 456 423 358 408 484 569 599 644 730 750 768 767 747 774 665 687 764 790 922 1000 1114 1157 1088 1015 998 1889 1788 1870 2013 1603 1869 1490 1507 1029 1032
260 277 303 319 281 239 259 276 272 313 351 357 384 376 398 442 410 438 386 328 432 484 576 651 650 626 659 785 865 878 824 719 673 926 1079 1181 1204 1078 1064 1057 1360 959